<?xml version='1.0' encoding='UTF-8'?>
<gpx version="1.1" creator="https://www.komoot.de" xmlns="http://www.topografix.com/GPX/1/1" xmlns:xsi="http://www.w3.org/2001/XMLSchema-instance" xsi:schemaLocation="http://www.topografix.com/GPX/1/1 http://www.topografix.com/GPX/1/1/gpx.xsd">
  <metadata>
    <name>2026 09 05 Zum Verler See-9-90,4km-Samstag</name>
    <author>
      <link href="https://www.komoot.de">
        <text>komoot</text>
        <type>text/html</type>
      </link>
    </author>
  </metadata>
  <trk>
    <name>2026 09 05 Zum Verler See-9-90,4km-Samstag</name>
    <trkseg>
      <trkpt lat="52.024446" lon="8.907343">
        <ele>97.452932</ele>
        <time>2025-11-05T20:04:31.134Z</time>
      </trkpt>
      <trkpt lat="52.024501" lon="8.907135">
        <ele>97.452932</ele>
        <time>2025-11-05T20:04:34.004Z</time>
      </trkpt>
      <trkpt lat="52.024630" lon="8.907230">
        <ele>97.452932</ele>
        <time>2025-11-05T20:04:36.945Z</time>
      </trkpt>
      <trkpt lat="52.024761" lon="8.907326">
        <ele>97.452932</ele>
        <time>2025-11-05T20:04:39.958Z</time>
      </trkpt>
      <trkpt lat="52.024891" lon="8.907415">
        <ele>97.452932</ele>
        <time>2025-11-05T20:04:42.948Z</time>
      </trkpt>
      <trkpt lat="52.025044" lon="8.907447">
        <ele>97.452932</ele>
        <time>2025-11-05T20:04:46.256Z</time>
      </trkpt>
      <trkpt lat="52.025134" lon="8.907465">
        <ele>97.452932</ele>
        <time>2025-11-05T20:04:48.202Z</time>
      </trkpt>
      <trkpt lat="52.025148" lon="8.907466">
        <ele>97.452932</ele>
        <time>2025-11-05T20:04:48.593Z</time>
      </trkpt>
      <trkpt lat="52.025203" lon="8.907453">
        <ele>97.452932</ele>
        <time>2025-11-05T20:04:50.147Z</time>
      </trkpt>
      <trkpt lat="52.025201" lon="8.907042">
        <ele>97.549372</ele>
        <time>2025-11-05T20:04:55.841Z</time>
      </trkpt>
      <trkpt lat="52.025135" lon="8.907017">
        <ele>97.577325</ele>
        <time>2025-11-05T20:04:57.703Z</time>
      </trkpt>
      <trkpt lat="52.024396" lon="8.906385">
        <ele>97.921769</ele>
        <time>2025-11-05T20:05:16.018Z</time>
      </trkpt>
      <trkpt lat="52.024340" lon="8.906308">
        <ele>97.952025</ele>
        <time>2025-11-05T20:05:17.621Z</time>
      </trkpt>
      <trkpt lat="52.024136" lon="8.906030">
        <ele>98.061837</ele>
        <time>2025-11-05T20:05:23.484Z</time>
      </trkpt>
      <trkpt lat="52.023984" lon="8.905573">
        <ele>98.193686</ele>
        <time>2025-11-05T20:05:30.487Z</time>
      </trkpt>
      <trkpt lat="52.023846" lon="8.904631">
        <ele>98.395083</ele>
        <time>2025-11-05T20:05:43.259Z</time>
      </trkpt>
      <trkpt lat="52.023851" lon="8.904259">
        <ele>98.472392</ele>
        <time>2025-11-05T20:05:48.154Z</time>
      </trkpt>
      <trkpt lat="52.023872" lon="8.904100">
        <ele>98.506180</ele>
        <time>2025-11-05T20:05:50.302Z</time>
      </trkpt>
      <trkpt lat="52.023892" lon="8.904000">
        <ele>98.528027</ele>
        <time>2025-11-05T20:05:51.687Z</time>
      </trkpt>
      <trkpt lat="52.023946" lon="8.903493">
        <ele>98.634934</ele>
        <time>2025-11-05T20:05:58.583Z</time>
      </trkpt>
      <trkpt lat="52.023918" lon="8.901989">
        <ele>98.924825</ele>
        <time>2025-11-05T20:06:18.880Z</time>
      </trkpt>
      <trkpt lat="52.023986" lon="8.901106">
        <ele>99.080807</ele>
        <time>2025-11-05T20:06:30.664Z</time>
      </trkpt>
      <trkpt lat="52.024077" lon="8.899614">
        <ele>99.581019</ele>
        <time>2025-11-05T20:06:50.124Z</time>
      </trkpt>
      <trkpt lat="52.024100" lon="8.899368">
        <ele>99.980362</ele>
        <time>2025-11-05T20:06:53.384Z</time>
      </trkpt>
      <trkpt lat="52.024068" lon="8.899374">
        <ele>100.064379</ele>
        <time>2025-11-05T20:06:54.111Z</time>
      </trkpt>
      <trkpt lat="52.023849" lon="8.899407">
        <ele>100.638032</ele>
        <time>2025-11-05T20:06:58.997Z</time>
      </trkpt>
      <trkpt lat="52.023674" lon="8.899411">
        <ele>101.094519</ele>
        <time>2025-11-05T20:07:03.127Z</time>
      </trkpt>
      <trkpt lat="52.023588" lon="8.899390">
        <ele>101.321345</ele>
        <time>2025-11-05T20:07:05.188Z</time>
      </trkpt>
      <trkpt lat="52.023537" lon="8.899502">
        <ele>101.544964</ele>
        <time>2025-11-05T20:07:07.197Z</time>
      </trkpt>
      <trkpt lat="52.023348" lon="8.899599">
        <ele>102.061919</ele>
        <time>2025-11-05T20:07:11.919Z</time>
      </trkpt>
      <trkpt lat="52.023324" lon="8.899495">
        <ele>102.240186</ele>
        <time>2025-11-05T20:07:13.875Z</time>
      </trkpt>
      <trkpt lat="52.023089" lon="8.899622">
        <ele>102.886124</ele>
        <time>2025-11-05T20:07:21.116Z</time>
      </trkpt>
      <trkpt lat="52.023075" lon="8.899646">
        <ele>102.939200</ele>
        <time>2025-11-05T20:07:21.729Z</time>
      </trkpt>
      <trkpt lat="52.022876" lon="8.899654">
        <ele>103.458398</ele>
        <time>2025-11-05T20:07:27.817Z</time>
      </trkpt>
      <trkpt lat="52.022793" lon="8.899667">
        <ele>103.675884</ele>
        <time>2025-11-05T20:07:30.411Z</time>
      </trkpt>
      <trkpt lat="52.022794" lon="8.899637">
        <ele>103.724104</ele>
        <time>2025-11-05T20:07:30.906Z</time>
      </trkpt>
      <trkpt lat="52.022794" lon="8.899612">
        <ele>103.764228</ele>
        <time>2025-11-05T20:07:31.324Z</time>
      </trkpt>
      <trkpt lat="52.022801" lon="8.899414">
        <ele>104.157392</ele>
        <time>2025-11-05T20:07:34.658Z</time>
      </trkpt>
      <trkpt lat="52.022705" lon="8.899513">
        <ele>104.743163</ele>
        <time>2025-11-05T20:07:37.799Z</time>
      </trkpt>
      <trkpt lat="52.022683" lon="8.899617">
        <ele>105.091810</ele>
        <time>2025-11-05T20:07:39.683Z</time>
      </trkpt>
      <trkpt lat="52.022670" lon="8.899678">
        <ele>105.296467</ele>
        <time>2025-11-05T20:07:40.811Z</time>
      </trkpt>
      <trkpt lat="52.022332" lon="8.899593">
        <ele>107.058570</ele>
        <time>2025-11-05T20:07:50.791Z</time>
      </trkpt>
      <trkpt lat="52.021981" lon="8.899493">
        <ele>108.894502</ele>
        <time>2025-11-05T20:08:01.147Z</time>
      </trkpt>
      <trkpt lat="52.021367" lon="8.899321">
        <ele>112.104487</ele>
        <time>2025-11-05T20:08:18.044Z</time>
      </trkpt>
      <trkpt lat="52.021224" lon="8.899213">
        <ele>112.916902</ele>
        <time>2025-11-05T20:08:22.095Z</time>
      </trkpt>
      <trkpt lat="52.020953" lon="8.898970">
        <ele>113.554306</ele>
        <time>2025-11-05T20:08:29.707Z</time>
      </trkpt>
      <trkpt lat="52.020901" lon="8.898928">
        <ele>113.622368</ele>
        <time>2025-11-05T20:08:31.096Z</time>
      </trkpt>
      <trkpt lat="52.020279" lon="8.898426">
        <ele>114.436379</ele>
        <time>2025-11-05T20:08:46.973Z</time>
      </trkpt>
      <trkpt lat="52.019783" lon="8.898084">
        <ele>115.067911</ele>
        <time>2025-11-05T20:08:58.255Z</time>
      </trkpt>
      <trkpt lat="52.019676" lon="8.898034">
        <ele>115.198408</ele>
        <time>2025-11-05T20:09:00.497Z</time>
      </trkpt>
      <trkpt lat="52.019296" lon="8.897967">
        <ele>115.189907</ele>
        <time>2025-11-05T20:09:08.037Z</time>
      </trkpt>
      <trkpt lat="52.019129" lon="8.897880">
        <ele>115.042470</ele>
        <time>2025-11-05T20:09:11.452Z</time>
      </trkpt>
      <trkpt lat="52.018499" lon="8.897354">
        <ele>114.447000</ele>
        <time>2025-11-05T20:09:25.089Z</time>
      </trkpt>
      <trkpt lat="52.018432" lon="8.897310">
        <ele>114.386246</ele>
        <time>2025-11-05T20:09:26.454Z</time>
      </trkpt>
      <trkpt lat="52.018370" lon="8.897258">
        <ele>114.327588</ele>
        <time>2025-11-05T20:09:27.795Z</time>
      </trkpt>
      <trkpt lat="52.018011" lon="8.896748">
        <ele>113.926694</ele>
        <time>2025-11-05T20:09:37.066Z</time>
      </trkpt>
      <trkpt lat="52.017698" lon="8.896259">
        <ele>113.856920</ele>
        <time>2025-11-05T20:09:45.823Z</time>
      </trkpt>
      <trkpt lat="52.017625" lon="8.896164">
        <ele>113.853965</ele>
        <time>2025-11-05T20:09:47.770Z</time>
      </trkpt>
      <trkpt lat="52.017411" lon="8.895903">
        <ele>113.845512</ele>
        <time>2025-11-05T20:09:53.401Z</time>
      </trkpt>
      <trkpt lat="52.017073" lon="8.895568">
        <ele>113.833005</ele>
        <time>2025-11-05T20:10:01.773Z</time>
      </trkpt>
      <trkpt lat="52.016916" lon="8.895413">
        <ele>113.827202</ele>
        <time>2025-11-05T20:10:05.733Z</time>
      </trkpt>
      <trkpt lat="52.016800" lon="8.895210">
        <ele>113.821816</ele>
        <time>2025-11-05T20:10:09.422Z</time>
      </trkpt>
      <trkpt lat="52.016712" lon="8.894966">
        <ele>113.816318</ele>
        <time>2025-11-05T20:10:13.241Z</time>
      </trkpt>
      <trkpt lat="52.016678" lon="8.894870">
        <ele>113.814164</ele>
        <time>2025-11-05T20:10:14.726Z</time>
      </trkpt>
      <trkpt lat="52.016404" lon="8.894007">
        <ele>114.076471</ele>
        <time>2025-11-05T20:10:27.705Z</time>
      </trkpt>
      <trkpt lat="52.016199" lon="8.893466">
        <ele>114.276641</ele>
        <time>2025-11-05T20:10:36.076Z</time>
      </trkpt>
      <trkpt lat="52.015762" lon="8.892411">
        <ele>114.677313</ele>
        <time>2025-11-05T20:10:53.320Z</time>
      </trkpt>
      <trkpt lat="52.015220" lon="8.891113">
        <ele>115.901888</ele>
        <time>2025-11-05T20:11:15.134Z</time>
      </trkpt>
      <trkpt lat="52.014898" lon="8.890313">
        <ele>116.704028</ele>
        <time>2025-11-05T20:11:28.738Z</time>
      </trkpt>
      <trkpt lat="52.014882" lon="8.890169">
        <ele>116.826821</ele>
        <time>2025-11-05T20:11:30.842Z</time>
      </trkpt>
      <trkpt lat="52.014929" lon="8.889950">
        <ele>117.021448</ele>
        <time>2025-11-05T20:11:34.160Z</time>
      </trkpt>
      <trkpt lat="52.014368" lon="8.889550">
        <ele>117.958761</ele>
        <time>2025-11-05T20:11:48.295Z</time>
      </trkpt>
      <trkpt lat="52.013952" lon="8.889250">
        <ele>118.673522</ele>
        <time>2025-11-05T20:11:58.828Z</time>
      </trkpt>
      <trkpt lat="52.013664" lon="8.889043">
        <ele>119.168085</ele>
        <time>2025-11-05T20:12:06.192Z</time>
      </trkpt>
      <trkpt lat="52.012279" lon="8.888038">
        <ele>121.117971</ele>
        <time>2025-11-05T20:12:40.593Z</time>
      </trkpt>
      <trkpt lat="52.011734" lon="8.887663">
        <ele>121.786695</ele>
        <time>2025-11-05T20:12:53.818Z</time>
      </trkpt>
      <trkpt lat="52.011435" lon="8.887446">
        <ele>122.202625</ele>
        <time>2025-11-05T20:13:01.191Z</time>
      </trkpt>
      <trkpt lat="52.010708" lon="8.886917">
        <ele>123.462125</ele>
        <time>2025-11-05T20:13:19.534Z</time>
      </trkpt>
      <trkpt lat="52.010312" lon="8.886635">
        <ele>124.145757</ele>
        <time>2025-11-05T20:13:29.602Z</time>
      </trkpt>
      <trkpt lat="52.010010" lon="8.886411">
        <ele>124.670667</ele>
        <time>2025-11-05T20:13:37.325Z</time>
      </trkpt>
      <trkpt lat="52.009774" lon="8.886245">
        <ele>125.029734</ele>
        <time>2025-11-05T20:13:43.298Z</time>
      </trkpt>
      <trkpt lat="52.009763" lon="8.886160">
        <ele>125.093299</ele>
        <time>2025-11-05T20:13:44.534Z</time>
      </trkpt>
      <trkpt lat="52.009597" lon="8.885983">
        <ele>125.329374</ele>
        <time>2025-11-05T20:13:49.120Z</time>
      </trkpt>
      <trkpt lat="52.008486" lon="8.885194">
        <ele>126.770976</ele>
        <time>2025-11-05T20:14:16.498Z</time>
      </trkpt>
      <trkpt lat="52.007535" lon="8.884509">
        <ele>127.699362</ele>
        <time>2025-11-05T20:14:39.587Z</time>
      </trkpt>
      <trkpt lat="52.006531" lon="8.883775">
        <ele>128.627588</ele>
        <time>2025-11-05T20:15:04.158Z</time>
      </trkpt>
      <trkpt lat="52.005948" lon="8.883388">
        <ele>129.285536</ele>
        <time>2025-11-05T20:15:18.263Z</time>
      </trkpt>
      <trkpt lat="52.004997" lon="8.882718">
        <ele>130.368460</ele>
        <time>2025-11-05T20:15:41.669Z</time>
      </trkpt>
      <trkpt lat="52.004817" lon="8.882645">
        <ele>130.701094</ele>
        <time>2025-11-05T20:15:45.866Z</time>
      </trkpt>
      <trkpt lat="52.003678" lon="8.881815">
        <ele>132.952106</ele>
        <time>2025-11-05T20:16:14.776Z</time>
      </trkpt>
      <trkpt lat="52.003177" lon="8.881314">
        <ele>134.058890</ele>
        <time>2025-11-05T20:16:28.812Z</time>
      </trkpt>
      <trkpt lat="52.002851" lon="8.880812">
        <ele>134.962214</ele>
        <time>2025-11-05T20:16:39.557Z</time>
      </trkpt>
      <trkpt lat="52.002671" lon="8.880405">
        <ele>135.582617</ele>
        <time>2025-11-05T20:16:46.817Z</time>
      </trkpt>
      <trkpt lat="52.002616" lon="8.880256">
        <ele>135.797696</ele>
        <time>2025-11-05T20:16:49.316Z</time>
      </trkpt>
      <trkpt lat="52.002576" lon="8.880143">
        <ele>135.959066</ele>
        <time>2025-11-05T20:16:51.191Z</time>
      </trkpt>
      <trkpt lat="52.002496" lon="8.880044">
        <ele>136.161310</ele>
        <time>2025-11-05T20:16:53.543Z</time>
      </trkpt>
      <trkpt lat="52.002399" lon="8.879835">
        <ele>136.485341</ele>
        <time>2025-11-05T20:16:57.265Z</time>
      </trkpt>
      <trkpt lat="52.002314" lon="8.879618">
        <ele>136.803756</ele>
        <time>2025-11-05T20:17:00.926Z</time>
      </trkpt>
      <trkpt lat="52.002119" lon="8.879260">
        <ele>137.306287</ele>
        <time>2025-11-05T20:17:07.636Z</time>
      </trkpt>
      <trkpt lat="52.002081" lon="8.879296">
        <ele>137.346665</ele>
        <time>2025-11-05T20:17:08.636Z</time>
      </trkpt>
      <trkpt lat="52.001728" lon="8.878654">
        <ele>137.833077</ele>
        <time>2025-11-05T20:17:20.394Z</time>
      </trkpt>
      <trkpt lat="52.001366" lon="8.877996">
        <ele>138.331738</ele>
        <time>2025-11-05T20:17:32.298Z</time>
      </trkpt>
      <trkpt lat="52.001076" lon="8.877470">
        <ele>138.730744</ele>
        <time>2025-11-05T20:17:42.037Z</time>
      </trkpt>
      <trkpt lat="52.000988" lon="8.877167">
        <ele>138.951543</ele>
        <time>2025-11-05T20:17:46.706Z</time>
      </trkpt>
      <trkpt lat="52.000878" lon="8.876611">
        <ele>139.556589</ele>
        <time>2025-11-05T20:17:54.897Z</time>
      </trkpt>
      <trkpt lat="52.000478" lon="8.874987">
        <ele>141.368769</ele>
        <time>2025-11-05T20:18:19.820Z</time>
      </trkpt>
      <trkpt lat="52.000240" lon="8.874354">
        <ele>142.243514</ele>
        <time>2025-11-05T20:18:30.533Z</time>
      </trkpt>
      <trkpt lat="51.998953" lon="8.871861">
        <ele>146.985523</ele>
        <time>2025-11-05T20:19:18.265Z</time>
      </trkpt>
      <trkpt lat="51.998810" lon="8.871626">
        <ele>147.367971</ele>
        <time>2025-11-05T20:19:23.215Z</time>
      </trkpt>
      <trkpt lat="51.998275" lon="8.870693">
        <ele>148.843755</ele>
        <time>2025-11-05T20:19:41.737Z</time>
      </trkpt>
      <trkpt lat="51.998062" lon="8.870351">
        <ele>149.406842</ele>
        <time>2025-11-05T20:19:48.574Z</time>
      </trkpt>
      <trkpt lat="51.997558" lon="8.869423">
        <ele>148.404947</ele>
        <time>2025-11-05T20:20:04.821Z</time>
      </trkpt>
      <trkpt lat="51.997170" lon="8.868647">
        <ele>147.027429</ele>
        <time>2025-11-05T20:20:15.306Z</time>
      </trkpt>
      <trkpt lat="51.997029" lon="8.868287">
        <ele>146.439480</ele>
        <time>2025-11-05T20:20:19.509Z</time>
      </trkpt>
      <trkpt lat="51.996216" lon="8.865507">
        <ele>137.707174</ele>
        <time>2025-11-05T20:20:47.755Z</time>
      </trkpt>
      <trkpt lat="51.996137" lon="8.865221">
        <ele>136.721537</ele>
        <time>2025-11-05T20:20:50.687Z</time>
      </trkpt>
      <trkpt lat="51.996049" lon="8.864848">
        <ele>135.719002</ele>
        <time>2025-11-05T20:20:54.493Z</time>
      </trkpt>
      <trkpt lat="51.996013" lon="8.864577">
        <ele>135.057418</ele>
        <time>2025-11-05T20:20:57.139Z</time>
      </trkpt>
      <trkpt lat="51.996008" lon="8.863117">
        <ele>131.573274</ele>
        <time>2025-11-05T20:21:11.384Z</time>
      </trkpt>
      <trkpt lat="51.995977" lon="8.862673">
        <ele>130.506938</ele>
        <time>2025-11-05T20:21:15.744Z</time>
      </trkpt>
      <trkpt lat="51.995534" lon="8.860841">
        <ele>128.471380</ele>
        <time>2025-11-05T20:21:35.614Z</time>
      </trkpt>
      <trkpt lat="51.995513" lon="8.860796">
        <ele>128.432625</ele>
        <time>2025-11-05T20:21:36.281Z</time>
      </trkpt>
      <trkpt lat="51.995367" lon="8.860653">
        <ele>128.242569</ele>
        <time>2025-11-05T20:21:39.651Z</time>
      </trkpt>
      <trkpt lat="51.994004" lon="8.860236">
        <ele>128.861780</ele>
        <time>2025-11-05T20:22:11.873Z</time>
      </trkpt>
      <trkpt lat="51.993833" lon="8.860117">
        <ele>129.186192</ele>
        <time>2025-11-05T20:22:16.371Z</time>
      </trkpt>
      <trkpt lat="51.993682" lon="8.859964">
        <ele>129.496551</ele>
        <time>2025-11-05T20:22:20.627Z</time>
      </trkpt>
      <trkpt lat="51.993281" lon="8.859453">
        <ele>130.385383</ele>
        <time>2025-11-05T20:22:32.487Z</time>
      </trkpt>
      <trkpt lat="51.993101" lon="8.859223">
        <ele>130.680807</ele>
        <time>2025-11-05T20:22:37.682Z</time>
      </trkpt>
      <trkpt lat="51.992920" lon="8.858986">
        <ele>130.693907</ele>
        <time>2025-11-05T20:22:42.812Z</time>
      </trkpt>
      <trkpt lat="51.991979" lon="8.857757">
        <ele>130.761944</ele>
        <time>2025-11-05T20:23:07.692Z</time>
      </trkpt>
      <trkpt lat="51.991097" lon="8.856745">
        <ele>130.660449</ele>
        <time>2025-11-05T20:23:29.654Z</time>
      </trkpt>
      <trkpt lat="51.990334" lon="8.855994">
        <ele>130.525726</ele>
        <time>2025-11-05T20:23:48.401Z</time>
      </trkpt>
      <trkpt lat="51.989007" lon="8.854412">
        <ele>131.078946</ele>
        <time>2025-11-05T20:24:23.980Z</time>
      </trkpt>
      <trkpt lat="51.987969" lon="8.853379">
        <ele>131.818372</ele>
        <time>2025-11-05T20:24:51.075Z</time>
      </trkpt>
      <trkpt lat="51.987497" lon="8.852887">
        <ele>132.197136</ele>
        <time>2025-11-05T20:25:03.532Z</time>
      </trkpt>
      <trkpt lat="51.987293" lon="8.852777">
        <ele>132.342295</ele>
        <time>2025-11-05T20:25:08.244Z</time>
      </trkpt>
      <trkpt lat="51.987082" lon="8.852712">
        <ele>132.481498</ele>
        <time>2025-11-05T20:25:12.918Z</time>
      </trkpt>
      <trkpt lat="51.986279" lon="8.852526">
        <ele>132.993843</ele>
        <time>2025-11-05T20:25:30.580Z</time>
      </trkpt>
      <trkpt lat="51.985534" lon="8.852364">
        <ele>133.468619</ele>
        <time>2025-11-05T20:25:47.236Z</time>
      </trkpt>
      <trkpt lat="51.985430" lon="8.852331">
        <ele>133.535155</ele>
        <time>2025-11-05T20:25:49.641Z</time>
      </trkpt>
      <trkpt lat="51.984951" lon="8.852220">
        <ele>133.786927</ele>
        <time>2025-11-05T20:26:00.666Z</time>
      </trkpt>
      <trkpt lat="51.984629" lon="8.852143">
        <ele>133.956286</ele>
        <time>2025-11-05T20:26:08.000Z</time>
      </trkpt>
      <trkpt lat="51.984288" lon="8.852058">
        <ele>134.135803</ele>
        <time>2025-11-05T20:26:15.666Z</time>
      </trkpt>
      <trkpt lat="51.983991" lon="8.851978">
        <ele>134.292459</ele>
        <time>2025-11-05T20:26:22.171Z</time>
      </trkpt>
      <trkpt lat="51.983849" lon="8.851944">
        <ele>134.367147</ele>
        <time>2025-11-05T20:26:25.196Z</time>
      </trkpt>
      <trkpt lat="51.983342" lon="8.851831">
        <ele>134.241791</ele>
        <time>2025-11-05T20:26:35.498Z</time>
      </trkpt>
      <trkpt lat="51.983136" lon="8.851738">
        <ele>134.087714</ele>
        <time>2025-11-05T20:26:39.565Z</time>
      </trkpt>
      <trkpt lat="51.982543" lon="8.851356">
        <ele>133.627989</ele>
        <time>2025-11-05T20:26:51.757Z</time>
      </trkpt>
      <trkpt lat="51.982469" lon="8.851371">
        <ele>133.574250</ele>
        <time>2025-11-05T20:26:53.267Z</time>
      </trkpt>
      <trkpt lat="51.982418" lon="8.851194">
        <ele>133.487521</ele>
        <time>2025-11-05T20:26:55.634Z</time>
      </trkpt>
      <trkpt lat="51.982329" lon="8.851007">
        <ele>133.382634</ele>
        <time>2025-11-05T20:26:58.564Z</time>
      </trkpt>
      <trkpt lat="51.981843" lon="8.850472">
        <ele>132.805298</ele>
        <time>2025-11-05T20:27:10.527Z</time>
      </trkpt>
      <trkpt lat="51.981397" lon="8.849986">
        <ele>132.138764</ele>
        <time>2025-11-05T20:27:21.351Z</time>
      </trkpt>
      <trkpt lat="51.981161" lon="8.849625">
        <ele>131.736410</ele>
        <time>2025-11-05T20:27:27.612Z</time>
      </trkpt>
      <trkpt lat="51.980911" lon="8.849097">
        <ele>131.227399</ele>
        <time>2025-11-05T20:27:35.037Z</time>
      </trkpt>
      <trkpt lat="51.980781" lon="8.848456">
        <ele>130.273733</ele>
        <time>2025-11-05T20:27:42.098Z</time>
      </trkpt>
      <trkpt lat="51.980758" lon="8.848288">
        <ele>129.891291</ele>
        <time>2025-11-05T20:27:43.839Z</time>
      </trkpt>
      <trkpt lat="51.980741" lon="8.848139">
        <ele>129.554548</ele>
        <time>2025-11-05T20:27:45.362Z</time>
      </trkpt>
      <trkpt lat="51.980766" lon="8.847591">
        <ele>128.333441</ele>
        <time>2025-11-05T20:27:50.829Z</time>
      </trkpt>
      <trkpt lat="51.980804" lon="8.846766">
        <ele>126.494998</ele>
        <time>2025-11-05T20:27:58.889Z</time>
      </trkpt>
      <trkpt lat="51.980804" lon="8.846100">
        <ele>125.015007</ele>
        <time>2025-11-05T20:28:05.213Z</time>
      </trkpt>
      <trkpt lat="51.980752" lon="8.845478">
        <ele>123.547724</ele>
        <time>2025-11-05T20:28:11.163Z</time>
      </trkpt>
      <trkpt lat="51.980524" lon="8.845317">
        <ele>122.572599</ele>
        <time>2025-11-05T20:28:15.130Z</time>
      </trkpt>
      <trkpt lat="51.980118" lon="8.844867">
        <ele>120.644606</ele>
        <time>2025-11-05T20:28:23.049Z</time>
      </trkpt>
      <trkpt lat="51.980019" lon="8.844825">
        <ele>120.243294</ele>
        <time>2025-11-05T20:28:24.723Z</time>
      </trkpt>
      <trkpt lat="51.979840" lon="8.844832">
        <ele>119.541057</ele>
        <time>2025-11-05T20:28:27.586Z</time>
      </trkpt>
      <trkpt lat="51.979598" lon="8.845008">
        <ele>118.501064</ele>
        <time>2025-11-05T20:28:31.879Z</time>
      </trkpt>
      <trkpt lat="51.979525" lon="8.845119">
        <ele>118.108800</ele>
        <time>2025-11-05T20:28:33.502Z</time>
      </trkpt>
      <trkpt lat="51.979248" lon="8.845606">
        <ele>116.944664</ele>
        <time>2025-11-05T20:28:40.290Z</time>
      </trkpt>
      <trkpt lat="51.978997" lon="8.846160">
        <ele>116.099313</ele>
        <time>2025-11-05T20:28:47.526Z</time>
      </trkpt>
      <trkpt lat="51.978906" lon="8.846309">
        <ele>115.841394</ele>
        <time>2025-11-05T20:28:49.789Z</time>
      </trkpt>
      <trkpt lat="51.978747" lon="8.846422">
        <ele>115.495023</ele>
        <time>2025-11-05T20:28:52.908Z</time>
      </trkpt>
      <trkpt lat="51.978259" lon="8.846585">
        <ele>114.500771</ele>
        <time>2025-11-05T20:29:01.920Z</time>
      </trkpt>
      <trkpt lat="51.978029" lon="8.846600">
        <ele>114.041413</ele>
        <time>2025-11-05T20:29:06.036Z</time>
      </trkpt>
      <trkpt lat="51.977916" lon="8.846571">
        <ele>113.813109</ele>
        <time>2025-11-05T20:29:08.099Z</time>
      </trkpt>
      <trkpt lat="51.977792" lon="8.846490">
        <ele>113.857993</ele>
        <time>2025-11-05T20:29:10.558Z</time>
      </trkpt>
      <trkpt lat="51.977389" lon="8.846112">
        <ele>114.034628</ele>
        <time>2025-11-05T20:29:19.947Z</time>
      </trkpt>
      <trkpt lat="51.977202" lon="8.845926">
        <ele>114.117858</ele>
        <time>2025-11-05T20:29:24.700Z</time>
      </trkpt>
      <trkpt lat="51.977101" lon="8.845815">
        <ele>114.164146</ele>
        <time>2025-11-05T20:29:27.377Z</time>
      </trkpt>
      <trkpt lat="51.977087" lon="8.845798">
        <ele>114.170781</ele>
        <time>2025-11-05T20:29:27.762Z</time>
      </trkpt>
      <trkpt lat="51.976703" lon="8.845340">
        <ele>114.351617</ele>
        <time>2025-11-05T20:29:38.381Z</time>
      </trkpt>
      <trkpt lat="51.976432" lon="8.845101">
        <ele>114.468661</ele>
        <time>2025-11-05T20:29:45.411Z</time>
      </trkpt>
      <trkpt lat="51.975674" lon="8.844532">
        <ele>116.555468</ele>
        <time>2025-11-05T20:30:05.191Z</time>
      </trkpt>
      <trkpt lat="51.975625" lon="8.844481">
        <ele>116.710184</ele>
        <time>2025-11-05T20:30:06.596Z</time>
      </trkpt>
      <trkpt lat="51.974966" lon="8.843708">
        <ele>118.871264</ele>
        <time>2025-11-05T20:30:26.337Z</time>
      </trkpt>
      <trkpt lat="51.974929" lon="8.843662">
        <ele>118.995140</ele>
        <time>2025-11-05T20:30:27.510Z</time>
      </trkpt>
      <trkpt lat="51.973873" lon="8.842474">
        <ele>122.519019</ele>
        <time>2025-11-05T20:30:59.135Z</time>
      </trkpt>
      <trkpt lat="51.973716" lon="8.842342">
        <ele>123.005280</ele>
        <time>2025-11-05T20:31:03.303Z</time>
      </trkpt>
      <trkpt lat="51.972976" lon="8.841979">
        <ele>124.652471</ele>
        <time>2025-11-05T20:31:21.185Z</time>
      </trkpt>
      <trkpt lat="51.972777" lon="8.841837">
        <ele>124.936737</ele>
        <time>2025-11-05T20:31:26.102Z</time>
      </trkpt>
      <trkpt lat="51.972437" lon="8.841488">
        <ele>125.462792</ele>
        <time>2025-11-05T20:31:35.119Z</time>
      </trkpt>
      <trkpt lat="51.971617" lon="8.840310">
        <ele>126.991454</ele>
        <time>2025-11-05T20:31:59.941Z</time>
      </trkpt>
      <trkpt lat="51.970961" lon="8.839259">
        <ele>128.556267</ele>
        <time>2025-11-05T20:32:21.289Z</time>
      </trkpt>
      <trkpt lat="51.970306" lon="8.838209">
        <ele>130.164242</ele>
        <time>2025-11-05T20:32:42.822Z</time>
      </trkpt>
      <trkpt lat="51.969394" lon="8.836483">
        <ele>132.759146</ele>
        <time>2025-11-05T20:33:15.411Z</time>
      </trkpt>
      <trkpt lat="51.968924" lon="8.835679">
        <ele>133.752799</ele>
        <time>2025-11-05T20:33:31.202Z</time>
      </trkpt>
      <trkpt lat="51.968462" lon="8.834830">
        <ele>134.717346</ele>
        <time>2025-11-05T20:33:47.116Z</time>
      </trkpt>
      <trkpt lat="51.968232" lon="8.834027">
        <ele>135.467332</ele>
        <time>2025-11-05T20:33:59.407Z</time>
      </trkpt>
      <trkpt lat="51.968142" lon="8.833713">
        <ele>135.721946</ele>
        <time>2025-11-05T20:34:04.199Z</time>
      </trkpt>
      <trkpt lat="51.968096" lon="8.833576">
        <ele>135.836656</ele>
        <time>2025-11-05T20:34:06.373Z</time>
      </trkpt>
      <trkpt lat="51.968050" lon="8.833455">
        <ele>135.941189</ele>
        <time>2025-11-05T20:34:08.350Z</time>
      </trkpt>
      <trkpt lat="51.967974" lon="8.833291">
        <ele>136.092064</ele>
        <time>2025-11-05T20:34:11.194Z</time>
      </trkpt>
      <trkpt lat="51.967785" lon="8.832925">
        <ele>136.443170</ele>
        <time>2025-11-05T20:34:17.848Z</time>
      </trkpt>
      <trkpt lat="51.966989" lon="8.831387">
        <ele>137.883198</ele>
        <time>2025-11-05T20:34:46.128Z</time>
      </trkpt>
      <trkpt lat="51.965912" lon="8.829372">
        <ele>139.449764</ele>
        <time>2025-11-05T20:35:23.305Z</time>
      </trkpt>
      <trkpt lat="51.965626" lon="8.828920">
        <ele>139.297594</ele>
        <time>2025-11-05T20:35:31.823Z</time>
      </trkpt>
      <trkpt lat="51.965264" lon="8.828458">
        <ele>139.122048</ele>
        <time>2025-11-05T20:35:41.208Z</time>
      </trkpt>
      <trkpt lat="51.963251" lon="8.826368">
        <ele>137.280823</ele>
        <time>2025-11-05T20:36:27.111Z</time>
      </trkpt>
      <trkpt lat="51.962865" lon="8.825867">
        <ele>136.740388</ele>
        <time>2025-11-05T20:36:36.962Z</time>
      </trkpt>
      <trkpt lat="51.962306" lon="8.825037">
        <ele>135.835365</ele>
        <time>2025-11-05T20:36:52.483Z</time>
      </trkpt>
      <trkpt lat="51.962159" lon="8.824819">
        <ele>135.597502</ele>
        <time>2025-11-05T20:36:56.435Z</time>
      </trkpt>
      <trkpt lat="51.961551" lon="8.824067">
        <ele>134.054400</ele>
        <time>2025-11-05T20:37:09.993Z</time>
      </trkpt>
      <trkpt lat="51.960331" lon="8.822814">
        <ele>127.592048</ele>
        <time>2025-11-05T20:37:32.009Z</time>
      </trkpt>
      <trkpt lat="51.960262" lon="8.822748">
        <ele>127.233551</ele>
        <time>2025-11-05T20:37:33.171Z</time>
      </trkpt>
      <trkpt lat="51.960197" lon="8.822681">
        <ele>126.888887</ele>
        <time>2025-11-05T20:37:34.297Z</time>
      </trkpt>
      <trkpt lat="51.960133" lon="8.822776">
        <ele>126.422882</ele>
        <time>2025-11-05T20:37:35.550Z</time>
      </trkpt>
      <trkpt lat="51.959934" lon="8.822568">
        <ele>125.135978</ele>
        <time>2025-11-05T20:37:38.996Z</time>
      </trkpt>
      <trkpt lat="51.959480" lon="8.822082">
        <ele>122.179039</ele>
        <time>2025-11-05T20:37:46.916Z</time>
      </trkpt>
      <trkpt lat="51.958993" lon="8.821514">
        <ele>118.918442</ele>
        <time>2025-11-05T20:37:55.769Z</time>
      </trkpt>
      <trkpt lat="51.958297" lon="8.820167">
        <ele>115.265913</ele>
        <time>2025-11-05T20:38:12.756Z</time>
      </trkpt>
      <trkpt lat="51.958027" lon="8.819688">
        <ele>114.290681</ele>
        <time>2025-11-05T20:38:19.750Z</time>
      </trkpt>
      <trkpt lat="51.957897" lon="8.819524">
        <ele>113.889257</ele>
        <time>2025-11-05T20:38:22.748Z</time>
      </trkpt>
      <trkpt lat="51.957785" lon="8.819328">
        <ele>113.487695</ele>
        <time>2025-11-05T20:38:25.836Z</time>
      </trkpt>
      <trkpt lat="51.957825" lon="8.819252">
        <ele>113.337545</ele>
        <time>2025-11-05T20:38:27.005Z</time>
      </trkpt>
      <trkpt lat="51.957730" lon="8.819106">
        <ele>113.018569</ele>
        <time>2025-11-05T20:38:29.548Z</time>
      </trkpt>
      <trkpt lat="51.956953" lon="8.817922">
        <ele>113.528701</ele>
        <time>2025-11-05T20:38:52.540Z</time>
      </trkpt>
      <trkpt lat="51.956772" lon="8.817650">
        <ele>113.747510</ele>
        <time>2025-11-05T20:38:58.156Z</time>
      </trkpt>
      <trkpt lat="51.956468" lon="8.817162">
        <ele>114.126792</ele>
        <time>2025-11-05T20:39:08.123Z</time>
      </trkpt>
      <trkpt lat="51.955413" lon="8.815512">
        <ele>116.429736</ele>
        <time>2025-11-05T20:39:42.694Z</time>
      </trkpt>
      <trkpt lat="51.955375" lon="8.815450">
        <ele>116.519909</ele>
        <time>2025-11-05T20:39:43.899Z</time>
      </trkpt>
      <trkpt lat="51.955352" lon="8.815409">
        <ele>116.577082</ele>
        <time>2025-11-05T20:39:44.669Z</time>
      </trkpt>
      <trkpt lat="51.955216" lon="8.815211">
        <ele>116.882827</ele>
        <time>2025-11-05T20:39:48.776Z</time>
      </trkpt>
      <trkpt lat="51.955071" lon="8.815010">
        <ele>117.201941</ele>
        <time>2025-11-05T20:39:53.021Z</time>
      </trkpt>
      <trkpt lat="51.954950" lon="8.815180">
        <ele>117.314010</ele>
        <time>2025-11-05T20:39:56.502Z</time>
      </trkpt>
      <trkpt lat="51.954915" lon="8.815107">
        <ele>117.319519</ele>
        <time>2025-11-05T20:39:57.765Z</time>
      </trkpt>
      <trkpt lat="51.955025" lon="8.814939">
        <ele>117.334119</ele>
        <time>2025-11-05T20:40:00.981Z</time>
      </trkpt>
      <trkpt lat="51.955233" lon="8.814401">
        <ele>117.371948</ele>
        <time>2025-11-05T20:40:08.997Z</time>
      </trkpt>
      <trkpt lat="51.955275" lon="8.814235">
        <ele>117.382636</ele>
        <time>2025-11-05T20:40:11.209Z</time>
      </trkpt>
      <trkpt lat="51.955309" lon="8.814099">
        <ele>117.391378</ele>
        <time>2025-11-05T20:40:13.041Z</time>
      </trkpt>
      <trkpt lat="51.955327" lon="8.813187">
        <ele>117.445727</ele>
        <time>2025-11-05T20:40:24.743Z</time>
      </trkpt>
      <trkpt lat="51.955305" lon="8.813051">
        <ele>117.454102</ele>
        <time>2025-11-05T20:40:26.588Z</time>
      </trkpt>
      <trkpt lat="51.955260" lon="8.812998">
        <ele>117.459476</ele>
        <time>2025-11-05T20:40:27.777Z</time>
      </trkpt>
      <trkpt lat="51.955257" lon="8.812861">
        <ele>117.467642</ele>
        <time>2025-11-05T20:40:29.586Z</time>
      </trkpt>
      <trkpt lat="51.955242" lon="8.812704">
        <ele>117.477105</ele>
        <time>2025-11-05T20:40:31.701Z</time>
      </trkpt>
      <trkpt lat="51.955288" lon="8.812623">
        <ele>117.532729</ele>
        <time>2025-11-05T20:40:33.150Z</time>
      </trkpt>
      <trkpt lat="51.955301" lon="8.812561">
        <ele>117.572307</ele>
        <time>2025-11-05T20:40:34.022Z</time>
      </trkpt>
      <trkpt lat="51.955270" lon="8.811729">
        <ele>118.076030</ele>
        <time>2025-11-05T20:40:45.317Z</time>
      </trkpt>
      <trkpt lat="51.955280" lon="8.811308">
        <ele>118.330644</ele>
        <time>2025-11-05T20:40:51.113Z</time>
      </trkpt>
      <trkpt lat="51.955191" lon="8.810644">
        <ele>118.741302</ele>
        <time>2025-11-05T20:41:00.616Z</time>
      </trkpt>
      <trkpt lat="51.954345" lon="8.807405">
        <ele>121.774672</ele>
        <time>2025-11-05T20:41:50.633Z</time>
      </trkpt>
      <trkpt lat="51.953580" lon="8.804582">
        <ele>124.043439</ele>
        <time>2025-11-05T20:42:33.657Z</time>
      </trkpt>
      <trkpt lat="51.953458" lon="8.804268">
        <ele>124.255335</ele>
        <time>2025-11-05T20:42:38.816Z</time>
      </trkpt>
      <trkpt lat="51.953080" lon="8.803476">
        <ele>124.796274</ele>
        <time>2025-11-05T20:42:52.676Z</time>
      </trkpt>
      <trkpt lat="51.951315" lon="8.799843">
        <ele>127.226566</ele>
        <time>2025-11-05T20:43:56.101Z</time>
      </trkpt>
      <trkpt lat="51.950670" lon="8.798517">
        <ele>128.602064</ele>
        <time>2025-11-05T20:44:19.784Z</time>
      </trkpt>
      <trkpt lat="51.950474" lon="8.797916">
        <ele>129.155737</ele>
        <time>2025-11-05T20:44:29.423Z</time>
      </trkpt>
      <trkpt lat="51.950002" lon="8.795534">
        <ele>131.677500</ele>
        <time>2025-11-05T20:45:05.093Z</time>
      </trkpt>
      <trkpt lat="51.949686" lon="8.793960">
        <ele>133.373904</ele>
        <time>2025-11-05T20:45:28.712Z</time>
      </trkpt>
      <trkpt lat="51.949553" lon="8.793425">
        <ele>133.948799</ele>
        <time>2025-11-05T20:45:36.949Z</time>
      </trkpt>
      <trkpt lat="51.949392" lon="8.792795">
        <ele>134.628463</ele>
        <time>2025-11-05T20:45:46.670Z</time>
      </trkpt>
      <trkpt lat="51.949360" lon="8.792679">
        <ele>134.755116</ele>
        <time>2025-11-05T20:45:48.479Z</time>
      </trkpt>
      <trkpt lat="51.949242" lon="8.792266">
        <ele>135.208770</ele>
        <time>2025-11-05T20:45:54.947Z</time>
      </trkpt>
      <trkpt lat="51.948895" lon="8.790940">
        <ele>136.179315</ele>
        <time>2025-11-05T20:46:15.194Z</time>
      </trkpt>
      <trkpt lat="51.948790" lon="8.790406">
        <ele>136.511605</ele>
        <time>2025-11-05T20:46:22.955Z</time>
      </trkpt>
      <trkpt lat="51.948721" lon="8.789860">
        <ele>136.842025</ele>
        <time>2025-11-05T20:46:30.613Z</time>
      </trkpt>
      <trkpt lat="51.948572" lon="8.788393">
        <ele>137.280398</ele>
        <time>2025-11-05T20:46:50.601Z</time>
      </trkpt>
      <trkpt lat="51.948515" lon="8.788049">
        <ele>137.303343</ele>
        <time>2025-11-05T20:46:55.264Z</time>
      </trkpt>
      <trkpt lat="51.948409" lon="8.787651">
        <ele>137.331270</ele>
        <time>2025-11-05T20:47:00.902Z</time>
      </trkpt>
      <trkpt lat="51.947922" lon="8.786379">
        <ele>137.410811</ele>
        <time>2025-11-05T20:47:20.103Z</time>
      </trkpt>
      <trkpt lat="51.947376" lon="8.785083">
        <ele>137.383970</ele>
        <time>2025-11-05T20:47:40.392Z</time>
      </trkpt>
      <trkpt lat="51.946821" lon="8.783895">
        <ele>137.518111</ele>
        <time>2025-11-05T20:47:59.692Z</time>
      </trkpt>
      <trkpt lat="51.946763" lon="8.783747">
        <ele>137.595120</ele>
        <time>2025-11-05T20:48:02.075Z</time>
      </trkpt>
      <trkpt lat="51.946523" lon="8.782888">
        <ele>138.009244</ele>
        <time>2025-11-05T20:48:14.920Z</time>
      </trkpt>
      <trkpt lat="51.946370" lon="8.782350">
        <ele>138.269411</ele>
        <time>2025-11-05T20:48:22.942Z</time>
      </trkpt>
      <trkpt lat="51.946276" lon="8.782151">
        <ele>138.379500</ele>
        <time>2025-11-05T20:48:26.349Z</time>
      </trkpt>
      <trkpt lat="51.946239" lon="8.782148">
        <ele>138.405890</ele>
        <time>2025-11-05T20:48:27.200Z</time>
      </trkpt>
      <trkpt lat="51.946180" lon="8.782055">
        <ele>138.464492</ele>
        <time>2025-11-05T20:48:29.031Z</time>
      </trkpt>
      <trkpt lat="51.946118" lon="8.781959">
        <ele>138.525546</ele>
        <time>2025-11-05T20:48:30.993Z</time>
      </trkpt>
      <trkpt lat="51.946104" lon="8.781892">
        <ele>138.556611</ele>
        <time>2025-11-05T20:48:31.988Z</time>
      </trkpt>
      <trkpt lat="51.945839" lon="8.781532">
        <ele>138.960477</ele>
        <time>2025-11-05T20:48:40.020Z</time>
      </trkpt>
      <trkpt lat="51.945544" lon="8.781120">
        <ele>139.516068</ele>
        <time>2025-11-05T20:48:49.028Z</time>
      </trkpt>
      <trkpt lat="51.945436" lon="8.780966">
        <ele>139.721300</ele>
        <time>2025-11-05T20:48:52.332Z</time>
      </trkpt>
      <trkpt lat="51.945258" lon="8.780792">
        <ele>140.017920</ele>
        <time>2025-11-05T20:48:57.053Z</time>
      </trkpt>
      <trkpt lat="51.945223" lon="8.780759">
        <ele>140.075700</ele>
        <time>2025-11-05T20:48:57.987Z</time>
      </trkpt>
      <trkpt lat="51.944735" lon="8.780296">
        <ele>140.882603</ele>
        <time>2025-11-05T20:49:11.003Z</time>
      </trkpt>
      <trkpt lat="51.944631" lon="8.780198">
        <ele>141.054268</ele>
        <time>2025-11-05T20:49:13.794Z</time>
      </trkpt>
      <trkpt lat="51.943118" lon="8.778699">
        <ele>142.841339</ele>
        <time>2025-11-05T20:49:53.696Z</time>
      </trkpt>
      <trkpt lat="51.942640" lon="8.778220">
        <ele>143.763424</ele>
        <time>2025-11-05T20:50:05.870Z</time>
      </trkpt>
      <trkpt lat="51.942475" lon="8.778094">
        <ele>144.101600</ele>
        <time>2025-11-05T20:50:09.934Z</time>
      </trkpt>
      <trkpt lat="51.942429" lon="8.778067">
        <ele>144.192313</ele>
        <time>2025-11-05T20:50:11.033Z</time>
      </trkpt>
      <trkpt lat="51.942103" lon="8.777919">
        <ele>144.820062</ele>
        <time>2025-11-05T20:50:18.716Z</time>
      </trkpt>
      <trkpt lat="51.941643" lon="8.777876">
        <ele>145.674483</ele>
        <time>2025-11-05T20:50:29.560Z</time>
      </trkpt>
      <trkpt lat="51.940359" lon="8.778099">
        <ele>149.884248</ele>
        <time>2025-11-05T20:51:02.197Z</time>
      </trkpt>
      <trkpt lat="51.940333" lon="8.778108">
        <ele>149.984444</ele>
        <time>2025-11-05T20:51:02.869Z</time>
      </trkpt>
      <trkpt lat="51.939773" lon="8.778223">
        <ele>152.111832</ele>
        <time>2025-11-05T20:51:17.200Z</time>
      </trkpt>
      <trkpt lat="51.939568" lon="8.778262">
        <ele>152.889736</ele>
        <time>2025-11-05T20:51:22.374Z</time>
      </trkpt>
      <trkpt lat="51.939329" lon="8.778305">
        <ele>153.729875</ele>
        <time>2025-11-05T20:51:28.317Z</time>
      </trkpt>
      <trkpt lat="51.939081" lon="8.778340">
        <ele>154.580229</ele>
        <time>2025-11-05T20:51:34.416Z</time>
      </trkpt>
      <trkpt lat="51.938341" lon="8.778496">
        <ele>157.129286</ele>
        <time>2025-11-05T20:51:52.786Z</time>
      </trkpt>
      <trkpt lat="51.937380" lon="8.778664">
        <ele>160.558697</ele>
        <time>2025-11-05T20:52:16.542Z</time>
      </trkpt>
      <trkpt lat="51.935485" lon="8.778985">
        <ele>168.075717</ele>
        <time>2025-11-05T20:53:04.656Z</time>
      </trkpt>
      <trkpt lat="51.933907" lon="8.779265">
        <ele>175.406514</ele>
        <time>2025-11-05T20:53:46.015Z</time>
      </trkpt>
      <trkpt lat="51.933580" lon="8.779328">
        <ele>177.196382</ele>
        <time>2025-11-05T20:53:55.438Z</time>
      </trkpt>
      <trkpt lat="51.933272" lon="8.779333">
        <ele>178.870565</ele>
        <time>2025-11-05T20:54:04.200Z</time>
      </trkpt>
      <trkpt lat="51.933153" lon="8.779281">
        <ele>179.540441</ele>
        <time>2025-11-05T20:54:07.699Z</time>
      </trkpt>
      <trkpt lat="51.933017" lon="8.779143">
        <ele>180.412410</ele>
        <time>2025-11-05T20:54:12.251Z</time>
      </trkpt>
      <trkpt lat="51.932920" lon="8.778980">
        <ele>181.171612</ele>
        <time>2025-11-05T20:54:16.208Z</time>
      </trkpt>
      <trkpt lat="51.932183" lon="8.777274">
        <ele>186.849822</ele>
        <time>2025-11-05T20:54:50.637Z</time>
      </trkpt>
      <trkpt lat="51.931997" lon="8.776920">
        <ele>187.936968</ele>
        <time>2025-11-05T20:54:57.738Z</time>
      </trkpt>
      <trkpt lat="51.931627" lon="8.776368">
        <ele>189.842823</ele>
        <time>2025-11-05T20:55:10.069Z</time>
      </trkpt>
      <trkpt lat="51.930914" lon="8.775552">
        <ele>191.606649</ele>
        <time>2025-11-05T20:55:30.220Z</time>
      </trkpt>
      <trkpt lat="51.930815" lon="8.775433">
        <ele>191.783635</ele>
        <time>2025-11-05T20:55:32.974Z</time>
      </trkpt>
      <trkpt lat="51.930574" lon="8.775093">
        <ele>192.242412</ele>
        <time>2025-11-05T20:55:40.085Z</time>
      </trkpt>
      <trkpt lat="51.930241" lon="8.774442">
        <ele>192.991502</ele>
        <time>2025-11-05T20:55:51.577Z</time>
      </trkpt>
      <trkpt lat="51.928854" lon="8.771037">
        <ele>199.626555</ele>
        <time>2025-11-05T20:56:50.894Z</time>
      </trkpt>
      <trkpt lat="51.927898" lon="8.768678">
        <ele>206.656767</ele>
        <time>2025-11-05T20:57:39.218Z</time>
      </trkpt>
      <trkpt lat="51.927690" lon="8.768218">
        <ele>207.652350</ele>
        <time>2025-11-05T20:57:48.012Z</time>
      </trkpt>
      <trkpt lat="51.927337" lon="8.767561">
        <ele>209.173268</ele>
        <time>2025-11-05T20:58:00.562Z</time>
      </trkpt>
      <trkpt lat="51.927052" lon="8.767203">
        <ele>210.193626</ele>
        <time>2025-11-05T20:58:08.384Z</time>
      </trkpt>
      <trkpt lat="51.926498" lon="8.766730">
        <ele>210.340929</ele>
        <time>2025-11-05T20:58:21.310Z</time>
      </trkpt>
      <trkpt lat="51.926303" lon="8.766609">
        <ele>210.324239</ele>
        <time>2025-11-05T20:58:25.544Z</time>
      </trkpt>
      <trkpt lat="51.926117" lon="8.766505">
        <ele>210.308512</ele>
        <time>2025-11-05T20:58:29.556Z</time>
      </trkpt>
      <trkpt lat="51.925073" lon="8.766074">
        <ele>210.026577</ele>
        <time>2025-11-05T20:58:52.239Z</time>
      </trkpt>
      <trkpt lat="51.924987" lon="8.766035">
        <ele>209.947323</ele>
        <time>2025-11-05T20:58:54.133Z</time>
      </trkpt>
      <trkpt lat="51.924428" lon="8.765643">
        <ele>209.406800</ele>
        <time>2025-11-05T20:59:06.345Z</time>
      </trkpt>
      <trkpt lat="51.924105" lon="8.765317">
        <ele>209.069140</ele>
        <time>2025-11-05T20:59:13.393Z</time>
      </trkpt>
      <trkpt lat="51.923825" lon="8.764972">
        <ele>208.757033</ele>
        <time>2025-11-05T20:59:19.872Z</time>
      </trkpt>
      <trkpt lat="51.923682" lon="8.764913">
        <ele>208.602167</ele>
        <time>2025-11-05T20:59:22.582Z</time>
      </trkpt>
      <trkpt lat="51.923671" lon="8.764855">
        <ele>208.528005</ele>
        <time>2025-11-05T20:59:23.249Z</time>
      </trkpt>
      <trkpt lat="51.923645" lon="8.764768">
        <ele>208.409850</ele>
        <time>2025-11-05T20:59:24.336Z</time>
      </trkpt>
      <trkpt lat="51.923563" lon="8.764660">
        <ele>208.200494</ele>
        <time>2025-11-05T20:59:26.278Z</time>
      </trkpt>
      <trkpt lat="51.923530" lon="8.764654">
        <ele>208.134686</ele>
        <time>2025-11-05T20:59:26.870Z</time>
      </trkpt>
      <trkpt lat="51.923480" lon="8.764647">
        <ele>208.035230</ele>
        <time>2025-11-05T20:59:27.822Z</time>
      </trkpt>
      <trkpt lat="51.923419" lon="8.764456">
        <ele>207.772350</ele>
        <time>2025-11-05T20:59:30.230Z</time>
      </trkpt>
      <trkpt lat="51.922640" lon="8.763318">
        <ele>205.694435</ele>
        <time>2025-11-05T20:59:48.595Z</time>
      </trkpt>
      <trkpt lat="51.922270" lon="8.762800">
        <ele>204.521155</ele>
        <time>2025-11-05T20:59:57.326Z</time>
      </trkpt>
      <trkpt lat="51.922176" lon="8.762723">
        <ele>204.192306</ele>
        <time>2025-11-05T20:59:59.090Z</time>
      </trkpt>
      <trkpt lat="51.922157" lon="8.762689">
        <ele>204.103949</ele>
        <time>2025-11-05T20:59:59.557Z</time>
      </trkpt>
      <trkpt lat="51.922124" lon="8.762630">
        <ele>203.950562</ele>
        <time>2025-11-05T21:00:00.352Z</time>
      </trkpt>
      <trkpt lat="51.922080" lon="8.762554">
        <ele>203.749820</ele>
        <time>2025-11-05T21:00:01.371Z</time>
      </trkpt>
      <trkpt lat="51.921914" lon="8.762765">
        <ele>203.091193</ele>
        <time>2025-11-05T21:00:04.665Z</time>
      </trkpt>
      <trkpt lat="51.921779" lon="8.762776">
        <ele>202.669118</ele>
        <time>2025-11-05T21:00:06.757Z</time>
      </trkpt>
      <trkpt lat="51.921430" lon="8.762806">
        <ele>201.577821</ele>
        <time>2025-11-05T21:00:12.198Z</time>
      </trkpt>
      <trkpt lat="51.921389" lon="8.762519">
        <ele>201.010483</ele>
        <time>2025-11-05T21:00:15.070Z</time>
      </trkpt>
      <trkpt lat="51.921270" lon="8.762284">
        <ele>200.424917</ele>
        <time>2025-11-05T21:00:18.098Z</time>
      </trkpt>
      <trkpt lat="51.921166" lon="8.762196">
        <ele>200.058612</ele>
        <time>2025-11-05T21:00:20.039Z</time>
      </trkpt>
      <trkpt lat="51.920993" lon="8.762159">
        <ele>199.513733</ele>
        <time>2025-11-05T21:00:22.903Z</time>
      </trkpt>
      <trkpt lat="51.920857" lon="8.762182">
        <ele>199.346771</ele>
        <time>2025-11-05T21:00:25.167Z</time>
      </trkpt>
      <trkpt lat="51.920799" lon="8.762192">
        <ele>199.289952</ele>
        <time>2025-11-05T21:00:26.126Z</time>
      </trkpt>
      <trkpt lat="51.918838" lon="8.762533">
        <ele>197.382852</ele>
        <time>2025-11-05T21:01:05.952Z</time>
      </trkpt>
      <trkpt lat="51.918629" lon="8.762491">
        <ele>197.186136</ele>
        <time>2025-11-05T21:01:10.353Z</time>
      </trkpt>
      <trkpt lat="51.918501" lon="8.762426">
        <ele>197.060847</ele>
        <time>2025-11-05T21:01:13.112Z</time>
      </trkpt>
      <trkpt lat="51.918154" lon="8.762107">
        <ele>196.688244</ele>
        <time>2025-11-05T21:01:21.092Z</time>
      </trkpt>
      <trkpt lat="51.917986" lon="8.761837">
        <ele>196.467285</ele>
        <time>2025-11-05T21:01:25.655Z</time>
      </trkpt>
      <trkpt lat="51.917771" lon="8.761368">
        <ele>196.130622</ele>
        <time>2025-11-05T21:01:32.404Z</time>
      </trkpt>
      <trkpt lat="51.917166" lon="8.760542">
        <ele>194.346120</ele>
        <time>2025-11-05T21:01:45.887Z</time>
      </trkpt>
      <trkpt lat="51.917011" lon="8.760340">
        <ele>193.857154</ele>
        <time>2025-11-05T21:01:49.214Z</time>
      </trkpt>
      <trkpt lat="51.916638" lon="8.759854">
        <ele>192.680577</ele>
        <time>2025-11-05T21:01:57.220Z</time>
      </trkpt>
      <trkpt lat="51.916442" lon="8.759600">
        <ele>192.063628</ele>
        <time>2025-11-05T21:02:01.404Z</time>
      </trkpt>
      <trkpt lat="51.916236" lon="8.759328">
        <ele>191.490128</ele>
        <time>2025-11-05T21:02:05.886Z</time>
      </trkpt>
      <trkpt lat="51.916190" lon="8.759269">
        <ele>191.403498</ele>
        <time>2025-11-05T21:02:06.877Z</time>
      </trkpt>
      <trkpt lat="51.915947" lon="8.758954">
        <ele>190.943977</ele>
        <time>2025-11-05T21:02:12.209Z</time>
      </trkpt>
      <trkpt lat="51.915898" lon="8.758890">
        <ele>190.851041</ele>
        <time>2025-11-05T21:02:13.310Z</time>
      </trkpt>
      <trkpt lat="51.915598" lon="8.758513">
        <ele>190.290429</ele>
        <time>2025-11-05T21:02:20.091Z</time>
      </trkpt>
      <trkpt lat="51.915583" lon="8.758495">
        <ele>190.262866</ele>
        <time>2025-11-05T21:02:20.435Z</time>
      </trkpt>
      <trkpt lat="51.915186" lon="8.757967">
        <ele>189.504455</ele>
        <time>2025-11-05T21:02:30.345Z</time>
      </trkpt>
      <trkpt lat="51.914816" lon="8.757487">
        <ele>188.846680</ele>
        <time>2025-11-05T21:02:39.950Z</time>
      </trkpt>
      <trkpt lat="51.914780" lon="8.757439">
        <ele>188.797300</ele>
        <time>2025-11-05T21:02:40.910Z</time>
      </trkpt>
      <trkpt lat="51.914260" lon="8.756766">
        <ele>188.092405</ele>
        <time>2025-11-05T21:02:54.469Z</time>
      </trkpt>
      <trkpt lat="51.913958" lon="8.756346">
        <ele>187.670878</ele>
        <time>2025-11-05T21:03:02.218Z</time>
      </trkpt>
      <trkpt lat="51.913794" lon="8.755971">
        <ele>187.370485</ele>
        <time>2025-11-05T21:03:07.336Z</time>
      </trkpt>
      <trkpt lat="51.913577" lon="8.755332">
        <ele>186.841219</ele>
        <time>2025-11-05T21:03:15.176Z</time>
      </trkpt>
      <trkpt lat="51.913471" lon="8.755001">
        <ele>186.514424</ele>
        <time>2025-11-05T21:03:19.191Z</time>
      </trkpt>
      <trkpt lat="51.913428" lon="8.754860">
        <ele>186.376598</ele>
        <time>2025-11-05T21:03:20.917Z</time>
      </trkpt>
      <trkpt lat="51.913319" lon="8.754521">
        <ele>186.041617</ele>
        <time>2025-11-05T21:03:25.208Z</time>
      </trkpt>
      <trkpt lat="51.913266" lon="8.754342">
        <ele>185.867634</ele>
        <time>2025-11-05T21:03:27.436Z</time>
      </trkpt>
      <trkpt lat="51.913111" lon="8.753841">
        <ele>185.376509</ele>
        <time>2025-11-05T21:03:33.742Z</time>
      </trkpt>
      <trkpt lat="51.913068" lon="8.753714">
        <ele>185.249563</ele>
        <time>2025-11-05T21:03:35.374Z</time>
      </trkpt>
      <trkpt lat="51.912840" lon="8.753009">
        <ele>184.552047</ele>
        <time>2025-11-05T21:03:44.778Z</time>
      </trkpt>
      <trkpt lat="51.912813" lon="8.752930">
        <ele>184.486082</ele>
        <time>2025-11-05T21:03:45.911Z</time>
      </trkpt>
      <trkpt lat="51.912676" lon="8.752490">
        <ele>184.336137</ele>
        <time>2025-11-05T21:03:52.182Z</time>
      </trkpt>
      <trkpt lat="51.912659" lon="8.752443">
        <ele>184.319562</ele>
        <time>2025-11-05T21:03:52.879Z</time>
      </trkpt>
      <trkpt lat="51.912633" lon="8.752365">
        <ele>184.292589</ele>
        <time>2025-11-05T21:03:54.025Z</time>
      </trkpt>
      <trkpt lat="51.912490" lon="8.751912">
        <ele>184.137777</ele>
        <time>2025-11-05T21:04:00.518Z</time>
      </trkpt>
      <trkpt lat="51.912467" lon="8.751835">
        <ele>184.111750</ele>
        <time>2025-11-05T21:04:01.602Z</time>
      </trkpt>
      <trkpt lat="51.912435" lon="8.751733">
        <ele>184.076936</ele>
        <time>2025-11-05T21:04:03.031Z</time>
      </trkpt>
      <trkpt lat="51.912299" lon="8.751315">
        <ele>183.933165</ele>
        <time>2025-11-05T21:04:08.895Z</time>
      </trkpt>
      <trkpt lat="51.912282" lon="8.751261">
        <ele>183.914721</ele>
        <time>2025-11-05T21:04:09.647Z</time>
      </trkpt>
      <trkpt lat="51.912226" lon="8.751073">
        <ele>183.851207</ele>
        <time>2025-11-05T21:04:12.216Z</time>
      </trkpt>
      <trkpt lat="51.911932" lon="8.750134">
        <ele>183.542977</ele>
        <time>2025-11-05T21:04:25.382Z</time>
      </trkpt>
      <trkpt lat="51.911792" lon="8.749681">
        <ele>183.413708</ele>
        <time>2025-11-05T21:04:31.767Z</time>
      </trkpt>
      <trkpt lat="51.911731" lon="8.749484">
        <ele>183.357470</ele>
        <time>2025-11-05T21:04:34.529Z</time>
      </trkpt>
      <trkpt lat="51.911636" lon="8.749191">
        <ele>183.273018</ele>
        <time>2025-11-05T21:04:38.684Z</time>
      </trkpt>
      <trkpt lat="51.911506" lon="8.748791">
        <ele>183.157667</ele>
        <time>2025-11-05T21:04:44.362Z</time>
      </trkpt>
      <trkpt lat="51.911472" lon="8.748684">
        <ele>183.126958</ele>
        <time>2025-11-05T21:04:45.869Z</time>
      </trkpt>
      <trkpt lat="51.911432" lon="8.748563">
        <ele>183.091933</ele>
        <time>2025-11-05T21:04:47.602Z</time>
      </trkpt>
      <trkpt lat="51.911178" lon="8.747766">
        <ele>182.863055</ele>
        <time>2025-11-05T21:04:58.794Z</time>
      </trkpt>
      <trkpt lat="51.911047" lon="8.747332">
        <ele>182.732338</ele>
        <time>2025-11-05T21:05:05.132Z</time>
      </trkpt>
      <trkpt lat="51.910677" lon="8.746218">
        <ele>182.389897</ele>
        <time>2025-11-05T21:05:21.723Z</time>
      </trkpt>
      <trkpt lat="51.910564" lon="8.745850">
        <ele>182.278636</ele>
        <time>2025-11-05T21:05:27.086Z</time>
      </trkpt>
      <trkpt lat="51.910255" lon="8.744845">
        <ele>181.858927</ele>
        <time>2025-11-05T21:05:41.664Z</time>
      </trkpt>
      <trkpt lat="51.910190" lon="8.744628">
        <ele>181.716699</ele>
        <time>2025-11-05T21:05:44.816Z</time>
      </trkpt>
      <trkpt lat="51.910157" lon="8.744519">
        <ele>181.645111</ele>
        <time>2025-11-05T21:05:46.404Z</time>
      </trkpt>
      <trkpt lat="51.910131" lon="8.744435">
        <ele>181.589700</ele>
        <time>2025-11-05T21:05:47.632Z</time>
      </trkpt>
      <trkpt lat="51.910022" lon="8.744077">
        <ele>181.354315</ele>
        <time>2025-11-05T21:05:52.757Z</time>
      </trkpt>
      <trkpt lat="51.909967" lon="8.743897">
        <ele>181.235881</ele>
        <time>2025-11-05T21:05:55.299Z</time>
      </trkpt>
      <trkpt lat="51.909835" lon="8.743458">
        <ele>180.947937</ele>
        <time>2025-11-05T21:06:01.391Z</time>
      </trkpt>
      <trkpt lat="51.909722" lon="8.743084">
        <ele>180.702398</ele>
        <time>2025-11-05T21:06:06.493Z</time>
      </trkpt>
      <trkpt lat="51.909664" lon="8.742895">
        <ele>180.577936</ele>
        <time>2025-11-05T21:06:09.063Z</time>
      </trkpt>
      <trkpt lat="51.909606" lon="8.742710">
        <ele>180.455582</ele>
        <time>2025-11-05T21:06:11.571Z</time>
      </trkpt>
      <trkpt lat="51.909432" lon="8.742127">
        <ele>179.690971</ele>
        <time>2025-11-05T21:06:19.322Z</time>
      </trkpt>
      <trkpt lat="51.909285" lon="8.741642">
        <ele>178.937111</ele>
        <time>2025-11-05T21:06:25.502Z</time>
      </trkpt>
      <trkpt lat="51.909001" lon="8.740683">
        <ele>177.453067</ele>
        <time>2025-11-05T21:06:37.028Z</time>
      </trkpt>
      <trkpt lat="51.908981" lon="8.740609">
        <ele>177.340358</ele>
        <time>2025-11-05T21:06:37.896Z</time>
      </trkpt>
      <trkpt lat="51.908684" lon="8.739344">
        <ele>175.667624</ele>
        <time>2025-11-05T21:06:52.605Z</time>
      </trkpt>
      <trkpt lat="51.908502" lon="8.738596">
        <ele>174.835634</ele>
        <time>2025-11-05T21:07:01.537Z</time>
      </trkpt>
      <trkpt lat="51.908422" lon="8.738278">
        <ele>174.480287</ele>
        <time>2025-11-05T21:07:05.546Z</time>
      </trkpt>
      <trkpt lat="51.908355" lon="8.738137">
        <ele>174.296130</ele>
        <time>2025-11-05T21:07:07.670Z</time>
      </trkpt>
      <trkpt lat="51.908376" lon="8.738026">
        <ele>174.175997</ele>
        <time>2025-11-05T21:07:09.074Z</time>
      </trkpt>
      <trkpt lat="51.908358" lon="8.737973">
        <ele>174.113395</ele>
        <time>2025-11-05T21:07:09.793Z</time>
      </trkpt>
      <trkpt lat="51.908306" lon="8.737941">
        <ele>174.020105</ele>
        <time>2025-11-05T21:07:10.854Z</time>
      </trkpt>
      <trkpt lat="51.908298" lon="8.737808">
        <ele>173.881835</ele>
        <time>2025-11-05T21:07:12.585Z</time>
      </trkpt>
      <trkpt lat="51.908183" lon="8.737352">
        <ele>173.372098</ele>
        <time>2025-11-05T21:07:19.038Z</time>
      </trkpt>
      <trkpt lat="51.908098" lon="8.737033">
        <ele>173.138758</ele>
        <time>2025-11-05T21:07:23.535Z</time>
      </trkpt>
      <trkpt lat="51.908033" lon="8.736687">
        <ele>172.948176</ele>
        <time>2025-11-05T21:07:29.603Z</time>
      </trkpt>
      <trkpt lat="51.908003" lon="8.736527">
        <ele>172.860059</ele>
        <time>2025-11-05T21:07:32.381Z</time>
      </trkpt>
      <trkpt lat="51.907967" lon="8.736335">
        <ele>172.754320</ele>
        <time>2025-11-05T21:07:35.735Z</time>
      </trkpt>
      <trkpt lat="51.907943" lon="8.736204">
        <ele>172.682313</ele>
        <time>2025-11-05T21:07:38.003Z</time>
      </trkpt>
      <trkpt lat="51.907922" lon="8.736083">
        <ele>172.616080</ele>
        <time>2025-11-05T21:07:40.086Z</time>
      </trkpt>
      <trkpt lat="51.907887" lon="8.735902">
        <ele>172.516131</ele>
        <time>2025-11-05T21:07:43.228Z</time>
      </trkpt>
      <trkpt lat="51.907785" lon="8.735444">
        <ele>172.259554</ele>
        <time>2025-11-05T21:07:49.378Z</time>
      </trkpt>
      <trkpt lat="51.907752" lon="8.735134">
        <ele>172.093792</ele>
        <time>2025-11-05T21:07:53.335Z</time>
      </trkpt>
      <trkpt lat="51.907573" lon="8.734088">
        <ele>171.222988</ele>
        <time>2025-11-05T21:08:06.655Z</time>
      </trkpt>
      <trkpt lat="51.907541" lon="8.733911">
        <ele>170.988584</ele>
        <time>2025-11-05T21:08:08.834Z</time>
      </trkpt>
      <trkpt lat="51.907504" lon="8.733699">
        <ele>170.708587</ele>
        <time>2025-11-05T21:08:11.424Z</time>
      </trkpt>
      <trkpt lat="51.907497" lon="8.733661">
        <ele>170.658187</ele>
        <time>2025-11-05T21:08:11.885Z</time>
      </trkpt>
      <trkpt lat="51.907391" lon="8.733134">
        <ele>169.953741</ele>
        <time>2025-11-05T21:08:18.216Z</time>
      </trkpt>
      <trkpt lat="51.907333" lon="8.732911">
        <ele>169.646181</ele>
        <time>2025-11-05T21:08:20.902Z</time>
      </trkpt>
      <trkpt lat="51.907488" lon="8.732685">
        <ele>169.216712</ele>
        <time>2025-11-05T21:08:24.429Z</time>
      </trkpt>
      <trkpt lat="51.907610" lon="8.732328">
        <ele>168.698056</ele>
        <time>2025-11-05T21:08:28.595Z</time>
      </trkpt>
      <trkpt lat="51.907638" lon="8.732155">
        <ele>168.470756</ele>
        <time>2025-11-05T21:08:30.426Z</time>
      </trkpt>
      <trkpt lat="51.907677" lon="8.731415">
        <ele>167.668197</ele>
        <time>2025-11-05T21:08:38.107Z</time>
      </trkpt>
      <trkpt lat="51.907716" lon="8.730658">
        <ele>166.974868</ele>
        <time>2025-11-05T21:08:46.310Z</time>
      </trkpt>
      <trkpt lat="51.907720" lon="8.730590">
        <ele>166.912522</ele>
        <time>2025-11-05T21:08:47.051Z</time>
      </trkpt>
      <trkpt lat="51.907761" lon="8.729921">
        <ele>166.298912</ele>
        <time>2025-11-05T21:08:54.917Z</time>
      </trkpt>
      <trkpt lat="51.907491" lon="8.729909">
        <ele>165.899312</ele>
        <time>2025-11-05T21:09:00.151Z</time>
      </trkpt>
      <trkpt lat="51.907023" lon="8.728518">
        <ele>165.018723</ele>
        <time>2025-11-05T21:09:20.778Z</time>
      </trkpt>
      <trkpt lat="51.906825" lon="8.728005">
        <ele>164.808106</ele>
        <time>2025-11-05T21:09:28.307Z</time>
      </trkpt>
      <trkpt lat="51.906777" lon="8.727880">
        <ele>164.756860</ele>
        <time>2025-11-05T21:09:30.096Z</time>
      </trkpt>
      <trkpt lat="51.906171" lon="8.726273">
        <ele>163.770554</ele>
        <time>2025-11-05T21:09:52.869Z</time>
      </trkpt>
      <trkpt lat="51.905727" lon="8.725099">
        <ele>162.660320</ele>
        <time>2025-11-05T21:10:08.748Z</time>
      </trkpt>
      <trkpt lat="51.905628" lon="8.724822">
        <ele>162.402218</ele>
        <time>2025-11-05T21:10:12.362Z</time>
      </trkpt>
      <trkpt lat="51.904903" lon="8.722791">
        <ele>160.384972</ele>
        <time>2025-11-05T21:10:38.626Z</time>
      </trkpt>
      <trkpt lat="51.904903" lon="8.722790">
        <ele>160.384098</ele>
        <time>2025-11-05T21:10:38.639Z</time>
      </trkpt>
      <trkpt lat="51.904626" lon="8.721854">
        <ele>159.476747</ele>
        <time>2025-11-05T21:10:50.612Z</time>
      </trkpt>
      <trkpt lat="51.904041" lon="8.720725">
        <ele>159.194697</ele>
        <time>2025-11-05T21:11:08.800Z</time>
      </trkpt>
      <trkpt lat="51.903584" lon="8.719883">
        <ele>158.993938</ele>
        <time>2025-11-05T21:11:23.448Z</time>
      </trkpt>
      <trkpt lat="51.903461" lon="8.719637">
        <ele>158.937253</ele>
        <time>2025-11-05T21:11:27.713Z</time>
      </trkpt>
      <trkpt lat="51.903426" lon="8.719476">
        <ele>158.914002</ele>
        <time>2025-11-05T21:11:30.039Z</time>
      </trkpt>
      <trkpt lat="51.903424" lon="8.719351">
        <ele>158.898061</ele>
        <time>2025-11-05T21:11:31.727Z</time>
      </trkpt>
      <trkpt lat="51.903440" lon="8.719209">
        <ele>158.879659</ele>
        <time>2025-11-05T21:11:33.692Z</time>
      </trkpt>
      <trkpt lat="51.903476" lon="8.719115">
        <ele>158.865554</ele>
        <time>2025-11-05T21:11:35.196Z</time>
      </trkpt>
      <trkpt lat="51.903804" lon="8.718603">
        <ele>158.771460</ele>
        <time>2025-11-05T21:11:44.980Z</time>
      </trkpt>
      <trkpt lat="51.903953" lon="8.718335">
        <ele>158.725469</ele>
        <time>2025-11-05T21:11:49.626Z</time>
      </trkpt>
      <trkpt lat="51.904161" lon="8.718084">
        <ele>158.671888</ele>
        <time>2025-11-05T21:11:54.985Z</time>
      </trkpt>
      <trkpt lat="51.904304" lon="8.717937">
        <ele>158.636898</ele>
        <time>2025-11-05T21:11:58.435Z</time>
      </trkpt>
      <trkpt lat="51.904224" lon="8.717750">
        <ele>158.607889</ele>
        <time>2025-11-05T21:12:01.265Z</time>
      </trkpt>
      <trkpt lat="51.904198" lon="8.717611">
        <ele>158.589372</ele>
        <time>2025-11-05T21:12:03.046Z</time>
      </trkpt>
      <trkpt lat="51.904203" lon="8.717338">
        <ele>158.521739</ele>
        <time>2025-11-05T21:12:06.346Z</time>
      </trkpt>
      <trkpt lat="51.904382" lon="8.716802">
        <ele>158.010468</ele>
        <time>2025-11-05T21:12:13.438Z</time>
      </trkpt>
      <trkpt lat="51.904406" lon="8.716492">
        <ele>157.748383</ele>
        <time>2025-11-05T21:12:16.943Z</time>
      </trkpt>
      <trkpt lat="51.904354" lon="8.716368">
        <ele>157.622611</ele>
        <time>2025-11-05T21:12:18.609Z</time>
      </trkpt>
      <trkpt lat="51.904172" lon="8.716167">
        <ele>157.323174</ele>
        <time>2025-11-05T21:12:22.584Z</time>
      </trkpt>
      <trkpt lat="51.903978" lon="8.715945">
        <ele>157.000289</ele>
        <time>2025-11-05T21:12:26.828Z</time>
      </trkpt>
      <trkpt lat="51.903210" lon="8.715103">
        <ele>155.957311</ele>
        <time>2025-11-05T21:12:43.958Z</time>
      </trkpt>
      <trkpt lat="51.903037" lon="8.714913">
        <ele>155.837974</ele>
        <time>2025-11-05T21:12:48.024Z</time>
      </trkpt>
      <trkpt lat="51.902871" lon="8.714727">
        <ele>155.722731</ele>
        <time>2025-11-05T21:12:52.059Z</time>
      </trkpt>
      <trkpt lat="51.902625" lon="8.714454">
        <ele>155.552476</ele>
        <time>2025-11-05T21:12:58.142Z</time>
      </trkpt>
      <trkpt lat="51.901782" lon="8.713528">
        <ele>155.020109</ele>
        <time>2025-11-05T21:13:19.323Z</time>
      </trkpt>
      <trkpt lat="51.901654" lon="8.713385">
        <ele>154.968682</ele>
        <time>2025-11-05T21:13:22.533Z</time>
      </trkpt>
      <trkpt lat="51.901452" lon="8.713134">
        <ele>154.884482</ele>
        <time>2025-11-05T21:13:27.761Z</time>
      </trkpt>
      <trkpt lat="51.901291" lon="8.712983">
        <ele>154.822949</ele>
        <time>2025-11-05T21:13:31.547Z</time>
      </trkpt>
      <trkpt lat="51.901283" lon="8.712975">
        <ele>154.819839</ele>
        <time>2025-11-05T21:13:31.732Z</time>
      </trkpt>
      <trkpt lat="51.900715" lon="8.712385">
        <ele>154.596667</ele>
        <time>2025-11-05T21:13:46.996Z</time>
      </trkpt>
      <trkpt lat="51.900414" lon="8.712229">
        <ele>154.492924</ele>
        <time>2025-11-05T21:13:54.156Z</time>
      </trkpt>
      <trkpt lat="51.899059" lon="8.711728">
        <ele>154.550670</ele>
        <time>2025-11-05T21:14:26.343Z</time>
      </trkpt>
      <trkpt lat="51.898611" lon="8.711552">
        <ele>154.612064</ele>
        <time>2025-11-05T21:14:37.414Z</time>
      </trkpt>
      <trkpt lat="51.898141" lon="8.711279">
        <ele>155.021342</ele>
        <time>2025-11-05T21:14:49.600Z</time>
      </trkpt>
      <trkpt lat="51.897956" lon="8.711127">
        <ele>155.191371</ele>
        <time>2025-11-05T21:14:56.617Z</time>
      </trkpt>
      <trkpt lat="51.897773" lon="8.711063">
        <ele>155.344837</ele>
        <time>2025-11-05T21:15:02.988Z</time>
      </trkpt>
      <trkpt lat="51.897660" lon="8.711079">
        <ele>155.437820</ele>
        <time>2025-11-05T21:15:06.821Z</time>
      </trkpt>
      <trkpt lat="51.896522" lon="8.711163">
        <ele>155.741540</ele>
        <time>2025-11-05T21:15:34.517Z</time>
      </trkpt>
      <trkpt lat="51.896403" lon="8.711167">
        <ele>155.652616</ele>
        <time>2025-11-05T21:15:37.248Z</time>
      </trkpt>
      <trkpt lat="51.895421" lon="8.711185">
        <ele>154.918924</ele>
        <time>2025-11-05T21:15:58.453Z</time>
      </trkpt>
      <trkpt lat="51.895214" lon="8.711188">
        <ele>154.764270</ele>
        <time>2025-11-05T21:16:02.612Z</time>
      </trkpt>
      <trkpt lat="51.893888" lon="8.711177">
        <ele>152.129437</ele>
        <time>2025-11-05T21:16:28.712Z</time>
      </trkpt>
      <trkpt lat="51.893738" lon="8.711135">
        <ele>151.813486</ele>
        <time>2025-11-05T21:16:31.674Z</time>
      </trkpt>
      <trkpt lat="51.893037" lon="8.710768">
        <ele>150.544508</ele>
        <time>2025-11-05T21:16:46.048Z</time>
      </trkpt>
      <trkpt lat="51.892890" lon="8.710604">
        <ele>150.315628</ele>
        <time>2025-11-05T21:16:49.536Z</time>
      </trkpt>
      <trkpt lat="51.892010" lon="8.708959">
        <ele>148.715423</ele>
        <time>2025-11-05T21:17:18.231Z</time>
      </trkpt>
      <trkpt lat="51.891993" lon="8.708928">
        <ele>148.743936</ele>
        <time>2025-11-05T21:17:18.841Z</time>
      </trkpt>
      <trkpt lat="51.891769" lon="8.708477">
        <ele>149.141973</ele>
        <time>2025-11-05T21:17:27.474Z</time>
      </trkpt>
      <trkpt lat="51.891711" lon="8.708348">
        <ele>149.251710</ele>
        <time>2025-11-05T21:17:29.882Z</time>
      </trkpt>
      <trkpt lat="51.891564" lon="8.708178">
        <ele>149.452915</ele>
        <time>2025-11-05T21:17:34.379Z</time>
      </trkpt>
      <trkpt lat="51.891375" lon="8.708032">
        <ele>149.686183</ele>
        <time>2025-11-05T21:17:39.595Z</time>
      </trkpt>
      <trkpt lat="51.891132" lon="8.707715">
        <ele>150.033743</ele>
        <time>2025-11-05T21:17:47.449Z</time>
      </trkpt>
      <trkpt lat="51.891060" lon="8.707550">
        <ele>150.172686</ele>
        <time>2025-11-05T21:17:50.580Z</time>
      </trkpt>
      <trkpt lat="51.891025" lon="8.707157">
        <ele>150.445700</ele>
        <time>2025-11-05T21:17:56.733Z</time>
      </trkpt>
      <trkpt lat="51.891099" lon="8.706787">
        <ele>150.667833</ele>
        <time>2025-11-05T21:18:02.692Z</time>
      </trkpt>
      <trkpt lat="51.891097" lon="8.706660">
        <ele>150.677487</ele>
        <time>2025-11-05T21:18:04.622Z</time>
      </trkpt>
      <trkpt lat="51.890888" lon="8.705693">
        <ele>150.755345</ele>
        <time>2025-11-05T21:18:19.848Z</time>
      </trkpt>
      <trkpt lat="51.890705" lon="8.705471">
        <ele>150.783494</ele>
        <time>2025-11-05T21:18:25.162Z</time>
      </trkpt>
      <trkpt lat="51.890410" lon="8.705228">
        <ele>150.824241</ele>
        <time>2025-11-05T21:18:32.663Z</time>
      </trkpt>
      <trkpt lat="51.890230" lon="8.704913">
        <ele>150.856863</ele>
        <time>2025-11-05T21:18:38.580Z</time>
      </trkpt>
      <trkpt lat="51.889688" lon="8.703648">
        <ele>150.292242</ele>
        <time>2025-11-05T21:18:59.462Z</time>
      </trkpt>
      <trkpt lat="51.889540" lon="8.703297">
        <ele>150.080468</ele>
        <time>2025-11-05T21:19:05.288Z</time>
      </trkpt>
      <trkpt lat="51.889394" lon="8.702805">
        <ele>149.808502</ele>
        <time>2025-11-05T21:19:12.754Z</time>
      </trkpt>
      <trkpt lat="51.889140" lon="8.701955">
        <ele>149.352084</ele>
        <time>2025-11-05T21:19:25.490Z</time>
      </trkpt>
      <trkpt lat="51.888322" lon="8.699682">
        <ele>148.237768</ele>
        <time>2025-11-05T21:20:01.793Z</time>
      </trkpt>
      <trkpt lat="51.888100" lon="8.699003">
        <ele>147.656838</ele>
        <time>2025-11-05T21:20:12.558Z</time>
      </trkpt>
      <trkpt lat="51.888002" lon="8.698858">
        <ele>147.484208</ele>
        <time>2025-11-05T21:20:15.524Z</time>
      </trkpt>
      <trkpt lat="51.887612" lon="8.698582">
        <ele>146.930630</ele>
        <time>2025-11-05T21:20:24.825Z</time>
      </trkpt>
      <trkpt lat="51.887486" lon="8.698458">
        <ele>146.738868</ele>
        <time>2025-11-05T21:20:27.941Z</time>
      </trkpt>
      <trkpt lat="51.887421" lon="8.698366">
        <ele>146.626600</ele>
        <time>2025-11-05T21:20:29.730Z</time>
      </trkpt>
      <trkpt lat="51.887385" lon="8.698314">
        <ele>146.563865</ele>
        <time>2025-11-05T21:20:30.735Z</time>
      </trkpt>
      <trkpt lat="51.887179" lon="8.697918">
        <ele>146.148079</ele>
        <time>2025-11-05T21:20:37.168Z</time>
      </trkpt>
      <trkpt lat="51.886928" lon="8.697781">
        <ele>145.750741</ele>
        <time>2025-11-05T21:20:42.322Z</time>
      </trkpt>
      <trkpt lat="51.886605" lon="8.697271">
        <ele>144.595138</ele>
        <time>2025-11-05T21:20:50.793Z</time>
      </trkpt>
      <trkpt lat="51.886314" lon="8.696760">
        <ele>143.495597</ele>
        <time>2025-11-05T21:20:58.671Z</time>
      </trkpt>
      <trkpt lat="51.886269" lon="8.696636">
        <ele>143.268111</ele>
        <time>2025-11-05T21:21:00.299Z</time>
      </trkpt>
      <trkpt lat="51.886205" lon="8.696389">
        <ele>142.844466</ele>
        <time>2025-11-05T21:21:03.376Z</time>
      </trkpt>
      <trkpt lat="51.885942" lon="8.695520">
        <ele>141.313850</ele>
        <time>2025-11-05T21:21:14.749Z</time>
      </trkpt>
      <trkpt lat="51.884947" lon="8.692555">
        <ele>139.352256</ele>
        <time>2025-11-05T21:22:00.186Z</time>
      </trkpt>
      <trkpt lat="51.884796" lon="8.692183">
        <ele>139.401687</ele>
        <time>2025-11-05T21:22:06.736Z</time>
      </trkpt>
      <trkpt lat="51.884659" lon="8.691974">
        <ele>139.435535</ele>
        <time>2025-11-05T21:22:11.246Z</time>
      </trkpt>
      <trkpt lat="51.886209" lon="8.688503">
        <ele>140.315681</ele>
        <time>2025-11-05T21:23:09.196Z</time>
      </trkpt>
      <trkpt lat="51.886402" lon="8.688073">
        <ele>140.447363</ele>
        <time>2025-11-05T21:23:16.191Z</time>
      </trkpt>
      <trkpt lat="51.886488" lon="8.687884">
        <ele>140.492988</ele>
        <time>2025-11-05T21:23:19.291Z</time>
      </trkpt>
      <trkpt lat="51.888196" lon="8.684086">
        <ele>141.192976</ele>
        <time>2025-11-05T21:24:22.157Z</time>
      </trkpt>
      <trkpt lat="51.889262" lon="8.682908">
        <ele>140.873692</ele>
        <time>2025-11-05T21:24:48.661Z</time>
      </trkpt>
      <trkpt lat="51.889893" lon="8.682260">
        <ele>140.524879</ele>
        <time>2025-11-05T21:25:03.609Z</time>
      </trkpt>
      <trkpt lat="51.891057" lon="8.680231">
        <ele>139.430799</ele>
        <time>2025-11-05T21:25:37.423Z</time>
      </trkpt>
      <trkpt lat="51.891800" lon="8.678938">
        <ele>138.978278</ele>
        <time>2025-11-05T21:25:59.624Z</time>
      </trkpt>
      <trkpt lat="51.891953" lon="8.678726">
        <ele>138.914230</ele>
        <time>2025-11-05T21:26:03.796Z</time>
      </trkpt>
      <trkpt lat="51.892350" lon="8.678342">
        <ele>138.767132</ele>
        <time>2025-11-05T21:26:13.361Z</time>
      </trkpt>
      <trkpt lat="51.892677" lon="8.678038">
        <ele>138.647665</ele>
        <time>2025-11-05T21:26:21.109Z</time>
      </trkpt>
      <trkpt lat="51.892810" lon="8.677821">
        <ele>138.590852</ele>
        <time>2025-11-05T21:26:25.023Z</time>
      </trkpt>
      <trkpt lat="51.892900" lon="8.677264">
        <ele>138.483894</ele>
        <time>2025-11-05T21:26:32.306Z</time>
      </trkpt>
      <trkpt lat="51.892992" lon="8.676669">
        <ele>138.369949</ele>
        <time>2025-11-05T21:26:39.976Z</time>
      </trkpt>
      <trkpt lat="51.893168" lon="8.675656">
        <ele>138.174457</ele>
        <time>2025-11-05T21:26:53.287Z</time>
      </trkpt>
      <trkpt lat="51.893106" lon="8.675592">
        <ele>138.152329</ele>
        <time>2025-11-05T21:26:55.283Z</time>
      </trkpt>
      <trkpt lat="51.892693" lon="8.674012">
        <ele>137.725381</ele>
        <time>2025-11-05T21:27:24.308Z</time>
      </trkpt>
      <trkpt lat="51.892645" lon="8.673801">
        <ele>137.667522</ele>
        <time>2025-11-05T21:27:27.183Z</time>
      </trkpt>
      <trkpt lat="51.892026" lon="8.671359">
        <ele>136.441212</ele>
        <time>2025-11-05T21:27:59.302Z</time>
      </trkpt>
      <trkpt lat="51.891775" lon="8.670355">
        <ele>135.757465</ele>
        <time>2025-11-05T21:28:11.828Z</time>
      </trkpt>
      <trkpt lat="51.891687" lon="8.669987">
        <ele>135.507564</ele>
        <time>2025-11-05T21:28:16.385Z</time>
      </trkpt>
      <trkpt lat="51.890856" lon="8.666753">
        <ele>133.271064</ele>
        <time>2025-11-05T21:28:58.164Z</time>
      </trkpt>
      <trkpt lat="51.890273" lon="8.664466">
        <ele>131.982657</ele>
        <time>2025-11-05T21:29:28.004Z</time>
      </trkpt>
      <trkpt lat="51.890323" lon="8.661173">
        <ele>130.816575</ele>
        <time>2025-11-05T21:30:09.048Z</time>
      </trkpt>
      <trkpt lat="51.890348" lon="8.659088">
        <ele>130.158200</ele>
        <time>2025-11-05T21:30:34.986Z</time>
      </trkpt>
      <trkpt lat="51.890384" lon="8.655963">
        <ele>128.983948</ele>
        <time>2025-11-05T21:31:13.607Z</time>
      </trkpt>
      <trkpt lat="51.890374" lon="8.655596">
        <ele>128.812257</ele>
        <time>2025-11-05T21:31:18.112Z</time>
      </trkpt>
      <trkpt lat="51.889822" lon="8.653750">
        <ele>127.817247</ele>
        <time>2025-11-05T21:31:43.017Z</time>
      </trkpt>
      <trkpt lat="51.889760" lon="8.653516">
        <ele>127.693722</ele>
        <time>2025-11-05T21:31:46.083Z</time>
      </trkpt>
      <trkpt lat="51.889614" lon="8.652091">
        <ele>126.918124</ele>
        <time>2025-11-05T21:32:03.678Z</time>
      </trkpt>
      <trkpt lat="51.889605" lon="8.651998">
        <ele>126.866279</ele>
        <time>2025-11-05T21:32:04.820Z</time>
      </trkpt>
      <trkpt lat="51.889502" lon="8.651055">
        <ele>126.338856</ele>
        <time>2025-11-05T21:32:16.367Z</time>
      </trkpt>
      <trkpt lat="51.889458" lon="8.650651">
        <ele>126.112917</ele>
        <time>2025-11-05T21:32:21.257Z</time>
      </trkpt>
      <trkpt lat="51.889241" lon="8.648660">
        <ele>125.035342</ele>
        <time>2025-11-05T21:32:45.209Z</time>
      </trkpt>
      <trkpt lat="51.890902" lon="8.647421">
        <ele>124.326646</ele>
        <time>2025-11-05T21:33:23.687Z</time>
      </trkpt>
      <trkpt lat="51.891205" lon="8.647208">
        <ele>124.305086</ele>
        <time>2025-11-05T21:33:31.222Z</time>
      </trkpt>
      <trkpt lat="51.891260" lon="8.647137">
        <ele>124.300495</ele>
        <time>2025-11-05T21:33:32.828Z</time>
      </trkpt>
      <trkpt lat="51.891413" lon="8.647009">
        <ele>124.289255</ele>
        <time>2025-11-05T21:33:36.781Z</time>
      </trkpt>
      <trkpt lat="51.891646" lon="8.646891">
        <ele>124.274533</ele>
        <time>2025-11-05T21:33:42.374Z</time>
      </trkpt>
      <trkpt lat="51.891887" lon="8.646833">
        <ele>124.261480</ele>
        <time>2025-11-05T21:33:47.927Z</time>
      </trkpt>
      <trkpt lat="51.892270" lon="8.646835">
        <ele>124.240960</ele>
        <time>2025-11-05T21:33:56.633Z</time>
      </trkpt>
      <trkpt lat="51.892273" lon="8.646724">
        <ele>124.237287</ele>
        <time>2025-11-05T21:33:58.195Z</time>
      </trkpt>
      <trkpt lat="51.892242" lon="8.646539">
        <ele>124.230949</ele>
        <time>2025-11-05T21:34:00.877Z</time>
      </trkpt>
      <trkpt lat="51.892216" lon="8.643759">
        <ele>123.851814</ele>
        <time>2025-11-05T21:34:36.525Z</time>
      </trkpt>
      <trkpt lat="51.892260" lon="8.643407">
        <ele>123.763650</ele>
        <time>2025-11-05T21:34:41.177Z</time>
      </trkpt>
      <trkpt lat="51.892412" lon="8.642804">
        <ele>123.603755</ele>
        <time>2025-11-05T21:34:49.747Z</time>
      </trkpt>
      <trkpt lat="51.892603" lon="8.642045">
        <ele>123.527953</ele>
        <time>2025-11-05T21:35:00.909Z</time>
      </trkpt>
      <trkpt lat="51.892730" lon="8.641675">
        <ele>123.622285</ele>
        <time>2025-11-05T21:35:06.836Z</time>
      </trkpt>
      <trkpt lat="51.892926" lon="8.641199">
        <ele>123.749781</ele>
        <time>2025-11-05T21:35:14.919Z</time>
      </trkpt>
      <trkpt lat="51.893005" lon="8.641111">
        <ele>123.784392</ele>
        <time>2025-11-05T21:35:17.112Z</time>
      </trkpt>
      <trkpt lat="51.893347" lon="8.640752">
        <ele>123.931510</ele>
        <time>2025-11-05T21:35:26.411Z</time>
      </trkpt>
      <trkpt lat="51.893483" lon="8.640558">
        <ele>123.996926</ele>
        <time>2025-11-05T21:35:30.526Z</time>
      </trkpt>
      <trkpt lat="51.893590" lon="8.640299">
        <ele>124.066369</ele>
        <time>2025-11-05T21:35:34.879Z</time>
      </trkpt>
      <trkpt lat="51.893661" lon="8.640010">
        <ele>124.100948</ele>
        <time>2025-11-05T21:35:39.173Z</time>
      </trkpt>
      <trkpt lat="51.893726" lon="8.639692">
        <ele>124.031736</ele>
        <time>2025-11-05T21:35:43.721Z</time>
      </trkpt>
      <trkpt lat="51.893920" lon="8.638820">
        <ele>123.840221</ele>
        <time>2025-11-05T21:35:55.961Z</time>
      </trkpt>
      <trkpt lat="51.894169" lon="8.637960">
        <ele>123.643952</ele>
        <time>2025-11-05T21:36:08.124Z</time>
      </trkpt>
      <trkpt lat="51.894724" lon="8.636777">
        <ele>123.364167</ele>
        <time>2025-11-05T21:36:27.412Z</time>
      </trkpt>
      <trkpt lat="51.896162" lon="8.633271">
        <ele>122.500854</ele>
        <time>2025-11-05T21:37:23.804Z</time>
      </trkpt>
      <trkpt lat="51.896325" lon="8.632860">
        <ele>122.386749</ele>
        <time>2025-11-05T21:37:29.921Z</time>
      </trkpt>
      <trkpt lat="51.896609" lon="8.632175">
        <ele>122.208734</ele>
        <time>2025-11-05T21:37:40.240Z</time>
      </trkpt>
      <trkpt lat="51.896785" lon="8.631782">
        <ele>122.108127</ele>
        <time>2025-11-05T21:37:46.299Z</time>
      </trkpt>
      <trkpt lat="51.896800" lon="8.631750">
        <ele>122.099801</ele>
        <time>2025-11-05T21:37:46.805Z</time>
      </trkpt>
      <trkpt lat="51.896878" lon="8.631651">
        <ele>122.066536</ele>
        <time>2025-11-05T21:37:48.810Z</time>
      </trkpt>
      <trkpt lat="51.896960" lon="8.631672">
        <ele>122.038663</ele>
        <time>2025-11-05T21:37:50.532Z</time>
      </trkpt>
      <trkpt lat="51.896994" lon="8.631578">
        <ele>122.016088</ele>
        <time>2025-11-05T21:37:51.864Z</time>
      </trkpt>
      <trkpt lat="51.897027" lon="8.631484">
        <ele>121.993682</ele>
        <time>2025-11-05T21:37:53.207Z</time>
      </trkpt>
      <trkpt lat="51.896983" lon="8.631234">
        <ele>121.939820</ele>
        <time>2025-11-05T21:37:56.502Z</time>
      </trkpt>
      <trkpt lat="51.896937" lon="8.631180">
        <ele>121.920749</ele>
        <time>2025-11-05T21:37:57.672Z</time>
      </trkpt>
      <trkpt lat="51.897424" lon="8.630034">
        <ele>121.847360</ele>
        <time>2025-11-05T21:38:17.042Z</time>
      </trkpt>
      <trkpt lat="51.898089" lon="8.628378">
        <ele>122.436808</ele>
        <time>2025-11-05T21:38:45.018Z</time>
      </trkpt>
      <trkpt lat="51.898129" lon="8.628280">
        <ele>122.471862</ele>
        <time>2025-11-05T21:38:46.687Z</time>
      </trkpt>
      <trkpt lat="51.898617" lon="8.627064">
        <ele>122.114450</ele>
        <time>2025-11-05T21:39:06.349Z</time>
      </trkpt>
      <trkpt lat="51.898754" lon="8.626721">
        <ele>121.930071</ele>
        <time>2025-11-05T21:39:11.510Z</time>
      </trkpt>
      <trkpt lat="51.898812" lon="8.626576">
        <ele>121.852093</ele>
        <time>2025-11-05T21:39:13.653Z</time>
      </trkpt>
      <trkpt lat="51.899267" lon="8.625442">
        <ele>121.224210</ele>
        <time>2025-11-05T21:39:30.115Z</time>
      </trkpt>
      <trkpt lat="51.899286" lon="8.625393">
        <ele>121.184283</ele>
        <time>2025-11-05T21:39:30.793Z</time>
      </trkpt>
      <trkpt lat="51.899297" lon="8.625367">
        <ele>121.162535</ele>
        <time>2025-11-05T21:39:31.168Z</time>
      </trkpt>
      <trkpt lat="51.899677" lon="8.624413">
        <ele>120.379146</ele>
        <time>2025-11-05T21:39:44.564Z</time>
      </trkpt>
      <trkpt lat="51.899754" lon="8.624220">
        <ele>120.220587</ele>
        <time>2025-11-05T21:39:47.379Z</time>
      </trkpt>
      <trkpt lat="51.900144" lon="8.623262">
        <ele>119.428783</ele>
        <time>2025-11-05T21:40:01.834Z</time>
      </trkpt>
      <trkpt lat="51.900182" lon="8.623168">
        <ele>119.351254</ele>
        <time>2025-11-05T21:40:03.266Z</time>
      </trkpt>
      <trkpt lat="51.900570" lon="8.622214">
        <ele>119.125761</ele>
        <time>2025-11-05T21:40:18.129Z</time>
      </trkpt>
      <trkpt lat="51.900690" lon="8.621920">
        <ele>119.077879</ele>
        <time>2025-11-05T21:40:22.811Z</time>
      </trkpt>
      <trkpt lat="51.900829" lon="8.621576">
        <ele>119.022025</ele>
        <time>2025-11-05T21:40:28.318Z</time>
      </trkpt>
      <trkpt lat="51.901440" lon="8.620074">
        <ele>118.788270</ele>
        <time>2025-11-05T21:40:52.936Z</time>
      </trkpt>
      <trkpt lat="51.901561" lon="8.620032">
        <ele>118.764237</ele>
        <time>2025-11-05T21:40:55.678Z</time>
      </trkpt>
      <trkpt lat="51.901559" lon="8.619865">
        <ele>118.744221</ele>
        <time>2025-11-05T21:40:57.875Z</time>
      </trkpt>
      <trkpt lat="51.901527" lon="8.618669">
        <ele>118.600764</ele>
        <time>2025-11-05T21:41:13.008Z</time>
      </trkpt>
      <trkpt lat="51.901520" lon="8.618544">
        <ele>118.585723</ele>
        <time>2025-11-05T21:41:14.568Z</time>
      </trkpt>
      <trkpt lat="51.901468" lon="8.617468">
        <ele>118.375387</ele>
        <time>2025-11-05T21:41:28.644Z</time>
      </trkpt>
      <trkpt lat="51.901422" lon="8.616366">
        <ele>118.070285</ele>
        <time>2025-11-05T21:41:43.019Z</time>
      </trkpt>
      <trkpt lat="51.901393" lon="8.615616">
        <ele>117.862706</ele>
        <time>2025-11-05T21:41:52.876Z</time>
      </trkpt>
      <trkpt lat="51.901380" lon="8.615289">
        <ele>117.772191</ele>
        <time>2025-11-05T21:41:57.217Z</time>
      </trkpt>
      <trkpt lat="51.901370" lon="8.615059">
        <ele>117.704509</ele>
        <time>2025-11-05T21:42:00.126Z</time>
      </trkpt>
      <trkpt lat="51.901349" lon="8.614556">
        <ele>117.447451</ele>
        <time>2025-11-05T21:42:06.469Z</time>
      </trkpt>
      <trkpt lat="51.901322" lon="8.613853">
        <ele>117.088309</ele>
        <time>2025-11-05T21:42:15.209Z</time>
      </trkpt>
      <trkpt lat="51.901314" lon="8.613620">
        <ele>116.969323</ele>
        <time>2025-11-05T21:42:18.031Z</time>
      </trkpt>
      <trkpt lat="51.901291" lon="8.613248">
        <ele>116.778696</ele>
        <time>2025-11-05T21:42:22.447Z</time>
      </trkpt>
      <trkpt lat="51.901260" lon="8.612540">
        <ele>116.416790</ele>
        <time>2025-11-05T21:42:30.866Z</time>
      </trkpt>
      <trkpt lat="51.901163" lon="8.612001">
        <ele>116.120032</ele>
        <time>2025-11-05T21:42:37.453Z</time>
      </trkpt>
      <trkpt lat="51.901218" lon="8.611929">
        <ele>116.055254</ele>
        <time>2025-11-05T21:42:38.801Z</time>
      </trkpt>
      <trkpt lat="51.901217" lon="8.611814">
        <ele>115.990234</ele>
        <time>2025-11-05T21:42:40.106Z</time>
      </trkpt>
      <trkpt lat="51.901186" lon="8.611759">
        <ele>115.948121</ele>
        <time>2025-11-05T21:42:40.984Z</time>
      </trkpt>
      <trkpt lat="51.901135" lon="8.611741">
        <ele>115.900298</ele>
        <time>2025-11-05T21:42:41.972Z</time>
      </trkpt>
      <trkpt lat="51.901119" lon="8.611591">
        <ele>115.814241</ele>
        <time>2025-11-05T21:42:43.741Z</time>
      </trkpt>
      <trkpt lat="51.901189" lon="8.611574">
        <ele>115.749389</ele>
        <time>2025-11-05T21:42:45.116Z</time>
      </trkpt>
      <trkpt lat="51.901028" lon="8.610276">
        <ele>115.000907</ele>
        <time>2025-11-05T21:43:00.794Z</time>
      </trkpt>
      <trkpt lat="51.900818" lon="8.608525">
        <ele>114.395646</ele>
        <time>2025-11-05T21:43:23.214Z</time>
      </trkpt>
      <trkpt lat="51.900688" lon="8.607523">
        <ele>114.214749</ele>
        <time>2025-11-05T21:43:36.549Z</time>
      </trkpt>
      <trkpt lat="51.900580" lon="8.607144">
        <ele>114.140994</ele>
        <time>2025-11-05T21:43:41.898Z</time>
      </trkpt>
      <trkpt lat="51.900505" lon="8.606923">
        <ele>114.096433</ele>
        <time>2025-11-05T21:43:45.094Z</time>
      </trkpt>
      <trkpt lat="51.899665" lon="8.605314">
        <ele>113.579384</ele>
        <time>2025-11-05T21:44:11.001Z</time>
      </trkpt>
      <trkpt lat="51.899457" lon="8.605008">
        <ele>113.464705</ele>
        <time>2025-11-05T21:44:16.600Z</time>
      </trkpt>
      <trkpt lat="51.898754" lon="8.604157">
        <ele>113.471803</ele>
        <time>2025-11-05T21:44:35.356Z</time>
      </trkpt>
      <trkpt lat="51.898359" lon="8.603866">
        <ele>113.584643</ele>
        <time>2025-11-05T21:44:44.941Z</time>
      </trkpt>
      <trkpt lat="51.898262" lon="8.603460">
        <ele>113.654508</ele>
        <time>2025-11-05T21:44:50.885Z</time>
      </trkpt>
      <trkpt lat="51.898129" lon="8.603149">
        <ele>113.715229</ele>
        <time>2025-11-05T21:44:56.005Z</time>
      </trkpt>
      <trkpt lat="51.898069" lon="8.602942">
        <ele>113.751930</ele>
        <time>2025-11-05T21:44:59.091Z</time>
      </trkpt>
      <trkpt lat="51.898040" lon="8.602796">
        <ele>113.776543</ele>
        <time>2025-11-05T21:45:01.150Z</time>
      </trkpt>
      <trkpt lat="51.898077" lon="8.602365">
        <ele>113.680037</ele>
        <time>2025-11-05T21:45:06.813Z</time>
      </trkpt>
      <trkpt lat="51.898361" lon="8.601861">
        <ele>113.417534</ele>
        <time>2025-11-05T21:45:15.235Z</time>
      </trkpt>
      <trkpt lat="51.898575" lon="8.601569">
        <ele>113.243168</ele>
        <time>2025-11-05T21:45:20.593Z</time>
      </trkpt>
      <trkpt lat="51.898743" lon="8.601398">
        <ele>113.119516</ele>
        <time>2025-11-05T21:45:24.350Z</time>
      </trkpt>
      <trkpt lat="51.898849" lon="8.600982">
        <ele>112.946418</ele>
        <time>2025-11-05T21:45:29.932Z</time>
      </trkpt>
      <trkpt lat="51.898753" lon="8.600249">
        <ele>112.676154</ele>
        <time>2025-11-05T21:45:39.042Z</time>
      </trkpt>
      <trkpt lat="51.898807" lon="8.600250">
        <ele>112.675819</ele>
        <time>2025-11-05T21:45:40.119Z</time>
      </trkpt>
      <trkpt lat="51.898881" lon="8.600210">
        <ele>112.675336</ele>
        <time>2025-11-05T21:45:41.878Z</time>
      </trkpt>
      <trkpt lat="51.898978" lon="8.599961">
        <ele>112.674210</ele>
        <time>2025-11-05T21:45:46.040Z</time>
      </trkpt>
      <trkpt lat="51.899323" lon="8.598695">
        <ele>112.668918</ele>
        <time>2025-11-05T21:46:06.043Z</time>
      </trkpt>
      <trkpt lat="51.899371" lon="8.598356">
        <ele>112.667589</ele>
        <time>2025-11-05T21:46:13.412Z</time>
      </trkpt>
      <trkpt lat="51.899415" lon="8.597702">
        <ele>112.658715</ele>
        <time>2025-11-05T21:46:27.343Z</time>
      </trkpt>
      <trkpt lat="51.899502" lon="8.597114">
        <ele>112.529197</ele>
        <time>2025-11-05T21:46:40.235Z</time>
      </trkpt>
      <trkpt lat="51.899599" lon="8.596025">
        <ele>112.293519</ele>
        <time>2025-11-05T21:47:03.738Z</time>
      </trkpt>
      <trkpt lat="51.899616" lon="8.595037">
        <ele>112.081810</ele>
        <time>2025-11-05T21:47:24.782Z</time>
      </trkpt>
      <trkpt lat="51.899523" lon="8.593859">
        <ele>111.717355</ele>
        <time>2025-11-05T21:47:49.495Z</time>
      </trkpt>
      <trkpt lat="51.899448" lon="8.592916">
        <ele>111.408641</ele>
        <time>2025-11-05T21:48:09.736Z</time>
      </trkpt>
      <trkpt lat="51.899166" lon="8.591513">
        <ele>111.127197</ele>
        <time>2025-11-05T21:48:41.252Z</time>
      </trkpt>
      <trkpt lat="51.899127" lon="8.591162">
        <ele>111.150261</ele>
        <time>2025-11-05T21:48:48.847Z</time>
      </trkpt>
      <trkpt lat="51.899128" lon="8.590452">
        <ele>111.196176</ele>
        <time>2025-11-05T21:49:03.981Z</time>
      </trkpt>
      <trkpt lat="51.899150" lon="8.590112">
        <ele>111.218283</ele>
        <time>2025-11-05T21:49:11.253Z</time>
      </trkpt>
      <trkpt lat="51.899174" lon="8.589661">
        <ele>111.247557</ele>
        <time>2025-11-05T21:49:20.902Z</time>
      </trkpt>
      <trkpt lat="51.899157" lon="8.588849">
        <ele>111.208167</ele>
        <time>2025-11-05T21:49:38.237Z</time>
      </trkpt>
      <trkpt lat="51.899268" lon="8.587680">
        <ele>110.876466</ele>
        <time>2025-11-05T21:50:03.510Z</time>
      </trkpt>
      <trkpt lat="51.899433" lon="8.585313">
        <ele>109.860319</ele>
        <time>2025-11-05T21:50:54.077Z</time>
      </trkpt>
      <trkpt lat="51.899521" lon="8.584836">
        <ele>109.531548</ele>
        <time>2025-11-05T21:51:04.433Z</time>
      </trkpt>
      <trkpt lat="51.899737" lon="8.583725">
        <ele>108.762328</ele>
        <time>2025-11-05T21:51:28.171Z</time>
      </trkpt>
      <trkpt lat="51.899744" lon="8.583229">
        <ele>108.456403</ele>
        <time>2025-11-05T21:51:38.241Z</time>
      </trkpt>
      <trkpt lat="51.899716" lon="8.582899">
        <ele>108.281565</ele>
        <time>2025-11-05T21:51:45.008Z</time>
      </trkpt>
      <trkpt lat="51.899721" lon="8.582533">
        <ele>108.089414</ele>
        <time>2025-11-05T21:51:52.541Z</time>
      </trkpt>
      <trkpt lat="51.899763" lon="8.581983">
        <ele>107.798531</ele>
        <time>2025-11-05T21:52:04.160Z</time>
      </trkpt>
      <trkpt lat="51.899855" lon="8.581290">
        <ele>107.426471</ele>
        <time>2025-11-05T21:52:19.224Z</time>
      </trkpt>
      <trkpt lat="51.899980" lon="8.580893">
        <ele>107.192536</ele>
        <time>2025-11-05T21:52:28.735Z</time>
      </trkpt>
      <trkpt lat="51.900162" lon="8.580545">
        <ele>106.977013</ele>
        <time>2025-11-05T21:52:38.470Z</time>
      </trkpt>
      <trkpt lat="51.898501" lon="8.576225">
        <ele>105.256335</ele>
        <time>2025-11-05T21:54:27.109Z</time>
      </trkpt>
      <trkpt lat="51.897707" lon="8.573873">
        <ele>104.126597</ele>
        <time>2025-11-05T21:55:23.532Z</time>
      </trkpt>
      <trkpt lat="51.897635" lon="8.573731">
        <ele>104.046654</ele>
        <time>2025-11-05T21:55:27.452Z</time>
      </trkpt>
      <trkpt lat="51.897294" lon="8.572702">
        <ele>103.743181</ele>
        <time>2025-11-05T21:55:52.408Z</time>
      </trkpt>
      <trkpt lat="51.897053" lon="8.571390">
        <ele>103.722250</ele>
        <time>2025-11-05T21:56:21.619Z</time>
      </trkpt>
      <trkpt lat="51.896973" lon="8.570929">
        <ele>103.714928</ele>
        <time>2025-11-05T21:56:31.831Z</time>
      </trkpt>
      <trkpt lat="51.896583" lon="8.570009">
        <ele>103.622469</ele>
        <time>2025-11-05T21:56:55.642Z</time>
      </trkpt>
      <trkpt lat="51.896427" lon="8.569561">
        <ele>103.542330</ele>
        <time>2025-11-05T21:57:06.632Z</time>
      </trkpt>
      <trkpt lat="51.896328" lon="8.569200">
        <ele>103.480786</ele>
        <time>2025-11-05T21:57:15.064Z</time>
      </trkpt>
      <trkpt lat="51.896242" lon="8.568711">
        <ele>103.401571</ele>
        <time>2025-11-05T21:57:25.942Z</time>
      </trkpt>
      <trkpt lat="51.896186" lon="8.568589">
        <ele>103.377883</ele>
        <time>2025-11-05T21:57:29.180Z</time>
      </trkpt>
      <trkpt lat="51.896034" lon="8.567918">
        <ele>103.266527</ele>
        <time>2025-11-05T21:57:44.450Z</time>
      </trkpt>
      <trkpt lat="51.896028" lon="8.567908">
        <ele>103.264354</ele>
        <time>2025-11-05T21:57:44.743Z</time>
      </trkpt>
      <trkpt lat="51.895942" lon="8.567741">
        <ele>103.193244</ele>
        <time>2025-11-05T21:57:49.391Z</time>
      </trkpt>
      <trkpt lat="51.895701" lon="8.566848">
        <ele>102.778664</ele>
        <time>2025-11-05T21:58:10.162Z</time>
      </trkpt>
      <trkpt lat="51.895478" lon="8.566159">
        <ele>102.447727</ele>
        <time>2025-11-05T21:58:26.704Z</time>
      </trkpt>
      <trkpt lat="51.895210" lon="8.564989">
        <ele>101.930409</ele>
        <time>2025-11-05T21:58:53.127Z</time>
      </trkpt>
      <trkpt lat="51.895100" lon="8.564367">
        <ele>101.694264</ele>
        <time>2025-11-05T21:59:06.736Z</time>
      </trkpt>
      <trkpt lat="51.894879" lon="8.563858">
        <ele>101.467123</ele>
        <time>2025-11-05T21:59:19.849Z</time>
      </trkpt>
      <trkpt lat="51.894843" lon="8.563299">
        <ele>101.261999</ele>
        <time>2025-11-05T21:59:31.773Z</time>
      </trkpt>
      <trkpt lat="51.894860" lon="8.563051">
        <ele>101.170931</ele>
        <time>2025-11-05T21:59:37.107Z</time>
      </trkpt>
      <trkpt lat="51.894817" lon="8.562316">
        <ele>100.962613</ele>
        <time>2025-11-05T21:59:52.877Z</time>
      </trkpt>
      <trkpt lat="51.894653" lon="8.561628">
        <ele>101.043820</ele>
        <time>2025-11-05T22:00:08.590Z</time>
      </trkpt>
      <trkpt lat="51.894532" lon="8.561306">
        <ele>101.085329</ele>
        <time>2025-11-05T22:00:16.588Z</time>
      </trkpt>
      <trkpt lat="51.894365" lon="8.561119">
        <ele>101.121547</ele>
        <time>2025-11-05T22:00:23.535Z</time>
      </trkpt>
      <trkpt lat="51.894210" lon="8.561040">
        <ele>101.150537</ele>
        <time>2025-11-05T22:00:29.116Z</time>
      </trkpt>
      <trkpt lat="51.893908" lon="8.561039">
        <ele>101.204420</ele>
        <time>2025-11-05T22:00:39.537Z</time>
      </trkpt>
      <trkpt lat="51.893864" lon="8.561013">
        <ele>101.212776</ele>
        <time>2025-11-05T22:00:41.146Z</time>
      </trkpt>
      <trkpt lat="51.893729" lon="8.560840">
        <ele>101.243484</ele>
        <time>2025-11-05T22:00:47.101Z</time>
      </trkpt>
      <trkpt lat="51.893466" lon="8.560381">
        <ele>101.238730</ele>
        <time>2025-11-05T22:01:00.478Z</time>
      </trkpt>
      <trkpt lat="51.892875" lon="8.560686">
        <ele>101.160082</ele>
        <time>2025-11-05T22:01:21.935Z</time>
      </trkpt>
      <trkpt lat="51.892026" lon="8.562071">
        <ele>101.035099</ele>
        <time>2025-11-05T22:02:03.693Z</time>
      </trkpt>
      <trkpt lat="51.891420" lon="8.562680">
        <ele>101.018628</ele>
        <time>2025-11-05T22:02:28.344Z</time>
      </trkpt>
      <trkpt lat="51.891098" lon="8.562884">
        <ele>101.010643</ele>
        <time>2025-11-05T22:02:40.293Z</time>
      </trkpt>
      <trkpt lat="51.890496" lon="8.561407">
        <ele>100.924974</ele>
        <time>2025-11-05T22:03:18.101Z</time>
      </trkpt>
      <trkpt lat="51.890327" lon="8.560918">
        <ele>100.883292</ele>
        <time>2025-11-05T22:03:30.055Z</time>
      </trkpt>
      <trkpt lat="51.890337" lon="8.560802">
        <ele>100.874581</ele>
        <time>2025-11-05T22:03:31.637Z</time>
      </trkpt>
      <trkpt lat="51.890027" lon="8.557989">
        <ele>100.557416</ele>
        <time>2025-11-05T22:04:09.458Z</time>
      </trkpt>
      <trkpt lat="51.889756" lon="8.556109">
        <ele>100.347405</ele>
        <time>2025-11-05T22:04:35.282Z</time>
      </trkpt>
      <trkpt lat="51.889844" lon="8.554782">
        <ele>100.282396</ele>
        <time>2025-11-05T22:04:53.326Z</time>
      </trkpt>
      <trkpt lat="51.889724" lon="8.554697">
        <ele>100.272060</ele>
        <time>2025-11-05T22:04:57.846Z</time>
      </trkpt>
      <trkpt lat="51.889582" lon="8.554443">
        <ele>100.255367</ele>
        <time>2025-11-05T22:05:05.159Z</time>
      </trkpt>
      <trkpt lat="51.889137" lon="8.552755">
        <ele>99.859528</ele>
        <time>2025-11-05T22:05:44.399Z</time>
      </trkpt>
      <trkpt lat="51.888829" lon="8.551847">
        <ele>99.590561</ele>
        <time>2025-11-05T22:05:57.316Z</time>
      </trkpt>
      <trkpt lat="51.888791" lon="8.551619">
        <ele>99.529253</ele>
        <time>2025-11-05T22:06:00.211Z</time>
      </trkpt>
      <trkpt lat="51.888788" lon="8.551176">
        <ele>99.364985</ele>
        <time>2025-11-05T22:06:05.559Z</time>
      </trkpt>
      <trkpt lat="51.888772" lon="8.551113">
        <ele>99.334094</ele>
        <time>2025-11-05T22:06:06.373Z</time>
      </trkpt>
      <trkpt lat="51.888748" lon="8.551075">
        <ele>99.309440</ele>
        <time>2025-11-05T22:06:07.029Z</time>
      </trkpt>
      <trkpt lat="51.888646" lon="8.550944">
        <ele>99.213813</ele>
        <time>2025-11-05T22:06:09.523Z</time>
      </trkpt>
      <trkpt lat="51.888415" lon="8.550735">
        <ele>99.019429</ele>
        <time>2025-11-05T22:06:14.705Z</time>
      </trkpt>
      <trkpt lat="51.888170" lon="8.550576">
        <ele>98.825524</ele>
        <time>2025-11-05T22:06:19.922Z</time>
      </trkpt>
      <trkpt lat="51.887636" lon="8.550403">
        <ele>98.425427</ele>
        <time>2025-11-05T22:06:30.787Z</time>
      </trkpt>
      <trkpt lat="51.887541" lon="8.550382">
        <ele>98.354984</ele>
        <time>2025-11-05T22:06:32.676Z</time>
      </trkpt>
      <trkpt lat="51.887618" lon="8.548013">
        <ele>97.394643</ele>
        <time>2025-11-05T22:07:01.944Z</time>
      </trkpt>
      <trkpt lat="51.887631" lon="8.547607">
        <ele>97.234478</ele>
        <time>2025-11-05T22:07:06.974Z</time>
      </trkpt>
      <trkpt lat="51.887651" lon="8.546975">
        <ele>96.982819</ele>
        <time>2025-11-05T22:07:14.781Z</time>
      </trkpt>
      <trkpt lat="51.887560" lon="8.543917">
        <ele>95.709308</ele>
        <time>2025-11-05T22:07:52.196Z</time>
      </trkpt>
      <trkpt lat="51.887440" lon="8.541338">
        <ele>95.128880</ele>
        <time>2025-11-05T22:08:24.759Z</time>
      </trkpt>
      <trkpt lat="51.887377" lon="8.540020">
        <ele>95.058158</ele>
        <time>2025-11-05T22:08:42.051Z</time>
      </trkpt>
      <trkpt lat="51.887334" lon="8.539189">
        <ele>95.027220</ele>
        <time>2025-11-05T22:08:52.856Z</time>
      </trkpt>
      <trkpt lat="51.887290" lon="8.538367">
        <ele>94.996610</ele>
        <time>2025-11-05T22:09:03.258Z</time>
      </trkpt>
      <trkpt lat="51.887236" lon="8.536896">
        <ele>95.234587</ele>
        <time>2025-11-05T22:09:22.590Z</time>
      </trkpt>
      <trkpt lat="51.888019" lon="8.536584">
        <ele>95.454476</ele>
        <time>2025-11-05T22:09:42.049Z</time>
      </trkpt>
      <trkpt lat="51.888119" lon="8.536528">
        <ele>95.483329</ele>
        <time>2025-11-05T22:09:45.678Z</time>
      </trkpt>
      <trkpt lat="51.888208" lon="8.536240">
        <ele>95.471262</ele>
        <time>2025-11-05T22:09:50.463Z</time>
      </trkpt>
      <trkpt lat="51.888118" lon="8.535408">
        <ele>95.433091</ele>
        <time>2025-11-05T22:10:02.868Z</time>
      </trkpt>
      <trkpt lat="51.888021" lon="8.534853">
        <ele>95.407024</ele>
        <time>2025-11-05T22:10:11.073Z</time>
      </trkpt>
      <trkpt lat="51.887801" lon="8.534531">
        <ele>95.385317</ele>
        <time>2025-11-05T22:10:17.717Z</time>
      </trkpt>
      <trkpt lat="51.887536" lon="8.534299">
        <ele>95.363263</ele>
        <time>2025-11-05T22:10:24.504Z</time>
      </trkpt>
      <trkpt lat="51.887355" lon="8.534012">
        <ele>95.329811</ele>
        <time>2025-11-05T22:10:30.288Z</time>
      </trkpt>
      <trkpt lat="51.887312" lon="8.533957">
        <ele>95.319063</ele>
        <time>2025-11-05T22:10:31.534Z</time>
      </trkpt>
      <trkpt lat="51.887279" lon="8.533781">
        <ele>95.296791</ele>
        <time>2025-11-05T22:10:35.454Z</time>
      </trkpt>
      <trkpt lat="51.887280" lon="8.533620">
        <ele>95.277296</ele>
        <time>2025-11-05T22:10:38.896Z</time>
      </trkpt>
      <trkpt lat="51.887352" lon="8.533378">
        <ele>95.244767</ele>
        <time>2025-11-05T22:10:44.635Z</time>
      </trkpt>
      <trkpt lat="51.887548" lon="8.533004">
        <ele>95.185359</ele>
        <time>2025-11-05T22:10:51.582Z</time>
      </trkpt>
      <trkpt lat="51.887755" lon="8.532254">
        <ele>95.085881</ele>
        <time>2025-11-05T22:11:03.281Z</time>
      </trkpt>
      <trkpt lat="51.887823" lon="8.531947">
        <ele>95.046387</ele>
        <time>2025-11-05T22:11:07.985Z</time>
      </trkpt>
      <trkpt lat="51.887894" lon="8.531433">
        <ele>94.986894</ele>
        <time>2025-11-05T22:11:15.562Z</time>
      </trkpt>
      <trkpt lat="51.887949" lon="8.531247">
        <ele>94.967821</ele>
        <time>2025-11-05T22:11:18.541Z</time>
      </trkpt>
      <trkpt lat="51.888540" lon="8.529642">
        <ele>94.794983</ele>
        <time>2025-11-05T22:11:45.432Z</time>
      </trkpt>
      <trkpt lat="51.888630" lon="8.529450">
        <ele>94.772687</ele>
        <time>2025-11-05T22:11:48.864Z</time>
      </trkpt>
      <trkpt lat="51.888602" lon="8.529433">
        <ele>94.768207</ele>
        <time>2025-11-05T22:11:49.553Z</time>
      </trkpt>
      <trkpt lat="51.888525" lon="8.529329">
        <ele>94.753186</ele>
        <time>2025-11-05T22:11:53.020Z</time>
      </trkpt>
      <trkpt lat="51.888472" lon="8.529234">
        <ele>94.741344</ele>
        <time>2025-11-05T22:11:54.825Z</time>
      </trkpt>
      <trkpt lat="51.888471" lon="8.529162">
        <ele>94.734684</ele>
        <time>2025-11-05T22:11:55.846Z</time>
      </trkpt>
      <trkpt lat="51.888498" lon="8.529105">
        <ele>94.721300</ele>
        <time>2025-11-05T22:11:56.857Z</time>
      </trkpt>
      <trkpt lat="51.888274" lon="8.525987">
        <ele>93.898336</ele>
        <time>2025-11-05T22:12:35.773Z</time>
      </trkpt>
      <trkpt lat="51.888255" lon="8.525740">
        <ele>93.902307</ele>
        <time>2025-11-05T22:12:38.907Z</time>
      </trkpt>
      <trkpt lat="51.888069" lon="8.523038">
        <ele>93.900495</ele>
        <time>2025-11-05T22:13:14.793Z</time>
      </trkpt>
      <trkpt lat="51.888035" lon="8.522611">
        <ele>93.845186</ele>
        <time>2025-11-05T22:13:20.534Z</time>
      </trkpt>
      <trkpt lat="51.887950" lon="8.522223">
        <ele>93.792296</ele>
        <time>2025-11-05T22:13:25.887Z</time>
      </trkpt>
      <trkpt lat="51.887936" lon="8.521954">
        <ele>93.757617</ele>
        <time>2025-11-05T22:13:29.319Z</time>
      </trkpt>
      <trkpt lat="51.887981" lon="8.521695">
        <ele>93.723052</ele>
        <time>2025-11-05T22:13:32.744Z</time>
      </trkpt>
      <trkpt lat="51.887983" lon="8.521629">
        <ele>93.714563</ele>
        <time>2025-11-05T22:13:33.590Z</time>
      </trkpt>
      <trkpt lat="51.887926" lon="8.521365">
        <ele>93.678633</ele>
        <time>2025-11-05T22:13:37.136Z</time>
      </trkpt>
      <trkpt lat="51.887557" lon="8.520529">
        <ele>93.516167</ele>
        <time>2025-11-05T22:13:49.916Z</time>
      </trkpt>
      <trkpt lat="51.887432" lon="8.520254">
        <ele>93.404587</ele>
        <time>2025-11-05T22:13:54.087Z</time>
      </trkpt>
      <trkpt lat="51.887229" lon="8.519521">
        <ele>93.142107</ele>
        <time>2025-11-05T22:14:03.826Z</time>
      </trkpt>
      <trkpt lat="51.887017" lon="8.518492">
        <ele>92.787688</ele>
        <time>2025-11-05T22:14:17.467Z</time>
      </trkpt>
      <trkpt lat="51.886964" lon="8.518234">
        <ele>92.698850</ele>
        <time>2025-11-05T22:14:20.936Z</time>
      </trkpt>
      <trkpt lat="51.886812" lon="8.517120">
        <ele>92.405516</ele>
        <time>2025-11-05T22:14:35.316Z</time>
      </trkpt>
      <trkpt lat="51.886810" lon="8.516941">
        <ele>92.363145</ele>
        <time>2025-11-05T22:14:37.551Z</time>
      </trkpt>
      <trkpt lat="51.886752" lon="8.516889">
        <ele>92.337727</ele>
        <time>2025-11-05T22:14:38.898Z</time>
      </trkpt>
      <trkpt lat="51.886608" lon="8.516648">
        <ele>92.258340</ele>
        <time>2025-11-05T22:14:43.045Z</time>
      </trkpt>
      <trkpt lat="51.885889" lon="8.515047">
        <ele>92.058938</ele>
        <time>2025-11-05T22:15:07.867Z</time>
      </trkpt>
      <trkpt lat="51.885723" lon="8.514831">
        <ele>92.140314</ele>
        <time>2025-11-05T22:15:12.510Z</time>
      </trkpt>
      <trkpt lat="51.885674" lon="8.514775">
        <ele>92.163233</ele>
        <time>2025-11-05T22:15:13.825Z</time>
      </trkpt>
      <trkpt lat="51.885494" lon="8.514809">
        <ele>92.232497</ele>
        <time>2025-11-05T22:15:17.868Z</time>
      </trkpt>
      <trkpt lat="51.885465" lon="8.514775">
        <ele>92.246179</ele>
        <time>2025-11-05T22:15:18.666Z</time>
      </trkpt>
      <trkpt lat="51.885413" lon="8.514712">
        <ele>92.270996</ele>
        <time>2025-11-05T22:15:20.138Z</time>
      </trkpt>
      <trkpt lat="51.885367" lon="8.514670">
        <ele>92.291177</ele>
        <time>2025-11-05T22:15:21.317Z</time>
      </trkpt>
      <trkpt lat="51.885365" lon="8.514215">
        <ele>92.398521</ele>
        <time>2025-11-05T22:15:27.575Z</time>
      </trkpt>
      <trkpt lat="51.885205" lon="8.513514">
        <ele>92.574841</ele>
        <time>2025-11-05T22:15:37.729Z</time>
      </trkpt>
      <trkpt lat="51.885091" lon="8.513144">
        <ele>92.662453</ele>
        <time>2025-11-05T22:15:43.338Z</time>
      </trkpt>
      <trkpt lat="51.885106" lon="8.513037">
        <ele>92.684075</ele>
        <time>2025-11-05T22:15:44.833Z</time>
      </trkpt>
      <trkpt lat="51.884909" lon="8.512584">
        <ele>92.793271</ele>
        <time>2025-11-05T22:15:52.319Z</time>
      </trkpt>
      <trkpt lat="51.884816" lon="8.512376">
        <ele>92.843882</ele>
        <time>2025-11-05T22:15:55.749Z</time>
      </trkpt>
      <trkpt lat="51.884788" lon="8.512263">
        <ele>92.867876</ele>
        <time>2025-11-05T22:15:57.364Z</time>
      </trkpt>
      <trkpt lat="51.884773" lon="8.511963">
        <ele>92.927186</ele>
        <time>2025-11-05T22:16:01.293Z</time>
      </trkpt>
      <trkpt lat="51.884732" lon="8.511876">
        <ele>92.948756</ele>
        <time>2025-11-05T22:16:02.695Z</time>
      </trkpt>
      <trkpt lat="51.884828" lon="8.511674">
        <ele>92.998993</ele>
        <time>2025-11-05T22:16:07.005Z</time>
      </trkpt>
      <trkpt lat="51.884875" lon="8.510861">
        <ele>93.159899</ele>
        <time>2025-11-05T22:16:20.884Z</time>
      </trkpt>
      <trkpt lat="51.885024" lon="8.509980">
        <ele>93.224342</ele>
        <time>2025-11-05T22:16:36.639Z</time>
      </trkpt>
      <trkpt lat="51.885044" lon="8.509518">
        <ele>93.246976</ele>
        <time>2025-11-05T22:16:44.616Z</time>
      </trkpt>
      <trkpt lat="51.884998" lon="8.509135">
        <ele>93.266044</ele>
        <time>2025-11-05T22:16:51.314Z</time>
      </trkpt>
      <trkpt lat="51.884946" lon="8.508857">
        <ele>93.280241</ele>
        <time>2025-11-05T22:16:56.267Z</time>
      </trkpt>
      <trkpt lat="51.884892" lon="8.508575">
        <ele>93.294670</ele>
        <time>2025-11-05T22:17:01.267Z</time>
      </trkpt>
      <trkpt lat="51.884825" lon="8.508247">
        <ele>93.311555</ele>
        <time>2025-11-05T22:17:07.081Z</time>
      </trkpt>
      <trkpt lat="51.884702" lon="8.507942">
        <ele>93.320504</ele>
        <time>2025-11-05T22:17:13.133Z</time>
      </trkpt>
      <trkpt lat="51.884646" lon="8.507589">
        <ele>93.119310</ele>
        <time>2025-11-05T22:17:19.135Z</time>
      </trkpt>
      <trkpt lat="51.885209" lon="8.507501">
        <ele>92.613473</ele>
        <time>2025-11-05T22:17:33.646Z</time>
      </trkpt>
      <trkpt lat="51.885216" lon="8.507431">
        <ele>92.574329</ele>
        <time>2025-11-05T22:17:34.758Z</time>
      </trkpt>
      <trkpt lat="51.885243" lon="8.507119">
        <ele>92.400418</ele>
        <time>2025-11-05T22:17:39.630Z</time>
      </trkpt>
      <trkpt lat="51.885255" lon="8.506979">
        <ele>92.322396</ele>
        <time>2025-11-05T22:17:41.239Z</time>
      </trkpt>
      <trkpt lat="51.885247" lon="8.506635">
        <ele>92.132371</ele>
        <time>2025-11-05T22:17:45.215Z</time>
      </trkpt>
      <trkpt lat="51.885059" lon="8.505612">
        <ele>91.732362</ele>
        <time>2025-11-05T22:17:58.356Z</time>
      </trkpt>
      <trkpt lat="51.885053" lon="8.505411">
        <ele>91.740070</ele>
        <time>2025-11-05T22:18:00.959Z</time>
      </trkpt>
      <trkpt lat="51.885049" lon="8.505356">
        <ele>91.742191</ele>
        <time>2025-11-05T22:18:03.359Z</time>
      </trkpt>
      <trkpt lat="51.885015" lon="8.504945">
        <ele>91.758074</ele>
        <time>2025-11-05T22:18:10.431Z</time>
      </trkpt>
      <trkpt lat="51.884941" lon="8.503818">
        <ele>91.801485</ele>
        <time>2025-11-05T22:18:29.902Z</time>
      </trkpt>
      <trkpt lat="51.884930" lon="8.503643">
        <ele>91.808223</ele>
        <time>2025-11-05T22:18:32.926Z</time>
      </trkpt>
      <trkpt lat="51.884885" lon="8.502909">
        <ele>91.781546</ele>
        <time>2025-11-05T22:18:45.615Z</time>
      </trkpt>
      <trkpt lat="51.884842" lon="8.502221">
        <ele>91.503323</ele>
        <time>2025-11-05T22:18:57.260Z</time>
      </trkpt>
      <trkpt lat="51.884837" lon="8.502142">
        <ele>91.471372</ele>
        <time>2025-11-05T22:18:58.564Z</time>
      </trkpt>
      <trkpt lat="51.884818" lon="8.501802">
        <ele>91.334018</ele>
        <time>2025-11-05T22:19:04.159Z</time>
      </trkpt>
      <trkpt lat="51.884785" lon="8.501198">
        <ele>91.090057</ele>
        <time>2025-11-05T22:19:14.003Z</time>
      </trkpt>
      <trkpt lat="51.884800" lon="8.500344">
        <ele>90.746322</ele>
        <time>2025-11-05T22:19:24.168Z</time>
      </trkpt>
      <trkpt lat="51.884843" lon="8.499940">
        <ele>90.588533</ele>
        <time>2025-11-05T22:19:28.949Z</time>
      </trkpt>
      <trkpt lat="51.884938" lon="8.499330">
        <ele>90.358655</ele>
        <time>2025-11-05T22:19:36.413Z</time>
      </trkpt>
      <trkpt lat="51.884901" lon="8.499307">
        <ele>90.335195</ele>
        <time>2025-11-05T22:19:37.228Z</time>
      </trkpt>
      <trkpt lat="51.885021" lon="8.498138">
        <ele>89.902179</ele>
        <time>2025-11-05T22:19:53.634Z</time>
      </trkpt>
      <trkpt lat="51.885160" lon="8.496760">
        <ele>89.605198</ele>
        <time>2025-11-05T22:20:13.623Z</time>
      </trkpt>
      <trkpt lat="51.885316" lon="8.495259">
        <ele>89.634489</ele>
        <time>2025-11-05T22:20:35.941Z</time>
      </trkpt>
      <trkpt lat="51.885419" lon="8.495268">
        <ele>89.637704</ele>
        <time>2025-11-05T22:20:38.411Z</time>
      </trkpt>
      <trkpt lat="51.885445" lon="8.495240">
        <ele>89.638678</ele>
        <time>2025-11-05T22:20:39.139Z</time>
      </trkpt>
      <trkpt lat="51.885891" lon="8.492066">
        <ele>89.114716</ele>
        <time>2025-11-05T22:21:25.218Z</time>
      </trkpt>
      <trkpt lat="51.885909" lon="8.491798">
        <ele>89.059898</ele>
        <time>2025-11-05T22:21:28.932Z</time>
      </trkpt>
      <trkpt lat="51.885939" lon="8.491724">
        <ele>89.035775</ele>
        <time>2025-11-05T22:21:30.155Z</time>
      </trkpt>
      <trkpt lat="51.886159" lon="8.491545">
        <ele>88.923932</ele>
        <time>2025-11-05T22:21:35.672Z</time>
      </trkpt>
      <trkpt lat="51.886487" lon="8.491153">
        <ele>88.738764</ele>
        <time>2025-11-05T22:21:44.791Z</time>
      </trkpt>
      <trkpt lat="51.886823" lon="8.490387">
        <ele>88.475257</ele>
        <time>2025-11-05T22:21:57.851Z</time>
      </trkpt>
      <trkpt lat="51.887272" lon="8.489260">
        <ele>88.159726</ele>
        <time>2025-11-05T22:22:16.750Z</time>
      </trkpt>
      <trkpt lat="51.887262" lon="8.489240">
        <ele>88.155594</ele>
        <time>2025-11-05T22:22:17.124Z</time>
      </trkpt>
      <trkpt lat="51.887241" lon="8.489194">
        <ele>88.146408</ele>
        <time>2025-11-05T22:22:17.874Z</time>
      </trkpt>
      <trkpt lat="51.886877" lon="8.488415">
        <ele>87.989537</ele>
        <time>2025-11-05T22:22:31.773Z</time>
      </trkpt>
      <trkpt lat="51.886189" lon="8.486402">
        <ele>87.722279</ele>
        <time>2025-11-05T22:23:04.360Z</time>
      </trkpt>
      <trkpt lat="51.886175" lon="8.486214">
        <ele>87.712189</ele>
        <time>2025-11-05T22:23:07.067Z</time>
      </trkpt>
      <trkpt lat="51.886219" lon="8.486067">
        <ele>87.703485</ele>
        <time>2025-11-05T22:23:09.387Z</time>
      </trkpt>
      <trkpt lat="51.886294" lon="8.485987">
        <ele>87.695733</ele>
        <time>2025-11-05T22:23:12.511Z</time>
      </trkpt>
      <trkpt lat="51.886362" lon="8.485848">
        <ele>87.686283</ele>
        <time>2025-11-05T22:23:15.056Z</time>
      </trkpt>
      <trkpt lat="51.886447" lon="8.485870">
        <ele>87.678852</ele>
        <time>2025-11-05T22:23:17.037Z</time>
      </trkpt>
      <trkpt lat="51.887317" lon="8.485690">
        <ele>87.635690</ele>
        <time>2025-11-05T22:23:37.656Z</time>
      </trkpt>
      <trkpt lat="51.887567" lon="8.485615">
        <ele>87.662591</ele>
        <time>2025-11-05T22:23:43.730Z</time>
      </trkpt>
      <trkpt lat="51.887649" lon="8.485496">
        <ele>87.674239</ele>
        <time>2025-11-05T22:23:46.355Z</time>
      </trkpt>
      <trkpt lat="51.887712" lon="8.485295">
        <ele>87.688960</ele>
        <time>2025-11-05T22:23:49.646Z</time>
      </trkpt>
      <trkpt lat="51.887822" lon="8.485077">
        <ele>87.707348</ele>
        <time>2025-11-05T22:23:53.736Z</time>
      </trkpt>
      <trkpt lat="51.888078" lon="8.484864">
        <ele>87.737797</ele>
        <time>2025-11-05T22:24:00.507Z</time>
      </trkpt>
      <trkpt lat="51.888089" lon="8.484766">
        <ele>87.744302</ele>
        <time>2025-11-05T22:24:02.637Z</time>
      </trkpt>
      <trkpt lat="51.888267" lon="8.484455">
        <ele>87.771999</ele>
        <time>2025-11-05T22:24:11.693Z</time>
      </trkpt>
      <trkpt lat="51.888338" lon="8.484381">
        <ele>87.780931</ele>
        <time>2025-11-05T22:24:14.611Z</time>
      </trkpt>
      <trkpt lat="51.888526" lon="8.484186">
        <ele>87.804550</ele>
        <time>2025-11-05T22:24:22.307Z</time>
      </trkpt>
      <trkpt lat="51.888691" lon="8.484182">
        <ele>87.785749</ele>
        <time>2025-11-05T22:24:28.008Z</time>
      </trkpt>
      <trkpt lat="51.888878" lon="8.484127">
        <ele>87.753547</ele>
        <time>2025-11-05T22:24:32.427Z</time>
      </trkpt>
      <trkpt lat="51.888900" lon="8.484063">
        <ele>87.745886</ele>
        <time>2025-11-05T22:24:33.468Z</time>
      </trkpt>
      <trkpt lat="51.889270" lon="8.483246">
        <ele>87.639917</ele>
        <time>2025-11-05T22:24:46.403Z</time>
      </trkpt>
      <trkpt lat="51.889313" lon="8.483153">
        <ele>87.627766</ele>
        <time>2025-11-05T22:24:47.898Z</time>
      </trkpt>
      <trkpt lat="51.889502" lon="8.482745">
        <ele>87.574420</ele>
        <time>2025-11-05T22:24:54.494Z</time>
      </trkpt>
      <trkpt lat="51.889758" lon="8.482190">
        <ele>87.502102</ele>
        <time>2025-11-05T22:25:03.255Z</time>
      </trkpt>
      <trkpt lat="51.889836" lon="8.482281">
        <ele>87.487469</ele>
        <time>2025-11-05T22:25:05.209Z</time>
      </trkpt>
      <trkpt lat="51.890045" lon="8.482895">
        <ele>87.421583</ele>
        <time>2025-11-05T22:25:13.987Z</time>
      </trkpt>
      <trkpt lat="51.890232" lon="8.483416">
        <ele>87.364953</ele>
        <time>2025-11-05T22:25:21.625Z</time>
      </trkpt>
      <trkpt lat="51.890176" lon="8.483533">
        <ele>87.351041</ele>
        <time>2025-11-05T22:25:23.530Z</time>
      </trkpt>
      <trkpt lat="51.890160" lon="8.483652">
        <ele>87.339597</ele>
        <time>2025-11-05T22:25:25.100Z</time>
      </trkpt>
      <trkpt lat="51.889996" lon="8.483977">
        <ele>87.300151</ele>
        <time>2025-11-05T22:25:30.518Z</time>
      </trkpt>
      <trkpt lat="51.889976" lon="8.484081">
        <ele>87.289916</ele>
        <time>2025-11-05T22:25:31.930Z</time>
      </trkpt>
      <trkpt lat="51.889677" lon="8.484742">
        <ele>87.251683</ele>
        <time>2025-11-05T22:25:42.570Z</time>
      </trkpt>
      <trkpt lat="51.889555" lon="8.485147">
        <ele>87.308408</ele>
        <time>2025-11-05T22:25:48.579Z</time>
      </trkpt>
      <trkpt lat="51.889486" lon="8.485551">
        <ele>87.361171</ele>
        <time>2025-11-05T22:25:54.200Z</time>
      </trkpt>
      <trkpt lat="51.889474" lon="8.485906">
        <ele>87.405922</ele>
        <time>2025-11-05T22:25:58.966Z</time>
      </trkpt>
      <trkpt lat="51.889436" lon="8.486189">
        <ele>87.442376</ele>
        <time>2025-11-05T22:26:02.841Z</time>
      </trkpt>
      <trkpt lat="51.889715" lon="8.488622">
        <ele>87.680973</ele>
        <time>2025-11-05T22:26:35.446Z</time>
      </trkpt>
      <trkpt lat="51.889860" lon="8.489936">
        <ele>87.771263</ele>
        <time>2025-11-05T22:26:52.979Z</time>
      </trkpt>
      <trkpt lat="51.889900" lon="8.490295">
        <ele>87.797159</ele>
        <time>2025-11-05T22:26:57.730Z</time>
      </trkpt>
      <trkpt lat="51.889993" lon="8.491135">
        <ele>87.883010</ele>
        <time>2025-11-05T22:27:08.868Z</time>
      </trkpt>
      <trkpt lat="51.890115" lon="8.492239">
        <ele>87.995835</ele>
        <time>2025-11-05T22:27:23.778Z</time>
      </trkpt>
      <trkpt lat="51.890274" lon="8.493976">
        <ele>88.135799</ele>
        <time>2025-11-05T22:27:47.029Z</time>
      </trkpt>
      <trkpt lat="51.890373" lon="8.495071">
        <ele>88.199571</ele>
        <time>2025-11-05T22:28:01.300Z</time>
      </trkpt>
      <trkpt lat="51.890499" lon="8.496361">
        <ele>88.343164</ele>
        <time>2025-11-05T22:28:18.600Z</time>
      </trkpt>
      <trkpt lat="51.890556" lon="8.497174">
        <ele>88.549114</ele>
        <time>2025-11-05T22:28:29.529Z</time>
      </trkpt>
      <trkpt lat="51.890623" lon="8.498795">
        <ele>88.958037</ele>
        <time>2025-11-05T22:28:51.646Z</time>
      </trkpt>
      <trkpt lat="51.890737" lon="8.500879">
        <ele>89.164554</ele>
        <time>2025-11-05T22:29:19.062Z</time>
      </trkpt>
      <trkpt lat="51.890722" lon="8.501113">
        <ele>89.185598</ele>
        <time>2025-11-05T22:29:22.127Z</time>
      </trkpt>
      <trkpt lat="51.890538" lon="8.502136">
        <ele>89.335706</ele>
        <time>2025-11-05T22:29:36.115Z</time>
      </trkpt>
      <trkpt lat="51.890452" lon="8.502560">
        <ele>89.443711</ele>
        <time>2025-11-05T22:29:42.053Z</time>
      </trkpt>
      <trkpt lat="51.890415" lon="8.502897">
        <ele>89.526544</ele>
        <time>2025-11-05T22:29:46.629Z</time>
      </trkpt>
      <trkpt lat="51.890162" lon="8.504314">
        <ele>89.883516</ele>
        <time>2025-11-05T22:30:17.930Z</time>
      </trkpt>
      <trkpt lat="51.890039" lon="8.505002">
        <ele>90.086845</ele>
        <time>2025-11-05T22:30:33.079Z</time>
      </trkpt>
      <trkpt lat="51.889947" lon="8.505368">
        <ele>90.210378</ele>
        <time>2025-11-05T22:30:41.440Z</time>
      </trkpt>
      <trkpt lat="51.889821" lon="8.505742">
        <ele>90.343571</ele>
        <time>2025-11-05T22:30:50.462Z</time>
      </trkpt>
      <trkpt lat="51.889044" lon="8.507704">
        <ele>90.868232</ele>
        <time>2025-11-05T22:31:39.957Z</time>
      </trkpt>
      <trkpt lat="51.888872" lon="8.508083">
        <ele>90.870504</ele>
        <time>2025-11-05T22:31:49.990Z</time>
      </trkpt>
      <trkpt lat="51.888219" lon="8.508126">
        <ele>90.875619</ele>
        <time>2025-11-05T22:32:03.359Z</time>
      </trkpt>
      <trkpt lat="51.888103" lon="8.508175">
        <ele>90.876557</ele>
        <time>2025-11-05T22:32:05.804Z</time>
      </trkpt>
      <trkpt lat="51.887958" lon="8.508336">
        <ele>90.877933</ele>
        <time>2025-11-05T22:32:09.410Z</time>
      </trkpt>
      <trkpt lat="51.887657" lon="8.508546">
        <ele>90.926636</ele>
        <time>2025-11-05T22:32:16.348Z</time>
      </trkpt>
      <trkpt lat="51.887306" lon="8.508928">
        <ele>91.039657</ele>
        <time>2025-11-05T22:32:25.474Z</time>
      </trkpt>
      <trkpt lat="51.887195" lon="8.509104">
        <ele>91.081171</ele>
        <time>2025-11-05T22:32:28.838Z</time>
      </trkpt>
      <trkpt lat="51.887108" lon="8.509235">
        <ele>91.112918</ele>
        <time>2025-11-05T22:32:31.416Z</time>
      </trkpt>
      <trkpt lat="51.886999" lon="8.509362">
        <ele>91.148805</ele>
        <time>2025-11-05T22:32:34.345Z</time>
      </trkpt>
      <trkpt lat="51.886866" lon="8.509617">
        <ele>91.203883</ele>
        <time>2025-11-05T22:32:38.838Z</time>
      </trkpt>
      <trkpt lat="51.886754" lon="8.509896">
        <ele>91.258791</ele>
        <time>2025-11-05T22:32:43.355Z</time>
      </trkpt>
      <trkpt lat="51.886603" lon="8.510381">
        <ele>91.348410</ele>
        <time>2025-11-05T22:32:50.752Z</time>
      </trkpt>
      <trkpt lat="51.886477" lon="8.511000">
        <ele>91.388194</ele>
        <time>2025-11-05T22:32:59.515Z</time>
      </trkpt>
      <trkpt lat="51.886317" lon="8.512182">
        <ele>91.447044</ele>
        <time>2025-11-05T22:33:15.135Z</time>
      </trkpt>
      <trkpt lat="51.886221" lon="8.512702">
        <ele>91.473441</ele>
        <time>2025-11-05T22:33:22.125Z</time>
      </trkpt>
      <trkpt lat="51.886083" lon="8.513201">
        <ele>91.500033</ele>
        <time>2025-11-05T22:33:29.263Z</time>
      </trkpt>
      <trkpt lat="51.885772" lon="8.514006">
        <ele>91.486490</ele>
        <time>2025-11-05T22:33:41.552Z</time>
      </trkpt>
      <trkpt lat="51.885674" lon="8.514128">
        <ele>91.483194</ele>
        <time>2025-11-05T22:33:44.148Z</time>
      </trkpt>
      <trkpt lat="51.885499" lon="8.514079">
        <ele>91.478457</ele>
        <time>2025-11-05T22:33:47.885Z</time>
      </trkpt>
      <trkpt lat="51.885457" lon="8.514119">
        <ele>91.477157</ele>
        <time>2025-11-05T22:33:48.897Z</time>
      </trkpt>
      <trkpt lat="51.885417" lon="8.514169">
        <ele>91.475810</ele>
        <time>2025-11-05T22:33:49.943Z</time>
      </trkpt>
      <trkpt lat="51.885365" lon="8.514215">
        <ele>91.474229</ele>
        <time>2025-11-05T22:33:51.219Z</time>
      </trkpt>
      <trkpt lat="51.885367" lon="8.514670">
        <ele>91.466738</ele>
        <time>2025-11-05T22:33:57.117Z</time>
      </trkpt>
      <trkpt lat="51.885286" lon="8.514841">
        <ele>91.463190</ele>
        <time>2025-11-05T22:33:59.894Z</time>
      </trkpt>
      <trkpt lat="51.884754" lon="8.515626">
        <ele>91.507206</ele>
        <time>2025-11-05T22:34:15.025Z</time>
      </trkpt>
      <trkpt lat="51.884534" lon="8.516017">
        <ele>91.555700</ele>
        <time>2025-11-05T22:34:21.878Z</time>
      </trkpt>
      <trkpt lat="51.884340" lon="8.516490">
        <ele>91.607754</ele>
        <time>2025-11-05T22:34:29.380Z</time>
      </trkpt>
      <trkpt lat="51.883965" lon="8.517707">
        <ele>91.757600</ele>
        <time>2025-11-05T22:34:47.487Z</time>
      </trkpt>
      <trkpt lat="51.883840" lon="8.518019">
        <ele>91.864927</ele>
        <time>2025-11-05T22:34:52.469Z</time>
      </trkpt>
      <trkpt lat="51.883555" lon="8.518537">
        <ele>92.065151</ele>
        <time>2025-11-05T22:35:01.795Z</time>
      </trkpt>
      <trkpt lat="51.883387" lon="8.518787">
        <ele>92.171788</ele>
        <time>2025-11-05T22:35:06.799Z</time>
      </trkpt>
      <trkpt lat="51.883140" lon="8.519055">
        <ele>92.310755</ele>
        <time>2025-11-05T22:35:13.376Z</time>
      </trkpt>
      <trkpt lat="51.882869" lon="8.519275">
        <ele>92.452453</ele>
        <time>2025-11-05T22:35:20.075Z</time>
      </trkpt>
      <trkpt lat="51.882202" lon="8.519695">
        <ele>92.677386</ele>
        <time>2025-11-05T22:35:35.791Z</time>
      </trkpt>
      <trkpt lat="51.881887" lon="8.519940">
        <ele>92.761333</ele>
        <time>2025-11-05T22:35:43.301Z</time>
      </trkpt>
      <trkpt lat="51.881595" lon="8.520257">
        <ele>92.845779</ele>
        <time>2025-11-05T22:35:50.819Z</time>
      </trkpt>
      <trkpt lat="51.881502" lon="8.520282">
        <ele>92.868427</ele>
        <time>2025-11-05T22:35:52.824Z</time>
      </trkpt>
      <trkpt lat="51.881584" lon="8.520448">
        <ele>92.899957</ele>
        <time>2025-11-05T22:35:55.605Z</time>
      </trkpt>
      <trkpt lat="51.881507" lon="8.520553">
        <ele>92.924137</ele>
        <time>2025-11-05T22:35:57.763Z</time>
      </trkpt>
      <trkpt lat="51.881589" lon="8.520719">
        <ele>92.955667</ele>
        <time>2025-11-05T22:36:00.545Z</time>
      </trkpt>
      <trkpt lat="51.881630" lon="8.520859">
        <ele>92.978647</ele>
        <time>2025-11-05T22:36:02.565Z</time>
      </trkpt>
      <trkpt lat="51.881702" lon="8.521406">
        <ele>93.024054</ele>
        <time>2025-11-05T22:36:09.864Z</time>
      </trkpt>
      <trkpt lat="51.881738" lon="8.521491">
        <ele>93.030898</ele>
        <time>2025-11-05T22:36:11.218Z</time>
      </trkpt>
      <trkpt lat="51.881871" lon="8.521575">
        <ele>93.046251</ele>
        <time>2025-11-05T22:36:14.247Z</time>
      </trkpt>
      <trkpt lat="51.882343" lon="8.521474">
        <ele>93.097459</ele>
        <time>2025-11-05T22:36:24.281Z</time>
      </trkpt>
      <trkpt lat="51.882513" lon="8.522855">
        <ele>93.198676</ele>
        <time>2025-11-05T22:36:42.806Z</time>
      </trkpt>
      <trkpt lat="51.882566" lon="8.523766">
        <ele>93.380692</ele>
        <time>2025-11-05T22:36:54.980Z</time>
      </trkpt>
      <trkpt lat="51.882675" lon="8.526447">
        <ele>93.729984</ele>
        <time>2025-11-05T22:37:31.102Z</time>
      </trkpt>
      <trkpt lat="51.882707" lon="8.527509">
        <ele>93.677684</ele>
        <time>2025-11-05T22:37:44.603Z</time>
      </trkpt>
      <trkpt lat="51.882720" lon="8.527862">
        <ele>93.660290</ele>
        <time>2025-11-05T22:37:49.043Z</time>
      </trkpt>
      <trkpt lat="51.882752" lon="8.528558">
        <ele>93.625960</ele>
        <time>2025-11-05T22:37:57.831Z</time>
      </trkpt>
      <trkpt lat="51.882736" lon="8.528760">
        <ele>93.639080</ele>
        <time>2025-11-05T22:38:00.417Z</time>
      </trkpt>
      <trkpt lat="51.882649" lon="8.529016">
        <ele>93.669510</ele>
        <time>2025-11-05T22:38:04.131Z</time>
      </trkpt>
      <trkpt lat="51.881622" lon="8.530819">
        <ele>93.924972</ele>
        <time>2025-11-05T22:38:36.874Z</time>
      </trkpt>
      <trkpt lat="51.881481" lon="8.531292">
        <ele>94.079057</ele>
        <time>2025-11-05T22:38:43.898Z</time>
      </trkpt>
      <trkpt lat="51.881285" lon="8.532688">
        <ele>94.508275</ele>
        <time>2025-11-05T22:39:03.106Z</time>
      </trkpt>
      <trkpt lat="51.881067" lon="8.534148">
        <ele>95.073336</ele>
        <time>2025-11-05T22:39:23.611Z</time>
      </trkpt>
      <trkpt lat="51.880935" lon="8.535026">
        <ele>95.540630</ele>
        <time>2025-11-05T22:39:36.068Z</time>
      </trkpt>
      <trkpt lat="51.880750" lon="8.537027">
        <ele>96.756732</ele>
        <time>2025-11-05T22:40:04.095Z</time>
      </trkpt>
      <trkpt lat="51.880643" lon="8.537527">
        <ele>97.196445</ele>
        <time>2025-11-05T22:40:11.518Z</time>
      </trkpt>
      <trkpt lat="51.880296" lon="8.538680">
        <ele>98.262285</ele>
        <time>2025-11-05T22:40:29.721Z</time>
      </trkpt>
      <trkpt lat="51.880186" lon="8.539068">
        <ele>98.617056</ele>
        <time>2025-11-05T22:40:35.807Z</time>
      </trkpt>
      <trkpt lat="51.880107" lon="8.539454">
        <ele>98.856159</ele>
        <time>2025-11-05T22:40:41.583Z</time>
      </trkpt>
      <trkpt lat="51.880021" lon="8.540300">
        <ele>99.258292</ele>
        <time>2025-11-05T22:40:53.711Z</time>
      </trkpt>
      <trkpt lat="51.879952" lon="8.541078">
        <ele>99.626935</ele>
        <time>2025-11-05T22:41:04.617Z</time>
      </trkpt>
      <trkpt lat="51.879949" lon="8.541429">
        <ele>99.791576</ele>
        <time>2025-11-05T22:41:09.315Z</time>
      </trkpt>
      <trkpt lat="51.879998" lon="8.542011">
        <ele>100.067072</ele>
        <time>2025-11-05T22:41:16.852Z</time>
      </trkpt>
      <trkpt lat="51.880048" lon="8.542270">
        <ele>100.035211</ele>
        <time>2025-11-05T22:41:20.224Z</time>
      </trkpt>
      <trkpt lat="51.880198" lon="8.542832">
        <ele>99.863854</ele>
        <time>2025-11-05T22:41:27.718Z</time>
      </trkpt>
      <trkpt lat="51.880281" lon="8.543157">
        <ele>99.765422</ele>
        <time>2025-11-05T22:41:31.969Z</time>
      </trkpt>
      <trkpt lat="51.880325" lon="8.543328">
        <ele>99.713574</ele>
        <time>2025-11-05T22:41:34.207Z</time>
      </trkpt>
      <trkpt lat="51.880433" lon="8.543870">
        <ele>99.554180</ele>
        <time>2025-11-05T22:41:41.136Z</time>
      </trkpt>
      <trkpt lat="51.880531" lon="8.544568">
        <ele>99.353846</ele>
        <time>2025-11-05T22:41:50.037Z</time>
      </trkpt>
      <trkpt lat="51.880600" lon="8.545290">
        <ele>99.504319</ele>
        <time>2025-11-05T22:41:59.563Z</time>
      </trkpt>
      <trkpt lat="51.880626" lon="8.545953">
        <ele>99.826559</ele>
        <time>2025-11-05T22:42:08.684Z</time>
      </trkpt>
      <trkpt lat="51.880565" lon="8.546247">
        <ele>99.977006</ele>
        <time>2025-11-05T22:42:12.976Z</time>
      </trkpt>
      <trkpt lat="51.880240" lon="8.546764">
        <ele>100.334922</ele>
        <time>2025-11-05T22:42:23.625Z</time>
      </trkpt>
      <trkpt lat="51.880116" lon="8.546993">
        <ele>100.482680</ele>
        <time>2025-11-05T22:42:28.063Z</time>
      </trkpt>
      <trkpt lat="51.879987" lon="8.547268">
        <ele>100.650215</ele>
        <time>2025-11-05T22:42:33.058Z</time>
      </trkpt>
      <trkpt lat="51.879902" lon="8.547538">
        <ele>100.768735</ele>
        <time>2025-11-05T22:42:37.434Z</time>
      </trkpt>
      <trkpt lat="51.879879" lon="8.548752">
        <ele>101.197501</ele>
        <time>2025-11-05T22:42:54.822Z</time>
      </trkpt>
      <trkpt lat="51.879869" lon="8.549991">
        <ele>101.634928</ele>
        <time>2025-11-05T22:43:12.086Z</time>
      </trkpt>
      <trkpt lat="51.879821" lon="8.550349">
        <ele>101.663276</ele>
        <time>2025-11-05T22:43:16.982Z</time>
      </trkpt>
      <trkpt lat="51.879808" lon="8.550394">
        <ele>101.639741</ele>
        <time>2025-11-05T22:43:17.654Z</time>
      </trkpt>
      <trkpt lat="51.879733" lon="8.550650">
        <ele>101.505513</ele>
        <time>2025-11-05T22:43:21.341Z</time>
      </trkpt>
      <trkpt lat="51.879497" lon="8.551183">
        <ele>101.194806</ele>
        <time>2025-11-05T22:43:29.767Z</time>
      </trkpt>
      <trkpt lat="51.879399" lon="8.551286">
        <ele>101.105165</ele>
        <time>2025-11-05T22:43:32.192Z</time>
      </trkpt>
      <trkpt lat="51.879350" lon="8.551320">
        <ele>101.064261</ele>
        <time>2025-11-05T22:43:33.226Z</time>
      </trkpt>
      <trkpt lat="51.879392" lon="8.551457">
        <ele>100.991803</ele>
        <time>2025-11-05T22:43:35.074Z</time>
      </trkpt>
      <trkpt lat="51.879526" lon="8.551987">
        <ele>100.720506</ele>
        <time>2025-11-05T22:43:41.940Z</time>
      </trkpt>
      <trkpt lat="51.880052" lon="8.554077">
        <ele>99.474509</ele>
        <time>2025-11-05T22:44:08.296Z</time>
      </trkpt>
      <trkpt lat="51.880307" lon="8.555061">
        <ele>98.839339</ele>
        <time>2025-11-05T22:44:21.243Z</time>
      </trkpt>
      <trkpt lat="51.880536" lon="8.555996">
        <ele>98.568356</ele>
        <time>2025-11-05T22:44:33.750Z</time>
      </trkpt>
      <trkpt lat="51.880941" lon="8.557635">
        <ele>98.458046</ele>
        <time>2025-11-05T22:44:56.682Z</time>
      </trkpt>
      <trkpt lat="51.881087" lon="8.558303">
        <ele>98.463413</ele>
        <time>2025-11-05T22:45:11.795Z</time>
      </trkpt>
      <trkpt lat="51.881887" lon="8.563058">
        <ele>99.557148</ele>
        <time>2025-11-05T22:46:56.555Z</time>
      </trkpt>
      <trkpt lat="51.882354" lon="8.565837">
        <ele>100.060937</ele>
        <time>2025-11-05T22:47:57.867Z</time>
      </trkpt>
      <trkpt lat="51.882618" lon="8.567432">
        <ele>100.370848</ele>
        <time>2025-11-05T22:48:33.097Z</time>
      </trkpt>
      <trkpt lat="51.882721" lon="8.567893">
        <ele>100.474979</ele>
        <time>2025-11-05T22:48:43.550Z</time>
      </trkpt>
      <trkpt lat="51.882849" lon="8.568680">
        <ele>100.647840</ele>
        <time>2025-11-05T22:49:00.861Z</time>
      </trkpt>
      <trkpt lat="51.882847" lon="8.568768">
        <ele>100.666544</ele>
        <time>2025-11-05T22:49:02.738Z</time>
      </trkpt>
      <trkpt lat="51.883392" lon="8.572116">
        <ele>102.094760</ele>
        <time>2025-11-05T22:50:15.935Z</time>
      </trkpt>
      <trkpt lat="51.883709" lon="8.575199">
        <ele>103.978615</ele>
        <time>2025-11-05T22:51:21.444Z</time>
      </trkpt>
      <trkpt lat="51.883822" lon="8.576199">
        <ele>104.384370</ele>
        <time>2025-11-05T22:51:35.323Z</time>
      </trkpt>
      <trkpt lat="51.884046" lon="8.578458">
        <ele>105.371042</ele>
        <time>2025-11-05T22:52:06.180Z</time>
      </trkpt>
      <trkpt lat="51.884201" lon="8.580020">
        <ele>106.224698</ele>
        <time>2025-11-05T22:52:28.154Z</time>
      </trkpt>
      <trkpt lat="51.884475" lon="8.582766">
        <ele>107.399932</ele>
        <time>2025-11-05T22:53:06.748Z</time>
      </trkpt>
      <trkpt lat="51.884513" lon="8.582832">
        <ele>107.433733</ele>
        <time>2025-11-05T22:53:07.964Z</time>
      </trkpt>
      <trkpt lat="51.884555" lon="8.583247">
        <ele>107.591228</ele>
        <time>2025-11-05T22:53:13.578Z</time>
      </trkpt>
      <trkpt lat="51.884587" lon="8.583668">
        <ele>107.750085</ele>
        <time>2025-11-05T22:53:19.110Z</time>
      </trkpt>
      <trkpt lat="51.884573" lon="8.583832">
        <ele>107.687063</ele>
        <time>2025-11-05T22:53:21.220Z</time>
      </trkpt>
      <trkpt lat="51.884510" lon="8.583903">
        <ele>107.636216</ele>
        <time>2025-11-05T22:53:22.807Z</time>
      </trkpt>
      <trkpt lat="51.884495" lon="8.584020">
        <ele>107.587346</ele>
        <time>2025-11-05T22:53:24.308Z</time>
      </trkpt>
      <trkpt lat="51.884473" lon="8.584170">
        <ele>107.524293</ele>
        <time>2025-11-05T22:53:26.240Z</time>
      </trkpt>
      <trkpt lat="51.884063" lon="8.584030">
        <ele>107.246677</ele>
        <time>2025-11-05T22:53:34.587Z</time>
      </trkpt>
      <trkpt lat="51.883830" lon="8.584036">
        <ele>107.092282</ele>
        <time>2025-11-05T22:53:39.160Z</time>
      </trkpt>
      <trkpt lat="51.883386" lon="8.584143">
        <ele>106.794869</ele>
        <time>2025-11-05T22:53:47.919Z</time>
      </trkpt>
      <trkpt lat="51.880491" lon="8.585010">
        <ele>104.183411</ele>
        <time>2025-11-05T22:54:44.938Z</time>
      </trkpt>
      <trkpt lat="51.877403" lon="8.585948">
        <ele>102.199344</ele>
        <time>2025-11-05T22:55:47.900Z</time>
      </trkpt>
      <trkpt lat="51.877375" lon="8.586010">
        <ele>102.174907</ele>
        <time>2025-11-05T22:55:48.857Z</time>
      </trkpt>
      <trkpt lat="51.877174" lon="8.586128">
        <ele>102.064740</ele>
        <time>2025-11-05T22:55:53.084Z</time>
      </trkpt>
      <trkpt lat="51.877011" lon="8.586085">
        <ele>101.979641</ele>
        <time>2025-11-05T22:55:56.357Z</time>
      </trkpt>
      <trkpt lat="51.876831" lon="8.586148">
        <ele>101.884748</ele>
        <time>2025-11-05T22:56:00.034Z</time>
      </trkpt>
      <trkpt lat="51.876742" lon="8.586144">
        <ele>101.838869</ele>
        <time>2025-11-05T22:56:01.809Z</time>
      </trkpt>
      <trkpt lat="51.876323" lon="8.586253">
        <ele>101.620195</ele>
        <time>2025-11-05T22:56:10.349Z</time>
      </trkpt>
      <trkpt lat="51.876118" lon="8.586272">
        <ele>101.514387</ele>
        <time>2025-11-05T22:56:14.500Z</time>
      </trkpt>
      <trkpt lat="51.875191" lon="8.586179">
        <ele>101.587074</ele>
        <time>2025-11-05T22:56:33.972Z</time>
      </trkpt>
      <trkpt lat="51.875296" lon="8.586600">
        <ele>101.636819</ele>
        <time>2025-11-05T22:56:40.050Z</time>
      </trkpt>
      <trkpt lat="51.875656" lon="8.587800">
        <ele>101.826592</ele>
        <time>2025-11-05T22:56:58.084Z</time>
      </trkpt>
      <trkpt lat="51.875842" lon="8.588602">
        <ele>102.148471</ele>
        <time>2025-11-05T22:57:09.715Z</time>
      </trkpt>
      <trkpt lat="51.876076" lon="8.589503">
        <ele>102.515717</ele>
        <time>2025-11-05T22:57:22.971Z</time>
      </trkpt>
      <trkpt lat="51.876392" lon="8.590861">
        <ele>103.135377</ele>
        <time>2025-11-05T22:57:42.912Z</time>
      </trkpt>
      <trkpt lat="51.876686" lon="8.592051">
        <ele>103.794918</ele>
        <time>2025-11-05T22:58:00.624Z</time>
      </trkpt>
      <trkpt lat="51.876831" lon="8.592490">
        <ele>104.051108</ele>
        <time>2025-11-05T22:58:07.546Z</time>
      </trkpt>
      <trkpt lat="51.876871" lon="8.592619">
        <ele>104.125389</ele>
        <time>2025-11-05T22:58:09.546Z</time>
      </trkpt>
      <trkpt lat="51.877562" lon="8.594693">
        <ele>105.190570</ele>
        <time>2025-11-05T22:58:41.819Z</time>
      </trkpt>
      <trkpt lat="51.877661" lon="8.596039">
        <ele>105.754034</ele>
        <time>2025-11-05T22:59:00.387Z</time>
      </trkpt>
      <trkpt lat="51.877696" lon="8.596860">
        <ele>106.044652</ele>
        <time>2025-11-05T22:59:11.584Z</time>
      </trkpt>
      <trkpt lat="51.877716" lon="8.597330">
        <ele>106.211022</ele>
        <time>2025-11-05T22:59:17.969Z</time>
      </trkpt>
      <trkpt lat="51.877775" lon="8.597661">
        <ele>106.332686</ele>
        <time>2025-11-05T22:59:22.634Z</time>
      </trkpt>
      <trkpt lat="51.877823" lon="8.597819">
        <ele>106.394872</ele>
        <time>2025-11-05T22:59:25.023Z</time>
      </trkpt>
      <trkpt lat="51.877975" lon="8.598261">
        <ele>106.573543</ele>
        <time>2025-11-05T22:59:31.878Z</time>
      </trkpt>
      <trkpt lat="51.878394" lon="8.599512">
        <ele>107.043403</ele>
        <time>2025-11-05T22:59:51.111Z</time>
      </trkpt>
      <trkpt lat="51.878558" lon="8.599993">
        <ele>107.222141</ele>
        <time>2025-11-05T22:59:58.592Z</time>
      </trkpt>
      <trkpt lat="51.879025" lon="8.601371">
        <ele>107.673444</ele>
        <time>2025-11-05T23:00:19.989Z</time>
      </trkpt>
      <trkpt lat="51.879431" lon="8.602496">
        <ele>107.893315</ele>
        <time>2025-11-05T23:00:37.313Z</time>
      </trkpt>
      <trkpt lat="51.879799" lon="8.603654">
        <ele>108.100177</ele>
        <time>2025-11-05T23:00:54.409Z</time>
      </trkpt>
      <trkpt lat="51.879811" lon="8.603708">
        <ele>108.100050</ele>
        <time>2025-11-05T23:00:55.171Z</time>
      </trkpt>
      <trkpt lat="51.879978" lon="8.604445">
        <ele>108.098308</ele>
        <time>2025-11-05T23:01:05.557Z</time>
      </trkpt>
      <trkpt lat="51.880124" lon="8.605085">
        <ele>108.096794</ele>
        <time>2025-11-05T23:01:14.521Z</time>
      </trkpt>
      <trkpt lat="51.880183" lon="8.605332">
        <ele>108.096206</ele>
        <time>2025-11-05T23:01:17.982Z</time>
      </trkpt>
      <trkpt lat="51.880263" lon="8.605667">
        <ele>108.095410</ele>
        <time>2025-11-05T23:01:22.591Z</time>
      </trkpt>
      <trkpt lat="51.880336" lon="8.605975">
        <ele>108.094678</ele>
        <time>2025-11-05T23:01:26.779Z</time>
      </trkpt>
      <trkpt lat="51.880350" lon="8.606126">
        <ele>108.094339</ele>
        <time>2025-11-05T23:01:28.722Z</time>
      </trkpt>
      <trkpt lat="51.880358" lon="8.606366">
        <ele>108.099461</ele>
        <time>2025-11-05T23:01:31.778Z</time>
      </trkpt>
      <trkpt lat="51.880359" lon="8.606983">
        <ele>108.202267</ele>
        <time>2025-11-05T23:01:39.712Z</time>
      </trkpt>
      <trkpt lat="51.880376" lon="8.607333">
        <ele>108.260766</ele>
        <time>2025-11-05T23:01:44.253Z</time>
      </trkpt>
      <trkpt lat="51.880429" lon="8.607723">
        <ele>108.327305</ele>
        <time>2025-11-05T23:01:49.449Z</time>
      </trkpt>
      <trkpt lat="51.880762" lon="8.609131">
        <ele>108.578537</ele>
        <time>2025-11-05T23:02:09.742Z</time>
      </trkpt>
      <trkpt lat="51.880769" lon="8.609158">
        <ele>108.593994</ele>
        <time>2025-11-05T23:02:10.163Z</time>
      </trkpt>
      <trkpt lat="51.880898" lon="8.609668">
        <ele>108.925798</ele>
        <time>2025-11-05T23:02:18.121Z</time>
      </trkpt>
      <trkpt lat="51.881059" lon="8.610298">
        <ele>109.336284</ele>
        <time>2025-11-05T23:02:27.994Z</time>
      </trkpt>
      <trkpt lat="51.881182" lon="8.610785">
        <ele>109.653055</ele>
        <time>2025-11-05T23:02:35.611Z</time>
      </trkpt>
      <trkpt lat="51.881216" lon="8.610910">
        <ele>109.735288</ele>
        <time>2025-11-05T23:02:37.584Z</time>
      </trkpt>
      <trkpt lat="51.881540" lon="8.612133">
        <ele>110.418050</ele>
        <time>2025-11-05T23:02:56.564Z</time>
      </trkpt>
      <trkpt lat="51.881673" lon="8.612617">
        <ele>110.550912</ele>
        <time>2025-11-05T23:03:03.949Z</time>
      </trkpt>
      <trkpt lat="51.881752" lon="8.612902">
        <ele>110.629261</ele>
        <time>2025-11-05T23:03:08.270Z</time>
      </trkpt>
      <trkpt lat="51.881904" lon="8.613312">
        <ele>110.749200</ele>
        <time>2025-11-05T23:03:14.868Z</time>
      </trkpt>
      <trkpt lat="51.882102" lon="8.613659">
        <ele>110.867705</ele>
        <time>2025-11-05T23:03:21.351Z</time>
      </trkpt>
      <trkpt lat="51.882760" lon="8.614399">
        <ele>111.265874</ele>
        <time>2025-11-05T23:03:38.692Z</time>
      </trkpt>
      <trkpt lat="51.882798" lon="8.614441">
        <ele>111.295109</ele>
        <time>2025-11-05T23:03:39.698Z</time>
      </trkpt>
      <trkpt lat="51.883252" lon="8.614970">
        <ele>111.650512</ele>
        <time>2025-11-05T23:03:52.113Z</time>
      </trkpt>
      <trkpt lat="51.883384" lon="8.615203">
        <ele>111.774574</ele>
        <time>2025-11-05T23:03:56.456Z</time>
      </trkpt>
      <trkpt lat="51.883669" lon="8.616018">
        <ele>112.142025</ele>
        <time>2025-11-05T23:04:09.316Z</time>
      </trkpt>
      <trkpt lat="51.883716" lon="8.616184">
        <ele>112.214694</ele>
        <time>2025-11-05T23:04:11.820Z</time>
      </trkpt>
      <trkpt lat="51.883795" lon="8.616469">
        <ele>112.356974</ele>
        <time>2025-11-05T23:04:16.113Z</time>
      </trkpt>
      <trkpt lat="51.883850" lon="8.616665">
        <ele>112.455027</ele>
        <time>2025-11-05T23:04:19.071Z</time>
      </trkpt>
      <trkpt lat="51.884033" lon="8.617450">
        <ele>112.837173</ele>
        <time>2025-11-05T23:04:30.521Z</time>
      </trkpt>
      <trkpt lat="51.884244" lon="8.618880">
        <ele>113.506760</ele>
        <time>2025-11-05T23:04:50.697Z</time>
      </trkpt>
      <trkpt lat="51.884326" lon="8.619495">
        <ele>113.741130</ele>
        <time>2025-11-05T23:04:59.386Z</time>
      </trkpt>
      <trkpt lat="51.884398" lon="8.620050">
        <ele>113.947377</ele>
        <time>2025-11-05T23:05:07.203Z</time>
      </trkpt>
      <trkpt lat="51.884474" lon="8.620983">
        <ele>114.289624</ele>
        <time>2025-11-05T23:05:20.040Z</time>
      </trkpt>
      <trkpt lat="51.884459" lon="8.621528">
        <ele>114.488021</ele>
        <time>2025-11-05T23:05:27.361Z</time>
      </trkpt>
      <trkpt lat="51.884448" lon="8.621953">
        <ele>114.608365</ele>
        <time>2025-11-05T23:05:33.023Z</time>
      </trkpt>
      <trkpt lat="51.884387" lon="8.623675">
        <ele>114.792883</ele>
        <time>2025-11-05T23:05:55.452Z</time>
      </trkpt>
      <trkpt lat="51.884376" lon="8.623985">
        <ele>114.826100</ele>
        <time>2025-11-05T23:05:59.542Z</time>
      </trkpt>
      <trkpt lat="51.884382" lon="8.624162">
        <ele>114.845064</ele>
        <time>2025-11-05T23:06:01.901Z</time>
      </trkpt>
      <trkpt lat="51.884414" lon="8.624715">
        <ele>114.904481</ele>
        <time>2025-11-05T23:06:09.342Z</time>
      </trkpt>
      <trkpt lat="51.884490" lon="8.625224">
        <ele>115.072636</ele>
        <time>2025-11-05T23:06:16.434Z</time>
      </trkpt>
      <trkpt lat="51.884795" lon="8.626337">
        <ele>115.469826</ele>
        <time>2025-11-05T23:06:33.058Z</time>
      </trkpt>
      <trkpt lat="51.884825" lon="8.626442">
        <ele>115.507564</ele>
        <time>2025-11-05T23:06:34.662Z</time>
      </trkpt>
      <trkpt lat="51.885103" lon="8.627421">
        <ele>115.857353</ele>
        <time>2025-11-05T23:06:49.342Z</time>
      </trkpt>
      <trkpt lat="51.885124" lon="8.627496">
        <ele>115.868147</ele>
        <time>2025-11-05T23:06:50.478Z</time>
      </trkpt>
      <trkpt lat="51.885226" lon="8.627856">
        <ele>115.920064</ele>
        <time>2025-11-05T23:06:55.666Z</time>
      </trkpt>
      <trkpt lat="51.885251" lon="8.627945">
        <ele>115.932880</ele>
        <time>2025-11-05T23:06:56.966Z</time>
      </trkpt>
      <trkpt lat="51.885500" lon="8.628828">
        <ele>116.060117</ele>
        <time>2025-11-05T23:07:09.581Z</time>
      </trkpt>
      <trkpt lat="51.885583" lon="8.629122">
        <ele>116.102490</ele>
        <time>2025-11-05T23:07:13.863Z</time>
      </trkpt>
      <trkpt lat="51.885669" lon="8.629561">
        <ele>116.162856</ele>
        <time>2025-11-05T23:07:19.948Z</time>
      </trkpt>
      <trkpt lat="51.885678" lon="8.629630">
        <ele>116.172099</ele>
        <time>2025-11-05T23:07:20.896Z</time>
      </trkpt>
      <trkpt lat="51.885317" lon="8.629860">
        <ele>116.269740</ele>
        <time>2025-11-05T23:07:29.183Z</time>
      </trkpt>
      <trkpt lat="51.885083" lon="8.630078">
        <ele>116.380671</ele>
        <time>2025-11-05T23:07:35.063Z</time>
      </trkpt>
      <trkpt lat="51.884282" lon="8.630972">
        <ele>116.780405</ele>
        <time>2025-11-05T23:07:56.546Z</time>
      </trkpt>
      <trkpt lat="51.883821" lon="8.631331">
        <ele>116.975416</ele>
        <time>2025-11-05T23:08:07.635Z</time>
      </trkpt>
      <trkpt lat="51.883560" lon="8.631464">
        <ele>116.959335</ele>
        <time>2025-11-05T23:08:13.481Z</time>
      </trkpt>
      <trkpt lat="51.882444" lon="8.631796">
        <ele>116.892648</ele>
        <time>2025-11-05T23:08:36.923Z</time>
      </trkpt>
      <trkpt lat="51.882318" lon="8.631834">
        <ele>116.885115</ele>
        <time>2025-11-05T23:08:39.520Z</time>
      </trkpt>
      <trkpt lat="51.882331" lon="8.632199">
        <ele>116.871851</ele>
        <time>2025-11-05T23:08:44.236Z</time>
      </trkpt>
      <trkpt lat="51.882307" lon="8.632376">
        <ele>116.864754</ele>
        <time>2025-11-05T23:08:46.627Z</time>
      </trkpt>
      <trkpt lat="51.882250" lon="8.632532">
        <ele>116.857635</ele>
        <time>2025-11-05T23:08:49.024Z</time>
      </trkpt>
      <trkpt lat="51.881903" lon="8.633109">
        <ele>116.826000</ele>
        <time>2025-11-05T23:08:59.666Z</time>
      </trkpt>
      <trkpt lat="51.881863" lon="8.633173">
        <ele>116.822423</ele>
        <time>2025-11-05T23:09:00.853Z</time>
      </trkpt>
      <trkpt lat="51.881811" lon="8.633257">
        <ele>116.817751</ele>
        <time>2025-11-05T23:09:02.364Z</time>
      </trkpt>
      <trkpt lat="51.881666" lon="8.633491">
        <ele>116.804730</ele>
        <time>2025-11-05T23:09:06.599Z</time>
      </trkpt>
      <trkpt lat="51.881545" lon="8.633687">
        <ele>116.793844</ele>
        <time>2025-11-05T23:09:10.107Z</time>
      </trkpt>
      <trkpt lat="51.881428" lon="8.633877">
        <ele>116.783304</ele>
        <time>2025-11-05T23:09:13.523Z</time>
      </trkpt>
      <trkpt lat="51.881290" lon="8.634101">
        <ele>116.770876</ele>
        <time>2025-11-05T23:09:17.582Z</time>
      </trkpt>
      <trkpt lat="51.881034" lon="8.634516">
        <ele>116.785800</ele>
        <time>2025-11-05T23:09:25.296Z</time>
      </trkpt>
      <trkpt lat="51.881051" lon="8.634559">
        <ele>116.791945</ele>
        <time>2025-11-05T23:09:26.029Z</time>
      </trkpt>
      <trkpt lat="51.881004" lon="8.634638">
        <ele>116.805150</ele>
        <time>2025-11-05T23:09:28.369Z</time>
      </trkpt>
      <trkpt lat="51.880590" lon="8.635277">
        <ele>116.916638</ele>
        <time>2025-11-05T23:09:48.158Z</time>
      </trkpt>
      <trkpt lat="51.880419" lon="8.635540">
        <ele>116.962610</ele>
        <time>2025-11-05T23:09:56.309Z</time>
      </trkpt>
      <trkpt lat="51.880408" lon="8.635510">
        <ele>116.966810</ele>
        <time>2025-11-05T23:09:56.893Z</time>
      </trkpt>
      <trkpt lat="51.880379" lon="8.635545">
        <ele>116.973860</ele>
        <time>2025-11-05T23:09:57.690Z</time>
      </trkpt>
      <trkpt lat="51.880082" lon="8.635889">
        <ele>117.045044</ele>
        <time>2025-11-05T23:10:05.676Z</time>
      </trkpt>
      <trkpt lat="51.879707" lon="8.636323">
        <ele>117.157196</ele>
        <time>2025-11-05T23:10:15.841Z</time>
      </trkpt>
      <trkpt lat="51.879102" lon="8.637025">
        <ele>117.421904</ele>
        <time>2025-11-05T23:10:32.200Z</time>
      </trkpt>
      <trkpt lat="51.878606" lon="8.637628">
        <ele>117.642489</ele>
        <time>2025-11-05T23:10:45.743Z</time>
      </trkpt>
      <trkpt lat="51.878235" lon="8.638081">
        <ele>117.696540</ele>
        <time>2025-11-05T23:10:55.457Z</time>
      </trkpt>
      <trkpt lat="51.877913" lon="8.638463">
        <ele>117.575914</ele>
        <time>2025-11-05T23:11:03.963Z</time>
      </trkpt>
      <trkpt lat="51.877837" lon="8.638554">
        <ele>117.547350</ele>
        <time>2025-11-05T23:11:05.943Z</time>
      </trkpt>
      <trkpt lat="51.877288" lon="8.639217">
        <ele>117.340388</ele>
        <time>2025-11-05T23:11:20.524Z</time>
      </trkpt>
      <trkpt lat="51.877089" lon="8.639457">
        <ele>117.265404</ele>
        <time>2025-11-05T23:11:25.694Z</time>
      </trkpt>
      <trkpt lat="51.876416" lon="8.640270">
        <ele>117.114897</ele>
        <time>2025-11-05T23:11:43.653Z</time>
      </trkpt>
      <trkpt lat="51.875609" lon="8.641244">
        <ele>116.973971</ele>
        <time>2025-11-05T23:12:05.709Z</time>
      </trkpt>
      <trkpt lat="51.875197" lon="8.641742">
        <ele>116.949379</ele>
        <time>2025-11-05T23:12:16.896Z</time>
      </trkpt>
      <trkpt lat="51.875088" lon="8.641874">
        <ele>116.948325</ele>
        <time>2025-11-05T23:12:19.856Z</time>
      </trkpt>
      <trkpt lat="51.875004" lon="8.641975">
        <ele>116.947515</ele>
        <time>2025-11-05T23:12:22.111Z</time>
      </trkpt>
      <trkpt lat="51.874426" lon="8.642674">
        <ele>116.941931</ele>
        <time>2025-11-05T23:12:37.800Z</time>
      </trkpt>
      <trkpt lat="51.874120" lon="8.643048">
        <ele>116.938963</ele>
        <time>2025-11-05T23:12:46.313Z</time>
      </trkpt>
      <trkpt lat="51.874095" lon="8.643078">
        <ele>116.938722</ele>
        <time>2025-11-05T23:12:47.017Z</time>
      </trkpt>
      <trkpt lat="51.874077" lon="8.643103">
        <ele>116.938538</ele>
        <time>2025-11-05T23:12:47.554Z</time>
      </trkpt>
      <trkpt lat="51.873537" lon="8.643752">
        <ele>117.112561</ele>
        <time>2025-11-05T23:13:02.734Z</time>
      </trkpt>
      <trkpt lat="51.873394" lon="8.643924">
        <ele>117.161675</ele>
        <time>2025-11-05T23:13:06.709Z</time>
      </trkpt>
      <trkpt lat="51.873194" lon="8.644165">
        <ele>117.230410</ele>
        <time>2025-11-05T23:13:12.277Z</time>
      </trkpt>
      <trkpt lat="51.873139" lon="8.644231">
        <ele>117.249284</ele>
        <time>2025-11-05T23:13:13.799Z</time>
      </trkpt>
      <trkpt lat="51.872919" lon="8.644496">
        <ele>117.324883</ele>
        <time>2025-11-05T23:13:19.891Z</time>
      </trkpt>
      <trkpt lat="51.872532" lon="8.644964">
        <ele>117.475806</ele>
        <time>2025-11-05T23:13:30.697Z</time>
      </trkpt>
      <trkpt lat="51.872394" lon="8.645131">
        <ele>117.558619</ele>
        <time>2025-11-05T23:13:34.630Z</time>
      </trkpt>
      <trkpt lat="51.872256" lon="8.645299">
        <ele>117.641610</ele>
        <time>2025-11-05T23:13:38.559Z</time>
      </trkpt>
      <trkpt lat="51.872196" lon="8.645371">
        <ele>117.677508</ele>
        <time>2025-11-05T23:13:40.250Z</time>
      </trkpt>
      <trkpt lat="51.872051" lon="8.645547">
        <ele>117.764615</ele>
        <time>2025-11-05T23:13:44.356Z</time>
      </trkpt>
      <trkpt lat="51.871927" lon="8.645698">
        <ele>117.839195</ele>
        <time>2025-11-05T23:13:47.847Z</time>
      </trkpt>
      <trkpt lat="51.871750" lon="8.645911">
        <ele>117.945200</ele>
        <time>2025-11-05T23:13:52.868Z</time>
      </trkpt>
      <trkpt lat="51.871634" lon="8.646052">
        <ele>118.014922</ele>
        <time>2025-11-05T23:13:56.213Z</time>
      </trkpt>
      <trkpt lat="51.871535" lon="8.646172">
        <ele>118.074367</ele>
        <time>2025-11-05T23:13:59.064Z</time>
      </trkpt>
      <trkpt lat="51.871435" lon="8.646294">
        <ele>118.134552</ele>
        <time>2025-11-05T23:14:01.936Z</time>
      </trkpt>
      <trkpt lat="51.871345" lon="8.646407">
        <ele>118.189296</ele>
        <time>2025-11-05T23:14:04.428Z</time>
      </trkpt>
      <trkpt lat="51.871104" lon="8.646698">
        <ele>118.306827</ele>
        <time>2025-11-05T23:14:10.952Z</time>
      </trkpt>
      <trkpt lat="51.871034" lon="8.646789">
        <ele>118.316686</ele>
        <time>2025-11-05T23:14:12.926Z</time>
      </trkpt>
      <trkpt lat="51.870781" lon="8.647098">
        <ele>118.351487</ele>
        <time>2025-11-05T23:14:19.830Z</time>
      </trkpt>
      <trkpt lat="51.870643" lon="8.647266">
        <ele>118.370448</ele>
        <time>2025-11-05T23:14:23.518Z</time>
      </trkpt>
      <trkpt lat="51.870460" lon="8.647489">
        <ele>118.395600</ele>
        <time>2025-11-05T23:14:28.300Z</time>
      </trkpt>
      <trkpt lat="51.870216" lon="8.647787">
        <ele>118.429164</ele>
        <time>2025-11-05T23:14:34.686Z</time>
      </trkpt>
      <trkpt lat="51.870044" lon="8.647998">
        <ele>118.452862</ele>
        <time>2025-11-05T23:14:39.154Z</time>
      </trkpt>
      <trkpt lat="51.869976" lon="8.648029">
        <ele>118.460620</ele>
        <time>2025-11-05T23:14:40.606Z</time>
      </trkpt>
      <trkpt lat="51.869273" lon="8.648939">
        <ele>118.535830</ele>
        <time>2025-11-05T23:14:59.630Z</time>
      </trkpt>
      <trkpt lat="51.869162" lon="8.649075">
        <ele>118.545389</ele>
        <time>2025-11-05T23:15:02.573Z</time>
      </trkpt>
      <trkpt lat="51.869377" lon="8.649326">
        <ele>118.563593</ele>
        <time>2025-11-05T23:15:08.074Z</time>
      </trkpt>
      <trkpt lat="51.869515" lon="8.649655">
        <ele>118.580461</ele>
        <time>2025-11-05T23:15:13.197Z</time>
      </trkpt>
      <trkpt lat="51.869799" lon="8.650910">
        <ele>118.809092</ele>
        <time>2025-11-05T23:15:30.963Z</time>
      </trkpt>
      <trkpt lat="51.870243" lon="8.652837">
        <ele>119.766937</ele>
        <time>2025-11-05T23:15:59.349Z</time>
      </trkpt>
      <trkpt lat="51.870640" lon="8.653921">
        <ele>120.198681</ele>
        <time>2025-11-05T23:16:16.830Z</time>
      </trkpt>
      <trkpt lat="51.870916" lon="8.654530">
        <ele>120.405805</ele>
        <time>2025-11-05T23:16:27.057Z</time>
      </trkpt>
      <trkpt lat="51.871711" lon="8.655931">
        <ele>120.824170</ele>
        <time>2025-11-05T23:16:52.039Z</time>
      </trkpt>
      <trkpt lat="51.872128" lon="8.656858">
        <ele>120.925277</ele>
        <time>2025-11-05T23:17:07.214Z</time>
      </trkpt>
      <trkpt lat="51.872332" lon="8.657377">
        <ele>120.979513</ele>
        <time>2025-11-05T23:17:15.553Z</time>
      </trkpt>
      <trkpt lat="51.872281" lon="8.657440">
        <ele>120.988671</ele>
        <time>2025-11-05T23:17:16.967Z</time>
      </trkpt>
      <trkpt lat="51.872765" lon="8.658627">
        <ele>120.665200</ele>
        <time>2025-11-05T23:17:35.360Z</time>
      </trkpt>
      <trkpt lat="51.874164" lon="8.662015">
        <ele>119.377491</ele>
        <time>2025-11-05T23:18:24.120Z</time>
      </trkpt>
      <trkpt lat="51.874845" lon="8.663696">
        <ele>120.174621</ele>
        <time>2025-11-05T23:18:51.983Z</time>
      </trkpt>
      <trkpt lat="51.875039" lon="8.664380">
        <ele>120.803820</ele>
        <time>2025-11-05T23:19:02.745Z</time>
      </trkpt>
      <trkpt lat="51.875664" lon="8.666856">
        <ele>123.104052</ele>
        <time>2025-11-05T23:19:40.990Z</time>
      </trkpt>
      <trkpt lat="51.875716" lon="8.666784">
        <ele>123.200850</ele>
        <time>2025-11-05T23:19:42.907Z</time>
      </trkpt>
      <trkpt lat="51.876321" lon="8.669225">
        <ele>124.549447</ele>
        <time>2025-11-05T23:20:19.364Z</time>
      </trkpt>
      <trkpt lat="51.876638" lon="8.669019">
        <ele>124.690196</ele>
        <time>2025-11-05T23:20:28.709Z</time>
      </trkpt>
      <trkpt lat="51.876321" lon="8.669225">
        <ele>124.830946</ele>
        <time>2025-11-05T23:20:38.036Z</time>
      </trkpt>
      <trkpt lat="51.876561" lon="8.670162">
        <ele>125.257450</ele>
        <time>2025-11-05T23:20:50.905Z</time>
      </trkpt>
      <trkpt lat="51.876774" lon="8.670808">
        <ele>125.610326</ele>
        <time>2025-11-05T23:21:00.541Z</time>
      </trkpt>
      <trkpt lat="51.876795" lon="8.670866">
        <ele>125.642724</ele>
        <time>2025-11-05T23:21:01.478Z</time>
      </trkpt>
      <trkpt lat="51.876714" lon="8.671021">
        <ele>125.740572</ele>
        <time>2025-11-05T23:21:05.772Z</time>
      </trkpt>
      <trkpt lat="51.877031" lon="8.671696">
        <ele>126.149215</ele>
        <time>2025-11-05T23:21:17.784Z</time>
      </trkpt>
      <trkpt lat="51.878017" lon="8.673970">
        <ele>129.545178</ele>
        <time>2025-11-05T23:21:58.394Z</time>
      </trkpt>
      <trkpt lat="51.878191" lon="8.674281">
        <ele>130.098837</ele>
        <time>2025-11-05T23:22:04.428Z</time>
      </trkpt>
      <trkpt lat="51.878206" lon="8.674358">
        <ele>130.180412</ele>
        <time>2025-11-05T23:22:05.580Z</time>
      </trkpt>
      <trkpt lat="51.878195" lon="8.674587">
        <ele>130.352266</ele>
        <time>2025-11-05T23:22:08.853Z</time>
      </trkpt>
      <trkpt lat="51.878386" lon="8.674589">
        <ele>130.583757</ele>
        <time>2025-11-05T23:22:13.223Z</time>
      </trkpt>
      <trkpt lat="51.878518" lon="8.674992">
        <ele>130.925090</ele>
        <time>2025-11-05T23:22:19.655Z</time>
      </trkpt>
      <trkpt lat="51.878749" lon="8.675486">
        <ele>131.388757</ele>
        <time>2025-11-05T23:22:28.317Z</time>
      </trkpt>
      <trkpt lat="51.878906" lon="8.675828">
        <ele>131.707629</ele>
        <time>2025-11-05T23:22:34.225Z</time>
      </trkpt>
      <trkpt lat="51.878981" lon="8.676097">
        <ele>131.928464</ele>
        <time>2025-11-05T23:22:38.300Z</time>
      </trkpt>
      <trkpt lat="51.879085" lon="8.676341">
        <ele>132.150306</ele>
        <time>2025-11-05T23:22:42.375Z</time>
      </trkpt>
      <trkpt lat="51.879440" lon="8.677178">
        <ele>132.780796</ele>
        <time>2025-11-05T23:22:56.381Z</time>
      </trkpt>
      <trkpt lat="51.879630" lon="8.677571">
        <ele>133.071363</ele>
        <time>2025-11-05T23:23:03.318Z</time>
      </trkpt>
      <trkpt lat="51.879835" lon="8.678153">
        <ele>133.461407</ele>
        <time>2025-11-05T23:23:12.675Z</time>
      </trkpt>
      <trkpt lat="51.879945" lon="8.678394">
        <ele>133.635871</ele>
        <time>2025-11-05T23:23:16.842Z</time>
      </trkpt>
      <trkpt lat="51.880288" lon="8.679115">
        <ele>134.110020</ele>
        <time>2025-11-05T23:23:29.395Z</time>
      </trkpt>
      <trkpt lat="51.880436" lon="8.679461">
        <ele>134.258984</ele>
        <time>2025-11-05T23:23:35.176Z</time>
      </trkpt>
      <trkpt lat="51.880924" lon="8.680718">
        <ele>134.784463</ele>
        <time>2025-11-05T23:23:55.512Z</time>
      </trkpt>
      <trkpt lat="51.881018" lon="8.680810">
        <ele>134.847421</ele>
        <time>2025-11-05T23:23:57.870Z</time>
      </trkpt>
      <trkpt lat="51.881031" lon="8.680955">
        <ele>134.899271</ele>
        <time>2025-11-05T23:23:59.785Z</time>
      </trkpt>
      <trkpt lat="51.881079" lon="8.681089">
        <ele>134.954095</ele>
        <time>2025-11-05T23:24:01.784Z</time>
      </trkpt>
      <trkpt lat="51.881164" lon="8.681314">
        <ele>135.047444</ele>
        <time>2025-11-05T23:24:05.191Z</time>
      </trkpt>
      <trkpt lat="51.881935" lon="8.683036">
        <ele>135.853354</ele>
        <time>2025-11-05T23:24:50.446Z</time>
      </trkpt>
      <trkpt lat="51.882255" lon="8.683704">
        <ele>136.181971</ele>
        <time>2025-11-05T23:25:08.145Z</time>
      </trkpt>
      <trkpt lat="51.882535" lon="8.684598">
        <ele>136.772774</ele>
        <time>2025-11-05T23:25:28.994Z</time>
      </trkpt>
      <trkpt lat="51.883865" lon="8.689015">
        <ele>139.056671</ele>
        <time>2025-11-05T23:27:12.815Z</time>
      </trkpt>
      <trkpt lat="51.884659" lon="8.691974">
        <ele>139.104125</ele>
        <time>2025-11-05T23:28:21.786Z</time>
      </trkpt>
      <trkpt lat="51.884796" lon="8.692183">
        <ele>139.198826</ele>
        <time>2025-11-05T23:28:26.087Z</time>
      </trkpt>
      <trkpt lat="51.884947" lon="8.692555">
        <ele>139.337128</ele>
        <time>2025-11-05T23:28:32.441Z</time>
      </trkpt>
      <trkpt lat="51.885942" lon="8.695520">
        <ele>141.730017</ele>
        <time>2025-11-05T23:29:23.369Z</time>
      </trkpt>
      <trkpt lat="51.886205" lon="8.696389">
        <ele>142.818741</ele>
        <time>2025-11-05T23:29:38.622Z</time>
      </trkpt>
      <trkpt lat="51.886269" lon="8.696636">
        <ele>143.120078</ele>
        <time>2025-11-05T23:29:42.893Z</time>
      </trkpt>
      <trkpt lat="51.886314" lon="8.696760">
        <ele>143.317304</ele>
        <time>2025-11-05T23:29:45.183Z</time>
      </trkpt>
      <trkpt lat="51.886605" lon="8.697271">
        <ele>144.310328</ele>
        <time>2025-11-05T23:29:56.368Z</time>
      </trkpt>
      <trkpt lat="51.886928" lon="8.697781">
        <ele>145.353982</ele>
        <time>2025-11-05T23:30:07.980Z</time>
      </trkpt>
      <trkpt lat="51.887179" lon="8.697918">
        <ele>145.966870</ele>
        <time>2025-11-05T23:30:14.660Z</time>
      </trkpt>
      <trkpt lat="51.887385" lon="8.698314">
        <ele>146.706536</ele>
        <time>2025-11-05T23:30:22.636Z</time>
      </trkpt>
      <trkpt lat="51.887486" lon="8.698458">
        <ele>147.017856</ele>
        <time>2025-11-05T23:30:25.976Z</time>
      </trkpt>
      <trkpt lat="51.887612" lon="8.698582">
        <ele>147.328165</ele>
        <time>2025-11-05T23:30:29.612Z</time>
      </trkpt>
      <trkpt lat="51.888002" lon="8.698858">
        <ele>147.658101</ele>
        <time>2025-11-05T23:30:40.007Z</time>
      </trkpt>
      <trkpt lat="51.888100" lon="8.699003">
        <ele>147.760990</ele>
        <time>2025-11-05T23:30:43.212Z</time>
      </trkpt>
      <trkpt lat="51.888322" lon="8.699682">
        <ele>148.128656</ele>
        <time>2025-11-05T23:30:54.553Z</time>
      </trkpt>
      <trkpt lat="51.889140" lon="8.701955">
        <ele>149.379902</ele>
        <time>2025-11-05T23:31:33.821Z</time>
      </trkpt>
      <trkpt lat="51.889540" lon="8.703297">
        <ele>150.084877</ele>
        <time>2025-11-05T23:31:56.230Z</time>
      </trkpt>
      <trkpt lat="51.889688" lon="8.703648">
        <ele>150.251702</ele>
        <time>2025-11-05T23:32:02.582Z</time>
      </trkpt>
      <trkpt lat="51.890230" lon="8.704913">
        <ele>150.855573</ele>
        <time>2025-11-05T23:32:25.745Z</time>
      </trkpt>
      <trkpt lat="51.890410" lon="8.705228">
        <ele>151.023911</ele>
        <time>2025-11-05T23:32:32.144Z</time>
      </trkpt>
      <trkpt lat="51.890705" lon="8.705471">
        <ele>151.219503</ele>
        <time>2025-11-05T23:32:40.086Z</time>
      </trkpt>
      <trkpt lat="51.890888" lon="8.705693">
        <ele>150.993198</ele>
        <time>2025-11-05T23:32:45.462Z</time>
      </trkpt>
      <trkpt lat="51.891097" lon="8.706660">
        <ele>150.367230</ele>
        <time>2025-11-05T23:32:59.678Z</time>
      </trkpt>
      <trkpt lat="51.891099" lon="8.706787">
        <ele>150.289614</ele>
        <time>2025-11-05T23:33:01.329Z</time>
      </trkpt>
      <trkpt lat="51.891025" lon="8.707157">
        <ele>150.051990</ele>
        <time>2025-11-05T23:33:06.276Z</time>
      </trkpt>
      <trkpt lat="51.891060" lon="8.707550">
        <ele>149.809400</ele>
        <time>2025-11-05T23:33:11.158Z</time>
      </trkpt>
      <trkpt lat="51.891132" lon="8.707715">
        <ele>149.685941</ele>
        <time>2025-11-05T23:33:13.598Z</time>
      </trkpt>
      <trkpt lat="51.891375" lon="8.708032">
        <ele>149.440757</ele>
        <time>2025-11-05T23:33:19.746Z</time>
      </trkpt>
      <trkpt lat="51.891564" lon="8.708178">
        <ele>149.419846</ele>
        <time>2025-11-05T23:33:23.937Z</time>
      </trkpt>
      <trkpt lat="51.891711" lon="8.708348">
        <ele>149.401810</ele>
        <time>2025-11-05T23:33:27.696Z</time>
      </trkpt>
      <trkpt lat="51.891769" lon="8.708477">
        <ele>149.391973</ele>
        <time>2025-11-05T23:33:29.799Z</time>
      </trkpt>
      <trkpt lat="51.891993" lon="8.708928">
        <ele>149.356293</ele>
        <time>2025-11-05T23:33:37.794Z</time>
      </trkpt>
      <trkpt lat="51.892010" lon="8.708959">
        <ele>149.353737</ele>
        <time>2025-11-05T23:33:38.386Z</time>
      </trkpt>
      <trkpt lat="51.892890" lon="8.710604">
        <ele>150.194667</ele>
        <time>2025-11-05T23:34:11.416Z</time>
      </trkpt>
      <trkpt lat="51.893037" lon="8.710768">
        <ele>150.533666</ele>
        <time>2025-11-05T23:34:15.912Z</time>
      </trkpt>
      <trkpt lat="51.893738" lon="8.711135">
        <ele>151.932954</ele>
        <time>2025-11-05T23:34:34.494Z</time>
      </trkpt>
      <trkpt lat="51.893888" lon="8.711177">
        <ele>152.222094</ele>
        <time>2025-11-05T23:34:38.332Z</time>
      </trkpt>
      <trkpt lat="51.895214" lon="8.711188">
        <ele>154.564800</ele>
        <time>2025-11-05T23:35:11.688Z</time>
      </trkpt>
      <trkpt lat="51.896403" lon="8.711167">
        <ele>155.699413</ele>
        <time>2025-11-05T23:35:40.943Z</time>
      </trkpt>
      <trkpt lat="51.896522" lon="8.711163">
        <ele>155.671906</ele>
        <time>2025-11-05T23:35:43.791Z</time>
      </trkpt>
      <trkpt lat="51.897660" lon="8.711079">
        <ele>155.408645</ele>
        <time>2025-11-05T23:36:08.900Z</time>
      </trkpt>
      <trkpt lat="51.897773" lon="8.711063">
        <ele>155.365479</ele>
        <time>2025-11-05T23:36:12.636Z</time>
      </trkpt>
      <trkpt lat="51.897956" lon="8.711127">
        <ele>155.253050</ele>
        <time>2025-11-05T23:36:18.877Z</time>
      </trkpt>
      <trkpt lat="51.898141" lon="8.711279">
        <ele>155.128486</ele>
        <time>2025-11-05T23:36:25.789Z</time>
      </trkpt>
      <trkpt lat="51.898611" lon="8.711552">
        <ele>154.828649</ele>
        <time>2025-11-05T23:36:36.712Z</time>
      </trkpt>
      <trkpt lat="51.899059" lon="8.711728">
        <ele>154.551814</ele>
        <time>2025-11-05T23:36:47.121Z</time>
      </trkpt>
      <trkpt lat="51.900414" lon="8.712229">
        <ele>154.577227</ele>
        <time>2025-11-05T23:37:19.880Z</time>
      </trkpt>
      <trkpt lat="51.900715" lon="8.712385">
        <ele>154.661445</ele>
        <time>2025-11-05T23:37:27.481Z</time>
      </trkpt>
      <trkpt lat="51.901283" lon="8.712975">
        <ele>154.845574</ele>
        <time>2025-11-05T23:37:43.656Z</time>
      </trkpt>
      <trkpt lat="51.901291" lon="8.712983">
        <ele>154.848301</ele>
        <time>2025-11-05T23:37:43.855Z</time>
      </trkpt>
      <trkpt lat="51.901452" lon="8.713134">
        <ele>154.902258</ele>
        <time>2025-11-05T23:37:47.892Z</time>
      </trkpt>
      <trkpt lat="51.901654" lon="8.713385">
        <ele>154.976091</ele>
        <time>2025-11-05T23:37:53.396Z</time>
      </trkpt>
      <trkpt lat="51.901782" lon="8.713528">
        <ele>155.021187</ele>
        <time>2025-11-05T23:37:56.755Z</time>
      </trkpt>
      <trkpt lat="51.902625" lon="8.714454">
        <ele>155.323827</ele>
        <time>2025-11-05T23:38:18.499Z</time>
      </trkpt>
      <trkpt lat="51.903037" lon="8.714913">
        <ele>155.866053</ele>
        <time>2025-11-05T23:38:29.442Z</time>
      </trkpt>
      <trkpt lat="51.903210" lon="8.715103">
        <ele>156.092703</ele>
        <time>2025-11-05T23:38:34.112Z</time>
      </trkpt>
      <trkpt lat="51.903978" lon="8.715945">
        <ele>157.098318</ele>
        <time>2025-11-05T23:38:55.357Z</time>
      </trkpt>
      <trkpt lat="51.904172" lon="8.716167">
        <ele>157.347470</ele>
        <time>2025-11-05T23:39:00.860Z</time>
      </trkpt>
      <trkpt lat="51.904354" lon="8.716368">
        <ele>157.564295</ele>
        <time>2025-11-05T23:39:05.962Z</time>
      </trkpt>
      <trkpt lat="51.904406" lon="8.716492">
        <ele>157.655368</ele>
        <time>2025-11-05T23:39:08.108Z</time>
      </trkpt>
      <trkpt lat="51.904382" lon="8.716802">
        <ele>157.845147</ele>
        <time>2025-11-05T23:39:12.553Z</time>
      </trkpt>
      <trkpt lat="51.904203" lon="8.717338">
        <ele>158.215363</ele>
        <time>2025-11-05T23:39:21.116Z</time>
      </trkpt>
      <trkpt lat="51.904198" lon="8.717611">
        <ele>158.381265</ele>
        <time>2025-11-05T23:39:24.895Z</time>
      </trkpt>
      <trkpt lat="51.904224" lon="8.717750">
        <ele>158.469492</ele>
        <time>2025-11-05T23:39:26.878Z</time>
      </trkpt>
      <trkpt lat="51.904304" lon="8.717937">
        <ele>158.607717</ele>
        <time>2025-11-05T23:39:29.950Z</time>
      </trkpt>
      <trkpt lat="51.904161" lon="8.718084">
        <ele>158.774432</ele>
        <time>2025-11-05T23:39:33.635Z</time>
      </trkpt>
      <trkpt lat="51.903953" lon="8.718335">
        <ele>159.029737</ele>
        <time>2025-11-05T23:39:39.235Z</time>
      </trkpt>
      <trkpt lat="51.903804" lon="8.718603">
        <ele>159.014963</ele>
        <time>2025-11-05T23:39:43.955Z</time>
      </trkpt>
      <trkpt lat="51.903476" lon="8.719115">
        <ele>158.971812</ele>
        <time>2025-11-05T23:39:53.350Z</time>
      </trkpt>
      <trkpt lat="51.903440" lon="8.719209">
        <ele>158.965344</ele>
        <time>2025-11-05T23:39:54.737Z</time>
      </trkpt>
      <trkpt lat="51.903424" lon="8.719351">
        <ele>158.956904</ele>
        <time>2025-11-05T23:39:56.528Z</time>
      </trkpt>
      <trkpt lat="51.903426" lon="8.719476">
        <ele>158.949594</ele>
        <time>2025-11-05T23:39:58.072Z</time>
      </trkpt>
      <trkpt lat="51.903461" lon="8.719637">
        <ele>158.939614</ele>
        <time>2025-11-05T23:40:00.190Z</time>
      </trkpt>
      <trkpt lat="51.903584" lon="8.719883">
        <ele>158.921102</ele>
        <time>2025-11-05T23:40:04.137Z</time>
      </trkpt>
      <trkpt lat="51.904041" lon="8.720725">
        <ele>158.954558</ele>
        <time>2025-11-05T23:40:18.658Z</time>
      </trkpt>
      <trkpt lat="51.904626" lon="8.721854">
        <ele>159.764362</ele>
        <time>2025-11-05T23:40:38.746Z</time>
      </trkpt>
      <trkpt lat="51.904903" lon="8.722790">
        <ele>160.334554</ele>
        <time>2025-11-05T23:40:53.381Z</time>
      </trkpt>
      <trkpt lat="51.905628" lon="8.724822">
        <ele>162.437034</ele>
        <time>2025-11-05T23:41:26.791Z</time>
      </trkpt>
      <trkpt lat="51.905727" lon="8.725099">
        <ele>162.736386</ele>
        <time>2025-11-05T23:41:31.324Z</time>
      </trkpt>
      <trkpt lat="51.906171" lon="8.726273">
        <ele>163.735858</ele>
        <time>2025-11-05T23:41:50.744Z</time>
      </trkpt>
      <trkpt lat="51.906777" lon="8.727880">
        <ele>164.886648</ele>
        <time>2025-11-05T23:42:16.745Z</time>
      </trkpt>
      <trkpt lat="51.906825" lon="8.728005">
        <ele>164.975495</ele>
        <time>2025-11-05T23:42:18.754Z</time>
      </trkpt>
      <trkpt lat="51.907023" lon="8.728518">
        <ele>165.196042</ele>
        <time>2025-11-05T23:42:26.930Z</time>
      </trkpt>
      <trkpt lat="51.907491" lon="8.729909">
        <ele>165.773501</ele>
        <time>2025-11-05T23:42:47.531Z</time>
      </trkpt>
      <trkpt lat="51.907761" lon="8.729921">
        <ele>165.933068</ele>
        <time>2025-11-05T23:42:53.631Z</time>
      </trkpt>
      <trkpt lat="51.907720" lon="8.730590">
        <ele>166.559537</ele>
        <time>2025-11-05T23:43:03.485Z</time>
      </trkpt>
      <trkpt lat="51.907716" lon="8.730658">
        <ele>166.651465</ele>
        <time>2025-11-05T23:43:04.479Z</time>
      </trkpt>
      <trkpt lat="51.907677" lon="8.731415">
        <ele>167.673769</ele>
        <time>2025-11-05T23:43:15.454Z</time>
      </trkpt>
      <trkpt lat="51.907638" lon="8.732155">
        <ele>168.673276</ele>
        <time>2025-11-05T23:43:26.442Z</time>
      </trkpt>
      <trkpt lat="51.907610" lon="8.732328">
        <ele>168.913976</ele>
        <time>2025-11-05T23:43:29.102Z</time>
      </trkpt>
      <trkpt lat="51.907488" lon="8.732685">
        <ele>169.463207</ele>
        <time>2025-11-05T23:43:35.188Z</time>
      </trkpt>
      <trkpt lat="51.907333" lon="8.732911">
        <ele>169.917995</ele>
        <time>2025-11-05T23:43:40.151Z</time>
      </trkpt>
      <trkpt lat="51.907391" lon="8.733134">
        <ele>170.149068</ele>
        <time>2025-11-05T23:43:43.760Z</time>
      </trkpt>
      <trkpt lat="51.907497" lon="8.733661">
        <ele>170.646220</ele>
        <time>2025-11-05T23:43:51.967Z</time>
      </trkpt>
      <trkpt lat="51.907504" lon="8.733699">
        <ele>170.681789</ele>
        <time>2025-11-05T23:43:52.549Z</time>
      </trkpt>
      <trkpt lat="51.907541" lon="8.733911">
        <ele>170.879393</ele>
        <time>2025-11-05T23:43:55.769Z</time>
      </trkpt>
      <trkpt lat="51.907573" lon="8.734088">
        <ele>171.044820</ele>
        <time>2025-11-05T23:43:58.458Z</time>
      </trkpt>
      <trkpt lat="51.907752" lon="8.735134">
        <ele>172.018394</ele>
        <time>2025-11-05T23:44:14.151Z</time>
      </trkpt>
      <trkpt lat="51.907785" lon="8.735444">
        <ele>172.300540</ele>
        <time>2025-11-05T23:44:18.652Z</time>
      </trkpt>
      <trkpt lat="51.907887" lon="8.735902">
        <ele>172.661920</ele>
        <time>2025-11-05T23:44:25.580Z</time>
      </trkpt>
      <trkpt lat="51.907922" lon="8.736083">
        <ele>172.753108</ele>
        <time>2025-11-05T23:44:28.858Z</time>
      </trkpt>
      <trkpt lat="51.907943" lon="8.736204">
        <ele>172.813535</ele>
        <time>2025-11-05T23:44:31.027Z</time>
      </trkpt>
      <trkpt lat="51.907967" lon="8.736335">
        <ele>172.879230</ele>
        <time>2025-11-05T23:44:33.368Z</time>
      </trkpt>
      <trkpt lat="51.908003" lon="8.736527">
        <ele>172.975701</ele>
        <time>2025-11-05T23:44:36.803Z</time>
      </trkpt>
      <trkpt lat="51.908033" lon="8.736687">
        <ele>173.056093</ele>
        <time>2025-11-05T23:44:39.677Z</time>
      </trkpt>
      <trkpt lat="51.908098" lon="8.737033">
        <ele>173.229968</ele>
        <time>2025-11-05T23:44:45.889Z</time>
      </trkpt>
      <trkpt lat="51.908183" lon="8.737352">
        <ele>173.397016</ele>
        <time>2025-11-05T23:44:50.721Z</time>
      </trkpt>
      <trkpt lat="51.908298" lon="8.737808">
        <ele>173.633840</ele>
        <time>2025-11-05T23:44:57.571Z</time>
      </trkpt>
      <trkpt lat="51.908306" lon="8.737941">
        <ele>173.698081</ele>
        <time>2025-11-05T23:44:59.427Z</time>
      </trkpt>
      <trkpt lat="51.908265" lon="8.737964">
        <ele>173.731889</ele>
        <time>2025-11-05T23:45:00.393Z</time>
      </trkpt>
      <trkpt lat="51.908239" lon="8.738058">
        <ele>173.781412</ele>
        <time>2025-11-05T23:45:01.814Z</time>
      </trkpt>
      <trkpt lat="51.908254" lon="8.738124">
        <ele>173.815225</ele>
        <time>2025-11-05T23:45:02.781Z</time>
      </trkpt>
      <trkpt lat="51.908292" lon="8.738164">
        <ele>173.850532</ele>
        <time>2025-11-05T23:45:03.796Z</time>
      </trkpt>
      <trkpt lat="51.908355" lon="8.738137">
        <ele>173.901312</ele>
        <time>2025-11-05T23:45:05.288Z</time>
      </trkpt>
      <trkpt lat="51.908422" lon="8.738278">
        <ele>174.006994</ele>
        <time>2025-11-05T23:45:07.867Z</time>
      </trkpt>
      <trkpt lat="51.908502" lon="8.738596">
        <ele>174.491536</ele>
        <time>2025-11-05T23:45:12.915Z</time>
      </trkpt>
      <trkpt lat="51.908684" lon="8.739344">
        <ele>175.626014</ele>
        <time>2025-11-05T23:45:24.929Z</time>
      </trkpt>
      <trkpt lat="51.908981" lon="8.740609">
        <ele>177.535688</ele>
        <time>2025-11-05T23:45:45.453Z</time>
      </trkpt>
      <trkpt lat="51.909001" lon="8.740683">
        <ele>177.649675</ele>
        <time>2025-11-05T23:45:46.695Z</time>
      </trkpt>
      <trkpt lat="51.909285" lon="8.741642">
        <ele>178.908283</ele>
        <time>2025-11-05T23:46:02.834Z</time>
      </trkpt>
      <trkpt lat="51.909432" lon="8.742127">
        <ele>179.496529</ele>
        <time>2025-11-05T23:46:10.808Z</time>
      </trkpt>
      <trkpt lat="51.909606" lon="8.742710">
        <ele>180.201546</ele>
        <time>2025-11-05T23:46:20.216Z</time>
      </trkpt>
      <trkpt lat="51.909664" lon="8.742895">
        <ele>180.427448</ele>
        <time>2025-11-05T23:46:23.237Z</time>
      </trkpt>
      <trkpt lat="51.909722" lon="8.743084">
        <ele>180.657240</ele>
        <time>2025-11-05T23:46:26.291Z</time>
      </trkpt>
      <trkpt lat="51.909835" lon="8.743458">
        <ele>181.110577</ele>
        <time>2025-11-05T23:46:32.310Z</time>
      </trkpt>
      <trkpt lat="51.909967" lon="8.743897">
        <ele>181.397945</ele>
        <time>2025-11-05T23:46:39.317Z</time>
      </trkpt>
      <trkpt lat="51.910022" lon="8.744077">
        <ele>181.475426</ele>
        <time>2025-11-05T23:46:42.178Z</time>
      </trkpt>
      <trkpt lat="51.910131" lon="8.744435">
        <ele>181.629418</ele>
        <time>2025-11-05T23:46:47.822Z</time>
      </trkpt>
      <trkpt lat="51.910157" lon="8.744519">
        <ele>181.665669</ele>
        <time>2025-11-05T23:46:49.137Z</time>
      </trkpt>
      <trkpt lat="51.910190" lon="8.744628">
        <ele>181.712503</ele>
        <time>2025-11-05T23:46:50.835Z</time>
      </trkpt>
      <trkpt lat="51.910255" lon="8.744845">
        <ele>181.805550</ele>
        <time>2025-11-05T23:46:54.201Z</time>
      </trkpt>
      <trkpt lat="51.910564" lon="8.745850">
        <ele>182.238681</ele>
        <time>2025-11-05T23:47:09.947Z</time>
      </trkpt>
      <trkpt lat="51.910677" lon="8.746218">
        <ele>182.394576</ele>
        <time>2025-11-05T23:47:15.690Z</time>
      </trkpt>
      <trkpt lat="51.911047" lon="8.747332">
        <ele>182.733500</ele>
        <time>2025-11-05T23:47:33.299Z</time>
      </trkpt>
      <trkpt lat="51.911178" lon="8.747766">
        <ele>182.862931</ele>
        <time>2025-11-05T23:47:40.035Z</time>
      </trkpt>
      <trkpt lat="51.911432" lon="8.748563">
        <ele>183.103238</ele>
        <time>2025-11-05T23:47:52.141Z</time>
      </trkpt>
      <trkpt lat="51.911472" lon="8.748684">
        <ele>183.140012</ele>
        <time>2025-11-05T23:47:53.983Z</time>
      </trkpt>
      <trkpt lat="51.911506" lon="8.748791">
        <ele>183.172110</ele>
        <time>2025-11-05T23:47:55.596Z</time>
      </trkpt>
      <trkpt lat="51.911636" lon="8.749191">
        <ele>183.286682</ele>
        <time>2025-11-05T23:48:01.660Z</time>
      </trkpt>
      <trkpt lat="51.911731" lon="8.749484">
        <ele>183.370562</ele>
        <time>2025-11-05T23:48:06.109Z</time>
      </trkpt>
      <trkpt lat="51.911792" lon="8.749681">
        <ele>183.426420</ele>
        <time>2025-11-05T23:48:09.081Z</time>
      </trkpt>
      <trkpt lat="51.911932" lon="8.750134">
        <ele>183.554815</ele>
        <time>2025-11-05T23:48:15.866Z</time>
      </trkpt>
      <trkpt lat="51.912226" lon="8.751073">
        <ele>183.821660</ele>
        <time>2025-11-05T23:48:30.061Z</time>
      </trkpt>
      <trkpt lat="51.912282" lon="8.751261">
        <ele>183.874564</ele>
        <time>2025-11-05T23:48:32.902Z</time>
      </trkpt>
      <trkpt lat="51.912299" lon="8.751315">
        <ele>183.889927</ele>
        <time>2025-11-05T23:48:33.735Z</time>
      </trkpt>
      <trkpt lat="51.912435" lon="8.751733">
        <ele>184.088254</ele>
        <time>2025-11-05T23:48:40.134Z</time>
      </trkpt>
      <trkpt lat="51.912467" lon="8.751835">
        <ele>184.139760</ele>
        <time>2025-11-05T23:48:41.664Z</time>
      </trkpt>
      <trkpt lat="51.912490" lon="8.751912">
        <ele>184.178267</ele>
        <time>2025-11-05T23:48:42.824Z</time>
      </trkpt>
      <trkpt lat="51.912633" lon="8.752365">
        <ele>184.407307</ele>
        <time>2025-11-05T23:48:49.551Z</time>
      </trkpt>
      <trkpt lat="51.912659" lon="8.752443">
        <ele>184.447213</ele>
        <time>2025-11-05T23:48:50.726Z</time>
      </trkpt>
      <trkpt lat="51.912676" lon="8.752490">
        <ele>184.471736</ele>
        <time>2025-11-05T23:48:51.438Z</time>
      </trkpt>
      <trkpt lat="51.912813" lon="8.752930">
        <ele>184.693576</ele>
        <time>2025-11-05T23:48:57.974Z</time>
      </trkpt>
      <trkpt lat="51.912840" lon="8.753009">
        <ele>184.734226</ele>
        <time>2025-11-05T23:48:59.195Z</time>
      </trkpt>
      <trkpt lat="51.913068" lon="8.753714">
        <ele>185.092507</ele>
        <time>2025-11-05T23:49:10.306Z</time>
      </trkpt>
      <trkpt lat="51.913111" lon="8.753841">
        <ele>185.157713</ele>
        <time>2025-11-05T23:49:12.355Z</time>
      </trkpt>
      <trkpt lat="51.913266" lon="8.754342">
        <ele>185.635975</ele>
        <time>2025-11-05T23:49:20.319Z</time>
      </trkpt>
      <trkpt lat="51.913319" lon="8.754521">
        <ele>185.832123</ele>
        <time>2025-11-05T23:49:23.130Z</time>
      </trkpt>
      <trkpt lat="51.913428" lon="8.754860">
        <ele>186.209780</ele>
        <time>2025-11-05T23:49:28.583Z</time>
      </trkpt>
      <trkpt lat="51.913471" lon="8.755001">
        <ele>186.365164</ele>
        <time>2025-11-05T23:49:30.840Z</time>
      </trkpt>
      <trkpt lat="51.913577" lon="8.755332">
        <ele>186.733592</ele>
        <time>2025-11-05T23:49:36.216Z</time>
      </trkpt>
      <trkpt lat="51.913794" lon="8.755971">
        <ele>187.454184</ele>
        <time>2025-11-05T23:49:46.782Z</time>
      </trkpt>
      <trkpt lat="51.913958" lon="8.756346">
        <ele>187.908295</ele>
        <time>2025-11-05T23:49:53.335Z</time>
      </trkpt>
      <trkpt lat="51.914260" lon="8.756766">
        <ele>188.330367</ele>
        <time>2025-11-05T23:50:02.265Z</time>
      </trkpt>
      <trkpt lat="51.914780" lon="8.757439">
        <ele>188.879789</ele>
        <time>2025-11-05T23:50:16.722Z</time>
      </trkpt>
      <trkpt lat="51.914816" lon="8.757487">
        <ele>188.918277</ele>
        <time>2025-11-05T23:50:17.744Z</time>
      </trkpt>
      <trkpt lat="51.915186" lon="8.757967">
        <ele>189.309572</ele>
        <time>2025-11-05T23:50:28.093Z</time>
      </trkpt>
      <trkpt lat="51.915583" lon="8.758495">
        <ele>189.968129</ele>
        <time>2025-11-05T23:50:39.686Z</time>
      </trkpt>
      <trkpt lat="51.915598" lon="8.758513">
        <ele>190.008119</ele>
        <time>2025-11-05T23:50:40.104Z</time>
      </trkpt>
      <trkpt lat="51.915898" lon="8.758890">
        <ele>190.821487</ele>
        <time>2025-11-05T23:50:48.905Z</time>
      </trkpt>
      <trkpt lat="51.916190" lon="8.759269">
        <ele>191.623022</ele>
        <time>2025-11-05T23:50:57.757Z</time>
      </trkpt>
      <trkpt lat="51.916236" lon="8.759328">
        <ele>191.748710</ele>
        <time>2025-11-05T23:50:59.147Z</time>
      </trkpt>
      <trkpt lat="51.916442" lon="8.759600">
        <ele>192.318015</ele>
        <time>2025-11-05T23:51:05.502Z</time>
      </trkpt>
      <trkpt lat="51.916638" lon="8.759854">
        <ele>192.855701</ele>
        <time>2025-11-05T23:51:11.531Z</time>
      </trkpt>
      <trkpt lat="51.917011" lon="8.760340">
        <ele>193.852494</ele>
        <time>2025-11-05T23:51:23.036Z</time>
      </trkpt>
      <trkpt lat="51.917166" lon="8.760542">
        <ele>194.250942</ele>
        <time>2025-11-05T23:51:27.796Z</time>
      </trkpt>
      <trkpt lat="51.917771" lon="8.761368">
        <ele>195.835651</ele>
        <time>2025-11-05T23:51:46.579Z</time>
      </trkpt>
      <trkpt lat="51.917986" lon="8.761837">
        <ele>196.557785</ele>
        <time>2025-11-05T23:51:54.811Z</time>
      </trkpt>
      <trkpt lat="51.918154" lon="8.762107">
        <ele>197.031735</ele>
        <time>2025-11-05T23:52:00.129Z</time>
      </trkpt>
      <trkpt lat="51.918501" lon="8.762426">
        <ele>197.261339</ele>
        <time>2025-11-05T23:52:08.930Z</time>
      </trkpt>
      <trkpt lat="51.918629" lon="8.762491">
        <ele>197.335441</ele>
        <time>2025-11-05T23:52:11.831Z</time>
      </trkpt>
      <trkpt lat="51.918838" lon="8.762533">
        <ele>197.451789</ele>
        <time>2025-11-05T23:52:16.305Z</time>
      </trkpt>
      <trkpt lat="51.920799" lon="8.762192">
        <ele>199.849387</ele>
        <time>2025-11-05T23:52:59.535Z</time>
      </trkpt>
      <trkpt lat="51.920857" lon="8.762182">
        <ele>199.965368</ele>
        <time>2025-11-05T23:53:00.934Z</time>
      </trkpt>
      <trkpt lat="51.920993" lon="8.762159">
        <ele>200.237264</ele>
        <time>2025-11-05T23:53:04.248Z</time>
      </trkpt>
      <trkpt lat="51.921166" lon="8.762196">
        <ele>200.584247</ele>
        <time>2025-11-05T23:53:08.476Z</time>
      </trkpt>
      <trkpt lat="51.921270" lon="8.762284">
        <ele>200.817512</ele>
        <time>2025-11-05T23:53:11.345Z</time>
      </trkpt>
      <trkpt lat="51.921389" lon="8.762519">
        <ele>201.190404</ele>
        <time>2025-11-05T23:53:15.997Z</time>
      </trkpt>
      <trkpt lat="51.921430" lon="8.762806">
        <ele>201.551688</ele>
        <time>2025-11-05T23:53:20.559Z</time>
      </trkpt>
      <trkpt lat="51.921779" lon="8.762776">
        <ele>202.537872</ele>
        <time>2025-11-05T23:53:29.569Z</time>
      </trkpt>
      <trkpt lat="51.921914" lon="8.762765">
        <ele>202.930518</ele>
        <time>2025-11-05T23:53:33.079Z</time>
      </trkpt>
      <trkpt lat="51.922055" lon="8.762730">
        <ele>203.344871</ele>
        <time>2025-11-05T23:53:36.722Z</time>
      </trkpt>
      <trkpt lat="51.922157" lon="8.762689">
        <ele>203.650132</ele>
        <time>2025-11-05T23:53:39.411Z</time>
      </trkpt>
      <trkpt lat="51.922176" lon="8.762723">
        <ele>203.732329</ele>
        <time>2025-11-05T23:53:40.102Z</time>
      </trkpt>
      <trkpt lat="51.922270" lon="8.762800">
        <ele>204.038250</ele>
        <time>2025-11-05T23:53:42.685Z</time>
      </trkpt>
      <trkpt lat="51.922640" lon="8.763318">
        <ele>205.458226</ele>
        <time>2025-11-05T23:53:54.116Z</time>
      </trkpt>
      <trkpt lat="51.923419" lon="8.764456">
        <ele>207.737774</ele>
        <time>2025-11-05T23:54:18.655Z</time>
      </trkpt>
      <trkpt lat="51.923480" lon="8.764647">
        <ele>207.945728</ele>
        <time>2025-11-05T23:54:21.721Z</time>
      </trkpt>
      <trkpt lat="51.923530" lon="8.764654">
        <ele>208.024404</ele>
        <time>2025-11-05T23:54:22.881Z</time>
      </trkpt>
      <trkpt lat="51.923563" lon="8.764660">
        <ele>208.076462</ele>
        <time>2025-11-05T23:54:23.622Z</time>
      </trkpt>
      <trkpt lat="51.923645" lon="8.764768">
        <ele>208.242076</ele>
        <time>2025-11-05T23:54:26.067Z</time>
      </trkpt>
      <trkpt lat="51.923671" lon="8.764855">
        <ele>208.335544</ele>
        <time>2025-11-05T23:54:27.434Z</time>
      </trkpt>
      <trkpt lat="51.923682" lon="8.764913">
        <ele>208.394211</ele>
        <time>2025-11-05T23:54:28.302Z</time>
      </trkpt>
      <trkpt lat="51.923825" lon="8.764972">
        <ele>208.625534</ele>
        <time>2025-11-05T23:54:31.688Z</time>
      </trkpt>
      <trkpt lat="51.924105" lon="8.765317">
        <ele>209.176836</ele>
        <time>2025-11-05T23:54:39.759Z</time>
      </trkpt>
      <trkpt lat="51.924428" lon="8.765643">
        <ele>209.688359</ele>
        <time>2025-11-05T23:54:48.476Z</time>
      </trkpt>
      <trkpt lat="51.924987" lon="8.766035">
        <ele>209.932788</ele>
        <time>2025-11-05T23:55:01.880Z</time>
      </trkpt>
      <trkpt lat="51.925073" lon="8.766074">
        <ele>209.968627</ele>
        <time>2025-11-05T23:55:03.731Z</time>
      </trkpt>
      <trkpt lat="51.926117" lon="8.766505">
        <ele>210.351402</ele>
        <time>2025-11-05T23:55:26.461Z</time>
      </trkpt>
      <trkpt lat="51.926303" lon="8.766609">
        <ele>210.234446</ele>
        <time>2025-11-05T23:55:30.749Z</time>
      </trkpt>
      <trkpt lat="51.926498" lon="8.766730">
        <ele>210.110332</ele>
        <time>2025-11-05T23:55:35.309Z</time>
      </trkpt>
      <trkpt lat="51.927052" lon="8.767203">
        <ele>209.738150</ele>
        <time>2025-11-05T23:55:48.778Z</time>
      </trkpt>
      <trkpt lat="51.927337" lon="8.767561">
        <ele>209.523849</ele>
        <time>2025-11-05T23:55:56.133Z</time>
      </trkpt>
      <trkpt lat="51.927690" lon="8.768218">
        <ele>208.491073</ele>
        <time>2025-11-05T23:56:05.608Z</time>
      </trkpt>
      <trkpt lat="51.927898" lon="8.768678">
        <ele>206.892951</ele>
        <time>2025-11-05T23:56:11.199Z</time>
      </trkpt>
      <trkpt lat="51.928854" lon="8.771037">
        <ele>199.599621</ele>
        <time>2025-11-05T23:56:36.972Z</time>
      </trkpt>
      <trkpt lat="51.930241" lon="8.774442">
        <ele>193.232810</ele>
        <time>2025-11-05T23:57:20.455Z</time>
      </trkpt>
      <trkpt lat="51.930574" lon="8.775093">
        <ele>192.328238</ele>
        <time>2025-11-05T23:57:30.908Z</time>
      </trkpt>
      <trkpt lat="51.930815" lon="8.775433">
        <ele>191.683688</ele>
        <time>2025-11-05T23:57:37.203Z</time>
      </trkpt>
      <trkpt lat="51.930914" lon="8.775552">
        <ele>191.422388</ele>
        <time>2025-11-05T23:57:39.599Z</time>
      </trkpt>
      <trkpt lat="51.931627" lon="8.776368">
        <ele>189.571958</ele>
        <time>2025-11-05T23:57:55.384Z</time>
      </trkpt>
      <trkpt lat="51.931997" lon="8.776920">
        <ele>188.505921</ele>
        <time>2025-11-05T23:58:03.564Z</time>
      </trkpt>
      <trkpt lat="51.932183" lon="8.777274">
        <ele>187.282713</ele>
        <time>2025-11-05T23:58:08.152Z</time>
      </trkpt>
      <trkpt lat="51.932920" lon="8.778980">
        <ele>180.988862</ele>
        <time>2025-11-05T23:58:27.528Z</time>
      </trkpt>
      <trkpt lat="51.933017" lon="8.779143">
        <ele>180.304406</ele>
        <time>2025-11-05T23:58:29.580Z</time>
      </trkpt>
      <trkpt lat="51.933153" lon="8.779281">
        <ele>179.516715</ele>
        <time>2025-11-05T23:58:31.933Z</time>
      </trkpt>
      <trkpt lat="51.933272" lon="8.779333">
        <ele>178.885662</ele>
        <time>2025-11-05T23:58:33.734Z</time>
      </trkpt>
      <trkpt lat="51.933580" lon="8.779328">
        <ele>177.308510</ele>
        <time>2025-11-05T23:58:38.238Z</time>
      </trkpt>
      <trkpt lat="51.933907" lon="8.779265">
        <ele>175.622378</ele>
        <time>2025-11-05T23:58:43.059Z</time>
      </trkpt>
      <trkpt lat="51.935485" lon="8.778985">
        <ele>168.047339</ele>
        <time>2025-11-05T23:59:07.432Z</time>
      </trkpt>
      <trkpt lat="51.937380" lon="8.778664">
        <ele>160.593009</ele>
        <time>2025-11-05T23:59:37.450Z</time>
      </trkpt>
      <trkpt lat="51.938341" lon="8.778496">
        <ele>157.198847</ele>
        <time>2025-11-05T23:59:53.136Z</time>
      </trkpt>
      <trkpt lat="51.939081" lon="8.778340">
        <ele>154.529869</ele>
        <time>2025-11-06T00:00:05.201Z</time>
      </trkpt>
      <trkpt lat="51.939329" lon="8.778305">
        <ele>153.634768</ele>
        <time>2025-11-06T00:00:09.222Z</time>
      </trkpt>
      <trkpt lat="51.939568" lon="8.778262">
        <ele>152.770126</ele>
        <time>2025-11-06T00:00:13.094Z</time>
      </trkpt>
      <trkpt lat="51.939773" lon="8.778223">
        <ele>152.027957</ele>
        <time>2025-11-06T00:00:16.376Z</time>
      </trkpt>
      <trkpt lat="51.940333" lon="8.778108">
        <ele>150.009600</ele>
        <time>2025-11-06T00:00:25.231Z</time>
      </trkpt>
      <trkpt lat="51.940359" lon="8.778099">
        <ele>149.921732</ele>
        <time>2025-11-06T00:00:25.641Z</time>
      </trkpt>
      <trkpt lat="51.941643" lon="8.777876">
        <ele>145.653710</ele>
        <time>2025-11-06T00:00:45.965Z</time>
      </trkpt>
      <trkpt lat="51.942103" lon="8.777919">
        <ele>144.173835</ele>
        <time>2025-11-06T00:00:53.969Z</time>
      </trkpt>
      <trkpt lat="51.942429" lon="8.778067">
        <ele>143.823198</ele>
        <time>2025-11-06T00:01:00.390Z</time>
      </trkpt>
      <trkpt lat="51.942475" lon="8.778094">
        <ele>143.772529</ele>
        <time>2025-11-06T00:01:01.361Z</time>
      </trkpt>
      <trkpt lat="51.942640" lon="8.778220">
        <ele>143.583637</ele>
        <time>2025-11-06T00:01:04.950Z</time>
      </trkpt>
      <trkpt lat="51.943118" lon="8.778699">
        <ele>143.001688</ele>
        <time>2025-11-06T00:01:16.471Z</time>
      </trkpt>
      <trkpt lat="51.944631" lon="8.780198">
        <ele>140.967499</ele>
        <time>2025-11-06T00:01:50.779Z</time>
      </trkpt>
      <trkpt lat="51.944735" lon="8.780296">
        <ele>140.821763</ele>
        <time>2025-11-06T00:01:52.925Z</time>
      </trkpt>
      <trkpt lat="51.945223" lon="8.780759">
        <ele>140.135583</ele>
        <time>2025-11-06T00:02:03.224Z</time>
      </trkpt>
      <trkpt lat="51.945258" lon="8.780792">
        <ele>140.082558</ele>
        <time>2025-11-06T00:02:03.968Z</time>
      </trkpt>
      <trkpt lat="51.945436" lon="8.780966">
        <ele>139.810349</ele>
        <time>2025-11-06T00:02:07.905Z</time>
      </trkpt>
      <trkpt lat="51.945544" lon="8.781120">
        <ele>139.622008</ele>
        <time>2025-11-06T00:02:10.546Z</time>
      </trkpt>
      <trkpt lat="51.945839" lon="8.781532">
        <ele>139.112141</ele>
        <time>2025-11-06T00:02:17.536Z</time>
      </trkpt>
      <trkpt lat="51.946104" lon="8.781892">
        <ele>138.659405</ele>
        <time>2025-11-06T00:02:23.727Z</time>
      </trkpt>
      <trkpt lat="51.946118" lon="8.781959">
        <ele>138.602286</ele>
        <time>2025-11-06T00:02:24.530Z</time>
      </trkpt>
      <trkpt lat="51.946180" lon="8.782055">
        <ele>138.490023</ele>
        <time>2025-11-06T00:02:26.133Z</time>
      </trkpt>
      <trkpt lat="51.946239" lon="8.782148">
        <ele>138.382271</ele>
        <time>2025-11-06T00:02:27.724Z</time>
      </trkpt>
      <trkpt lat="51.946276" lon="8.782151">
        <ele>138.333747</ele>
        <time>2025-11-06T00:02:28.454Z</time>
      </trkpt>
      <trkpt lat="51.946370" lon="8.782350">
        <ele>138.131324</ele>
        <time>2025-11-06T00:02:31.519Z</time>
      </trkpt>
      <trkpt lat="51.946523" lon="8.782888">
        <ele>137.766866</ele>
        <time>2025-11-06T00:02:38.889Z</time>
      </trkpt>
      <trkpt lat="51.946763" lon="8.783747">
        <ele>137.615799</ele>
        <time>2025-11-06T00:02:50.484Z</time>
      </trkpt>
      <trkpt lat="51.946821" lon="8.783895">
        <ele>137.587707</ele>
        <time>2025-11-06T00:02:52.679Z</time>
      </trkpt>
      <trkpt lat="51.947376" lon="8.785083">
        <ele>137.348939</ele>
        <time>2025-11-06T00:03:12.101Z</time>
      </trkpt>
      <trkpt lat="51.947922" lon="8.786379">
        <ele>137.390584</ele>
        <time>2025-11-06T00:03:32.599Z</time>
      </trkpt>
      <trkpt lat="51.948409" lon="8.787651">
        <ele>137.451137</ele>
        <time>2025-11-06T00:03:52.292Z</time>
      </trkpt>
      <trkpt lat="51.948515" lon="8.788049">
        <ele>137.336657</ele>
        <time>2025-11-06T00:03:57.936Z</time>
      </trkpt>
      <trkpt lat="51.948572" lon="8.788393">
        <ele>137.242601</ele>
        <time>2025-11-06T00:04:02.527Z</time>
      </trkpt>
      <trkpt lat="51.948721" lon="8.789860">
        <ele>136.850025</ele>
        <time>2025-11-06T00:04:21.131Z</time>
      </trkpt>
      <trkpt lat="51.948790" lon="8.790406">
        <ele>136.702858</ele>
        <time>2025-11-06T00:04:27.897Z</time>
      </trkpt>
      <trkpt lat="51.948895" lon="8.790940">
        <ele>136.279686</ele>
        <time>2025-11-06T00:04:34.616Z</time>
      </trkpt>
      <trkpt lat="51.949242" lon="8.792266">
        <ele>135.094595</ele>
        <time>2025-11-06T00:04:51.324Z</time>
      </trkpt>
      <trkpt lat="51.949360" lon="8.792679">
        <ele>134.720110</ele>
        <time>2025-11-06T00:04:56.412Z</time>
      </trkpt>
      <trkpt lat="51.949392" lon="8.792795">
        <ele>134.615561</ele>
        <time>2025-11-06T00:04:57.840Z</time>
      </trkpt>
      <trkpt lat="51.949553" lon="8.793425">
        <ele>133.993988</ele>
        <time>2025-11-06T00:05:05.407Z</time>
      </trkpt>
      <trkpt lat="51.949686" lon="8.793960">
        <ele>133.394419</ele>
        <time>2025-11-06T00:05:11.788Z</time>
      </trkpt>
      <trkpt lat="51.950002" lon="8.795534">
        <ele>131.673922</ele>
        <time>2025-11-06T00:05:30.156Z</time>
      </trkpt>
      <trkpt lat="51.950474" lon="8.797916">
        <ele>129.158829</ele>
        <time>2025-11-06T00:05:57.944Z</time>
      </trkpt>
      <trkpt lat="51.950670" lon="8.798517">
        <ele>128.479850</ele>
        <time>2025-11-06T00:06:05.584Z</time>
      </trkpt>
      <trkpt lat="51.951315" lon="8.799843">
        <ele>127.336093</ele>
        <time>2025-11-06T00:06:25.277Z</time>
      </trkpt>
      <trkpt lat="51.953080" lon="8.803476">
        <ele>124.826286</ele>
        <time>2025-11-06T00:07:21.607Z</time>
      </trkpt>
      <trkpt lat="51.953458" lon="8.804268">
        <ele>124.209119</ele>
        <time>2025-11-06T00:07:33.621Z</time>
      </trkpt>
      <trkpt lat="51.953580" lon="8.804582">
        <ele>123.980427</ele>
        <time>2025-11-06T00:07:38.055Z</time>
      </trkpt>
      <trkpt lat="51.954345" lon="8.807405">
        <ele>121.705186</ele>
        <time>2025-11-06T00:08:14.395Z</time>
      </trkpt>
      <trkpt lat="51.955191" lon="8.810644">
        <ele>118.602811</ele>
        <time>2025-11-06T00:08:53.717Z</time>
      </trkpt>
      <trkpt lat="51.955280" lon="8.811308">
        <ele>118.135945</ele>
        <time>2025-11-06T00:09:01.689Z</time>
      </trkpt>
      <trkpt lat="51.955270" lon="8.811729">
        <ele>118.024547</ele>
        <time>2025-11-06T00:09:06.784Z</time>
      </trkpt>
      <trkpt lat="51.955301" lon="8.812561">
        <ele>117.804159</ele>
        <time>2025-11-06T00:09:17.126Z</time>
      </trkpt>
      <trkpt lat="51.955288" lon="8.812623">
        <ele>117.786843</ele>
        <time>2025-11-06T00:09:17.945Z</time>
      </trkpt>
      <trkpt lat="51.955242" lon="8.812704">
        <ele>117.757719</ele>
        <time>2025-11-06T00:09:19.334Z</time>
      </trkpt>
      <trkpt lat="51.955257" lon="8.812861">
        <ele>117.715711</ele>
        <time>2025-11-06T00:09:21.341Z</time>
      </trkpt>
      <trkpt lat="51.955260" lon="8.812998">
        <ele>117.679465</ele>
        <time>2025-11-06T00:09:23.096Z</time>
      </trkpt>
      <trkpt lat="51.955305" lon="8.813051">
        <ele>117.655608</ele>
        <time>2025-11-06T00:09:24.244Z</time>
      </trkpt>
      <trkpt lat="51.955327" lon="8.813187">
        <ele>117.618431</ele>
        <time>2025-11-06T00:09:26.071Z</time>
      </trkpt>
      <trkpt lat="51.955309" lon="8.814099">
        <ele>117.358472</ele>
        <time>2025-11-06T00:09:38.069Z</time>
      </trkpt>
      <trkpt lat="51.955275" lon="8.814235">
        <ele>117.304876</ele>
        <time>2025-11-06T00:09:40.031Z</time>
      </trkpt>
      <trkpt lat="51.955233" lon="8.814401">
        <ele>117.239346</ele>
        <time>2025-11-06T00:09:42.468Z</time>
      </trkpt>
      <trkpt lat="51.955025" lon="8.814939">
        <ele>117.007418</ele>
        <time>2025-11-06T00:09:50.949Z</time>
      </trkpt>
      <trkpt lat="51.954915" lon="8.815107">
        <ele>116.917905</ele>
        <time>2025-11-06T00:09:54.114Z</time>
      </trkpt>
      <trkpt lat="51.954950" lon="8.815180">
        <ele>116.884129</ele>
        <time>2025-11-06T00:09:55.367Z</time>
      </trkpt>
      <trkpt lat="51.955071" lon="8.815010">
        <ele>116.789287</ele>
        <time>2025-11-06T00:09:58.610Z</time>
      </trkpt>
      <trkpt lat="51.955216" lon="8.815211">
        <ele>116.676282</ele>
        <time>2025-11-06T00:10:02.403Z</time>
      </trkpt>
      <trkpt lat="51.955352" lon="8.815409">
        <ele>116.568011</ele>
        <time>2025-11-06T00:10:05.934Z</time>
      </trkpt>
      <trkpt lat="51.955375" lon="8.815450">
        <ele>116.547764</ele>
        <time>2025-11-06T00:10:06.592Z</time>
      </trkpt>
      <trkpt lat="51.955413" lon="8.815512">
        <ele>116.515832</ele>
        <time>2025-11-06T00:10:07.624Z</time>
      </trkpt>
      <trkpt lat="51.956468" lon="8.817162">
        <ele>114.164870</ele>
        <time>2025-11-06T00:10:32.916Z</time>
      </trkpt>
      <trkpt lat="51.956772" lon="8.817650">
        <ele>113.384432</ele>
        <time>2025-11-06T00:10:40.500Z</time>
      </trkpt>
      <trkpt lat="51.956953" lon="8.817922">
        <ele>113.105526</ele>
        <time>2025-11-06T00:10:45.152Z</time>
      </trkpt>
      <trkpt lat="51.957730" lon="8.819106">
        <ele>113.482026</ele>
        <time>2025-11-06T00:11:07.089Z</time>
      </trkpt>
      <trkpt lat="51.957825" lon="8.819252">
        <ele>113.528243</ele>
        <time>2025-11-06T00:11:10.028Z</time>
      </trkpt>
      <trkpt lat="51.957785" lon="8.819328">
        <ele>113.549999</ele>
        <time>2025-11-06T00:11:11.421Z</time>
      </trkpt>
      <trkpt lat="51.957897" lon="8.819524">
        <ele>113.608183</ele>
        <time>2025-11-06T00:11:15.166Z</time>
      </trkpt>
      <trkpt lat="51.958027" lon="8.819688">
        <ele>113.666347</ele>
        <time>2025-11-06T00:11:18.964Z</time>
      </trkpt>
      <trkpt lat="51.958297" lon="8.820167">
        <ele>114.800826</ele>
        <time>2025-11-06T00:11:28.324Z</time>
      </trkpt>
      <trkpt lat="51.958993" lon="8.821514">
        <ele>119.201680</ele>
        <time>2025-11-06T00:11:55.824Z</time>
      </trkpt>
      <trkpt lat="51.959480" lon="8.822082">
        <ele>121.867281</ele>
        <time>2025-11-06T00:12:12.624Z</time>
      </trkpt>
      <trkpt lat="51.959934" lon="8.822568">
        <ele>124.896191</ele>
        <time>2025-11-06T00:12:28.229Z</time>
      </trkpt>
      <trkpt lat="51.960133" lon="8.822776">
        <ele>126.214418</ele>
        <time>2025-11-06T00:12:35.035Z</time>
      </trkpt>
      <trkpt lat="51.960197" lon="8.822681">
        <ele>126.697451</ele>
        <time>2025-11-06T00:12:37.541Z</time>
      </trkpt>
      <trkpt lat="51.960262" lon="8.822748">
        <ele>127.126290</ele>
        <time>2025-11-06T00:12:39.742Z</time>
      </trkpt>
      <trkpt lat="51.960331" lon="8.822814">
        <ele>127.572339</ele>
        <time>2025-11-06T00:12:42.053Z</time>
      </trkpt>
      <trkpt lat="51.961551" lon="8.824067">
        <ele>133.457668</ele>
        <time>2025-11-06T00:13:20.110Z</time>
      </trkpt>
      <trkpt lat="51.962159" lon="8.824819">
        <ele>135.709694</ele>
        <time>2025-11-06T00:13:37.907Z</time>
      </trkpt>
      <trkpt lat="51.962306" lon="8.825037">
        <ele>136.296324</ele>
        <time>2025-11-06T00:13:42.331Z</time>
      </trkpt>
      <trkpt lat="51.962865" lon="8.825867">
        <ele>136.910592</ele>
        <time>2025-11-06T00:13:58.722Z</time>
      </trkpt>
      <trkpt lat="51.963251" lon="8.826368">
        <ele>137.292275</ele>
        <time>2025-11-06T00:14:09.653Z</time>
      </trkpt>
      <trkpt lat="51.965264" lon="8.828458">
        <ele>139.485749</ele>
        <time>2025-11-06T00:15:03.665Z</time>
      </trkpt>
      <trkpt lat="51.965626" lon="8.828920">
        <ele>139.307994</ele>
        <time>2025-11-06T00:15:13.664Z</time>
      </trkpt>
      <trkpt lat="51.965912" lon="8.829372">
        <ele>139.153910</ele>
        <time>2025-11-06T00:15:21.998Z</time>
      </trkpt>
      <trkpt lat="51.966989" lon="8.831387">
        <ele>137.900699</ele>
        <time>2025-11-06T00:15:53.462Z</time>
      </trkpt>
      <trkpt lat="51.967785" lon="8.832925">
        <ele>136.393926</ele>
        <time>2025-11-06T00:16:16.621Z</time>
      </trkpt>
      <trkpt lat="51.967974" lon="8.833291">
        <ele>136.053351</ele>
        <time>2025-11-06T00:16:22.283Z</time>
      </trkpt>
      <trkpt lat="51.968050" lon="8.833455">
        <ele>135.907001</ele>
        <time>2025-11-06T00:16:24.715Z</time>
      </trkpt>
      <trkpt lat="51.968096" lon="8.833576">
        <ele>135.805603</ele>
        <time>2025-11-06T00:16:26.408Z</time>
      </trkpt>
      <trkpt lat="51.968142" lon="8.833713">
        <ele>135.694334</ele>
        <time>2025-11-06T00:16:28.272Z</time>
      </trkpt>
      <trkpt lat="51.968232" lon="8.834027">
        <ele>135.447356</ele>
        <time>2025-11-06T00:16:32.386Z</time>
      </trkpt>
      <trkpt lat="51.968462" lon="8.834830">
        <ele>134.815833</ele>
        <time>2025-11-06T00:16:42.931Z</time>
      </trkpt>
      <trkpt lat="51.968924" lon="8.835679">
        <ele>133.791079</ele>
        <time>2025-11-06T00:16:56.046Z</time>
      </trkpt>
      <trkpt lat="51.969394" lon="8.836483">
        <ele>132.661659</ele>
        <time>2025-11-06T00:17:08.404Z</time>
      </trkpt>
      <trkpt lat="51.970306" lon="8.838209">
        <ele>130.205091</ele>
        <time>2025-11-06T00:17:33.296Z</time>
      </trkpt>
      <trkpt lat="51.971617" lon="8.840310">
        <ele>127.104754</ele>
        <time>2025-11-06T00:18:06.027Z</time>
      </trkpt>
      <trkpt lat="51.972437" lon="8.841488">
        <ele>125.495598</ele>
        <time>2025-11-06T00:18:26.878Z</time>
      </trkpt>
      <trkpt lat="51.972777" lon="8.841837">
        <ele>124.785308</ele>
        <time>2025-11-06T00:18:34.732Z</time>
      </trkpt>
      <trkpt lat="51.972976" lon="8.841979">
        <ele>124.401486</ele>
        <time>2025-11-06T00:18:38.908Z</time>
      </trkpt>
      <trkpt lat="51.973716" lon="8.842342">
        <ele>123.036520</ele>
        <time>2025-11-06T00:18:52.836Z</time>
      </trkpt>
      <trkpt lat="51.973873" lon="8.842474">
        <ele>122.724331</ele>
        <time>2025-11-06T00:18:55.889Z</time>
      </trkpt>
      <trkpt lat="51.974929" lon="8.843662">
        <ele>118.977184</ele>
        <time>2025-11-06T00:19:16.658Z</time>
      </trkpt>
      <trkpt lat="51.974966" lon="8.843708">
        <ele>118.833242</ele>
        <time>2025-11-06T00:19:17.403Z</time>
      </trkpt>
      <trkpt lat="51.975625" lon="8.844481">
        <ele>116.540264</ele>
        <time>2025-11-06T00:19:30.767Z</time>
      </trkpt>
      <trkpt lat="51.975674" lon="8.844532">
        <ele>116.431564</ele>
        <time>2025-11-06T00:19:31.760Z</time>
      </trkpt>
      <trkpt lat="51.976432" lon="8.845101">
        <ele>114.871995</ele>
        <time>2025-11-06T00:19:46.034Z</time>
      </trkpt>
      <trkpt lat="51.976703" lon="8.845340">
        <ele>114.296046</ele>
        <time>2025-11-06T00:19:51.869Z</time>
      </trkpt>
      <trkpt lat="51.976770" lon="8.845420">
        <ele>114.140725</ele>
        <time>2025-11-06T00:19:53.483Z</time>
      </trkpt>
      <trkpt lat="51.977087" lon="8.845798">
        <ele>113.562977</ele>
        <time>2025-11-06T00:20:01.250Z</time>
      </trkpt>
      <trkpt lat="51.977101" lon="8.845815">
        <ele>113.577397</ele>
        <time>2025-11-06T00:20:01.602Z</time>
      </trkpt>
      <trkpt lat="51.977202" lon="8.845926">
        <ele>113.677994</ele>
        <time>2025-11-06T00:20:04.064Z</time>
      </trkpt>
      <trkpt lat="51.977389" lon="8.846112">
        <ele>113.858877</ele>
        <time>2025-11-06T00:20:08.532Z</time>
      </trkpt>
      <trkpt lat="51.977792" lon="8.846490">
        <ele>114.242756</ele>
        <time>2025-11-06T00:20:18.731Z</time>
      </trkpt>
      <trkpt lat="51.977916" lon="8.846571">
        <ele>114.352999</ele>
        <time>2025-11-06T00:20:21.818Z</time>
      </trkpt>
      <trkpt lat="51.978029" lon="8.846600">
        <ele>114.447357</ele>
        <time>2025-11-06T00:20:24.466Z</time>
      </trkpt>
      <trkpt lat="51.978259" lon="8.846585">
        <ele>114.637212</ele>
        <time>2025-11-06T00:20:29.791Z</time>
      </trkpt>
      <trkpt lat="51.978747" lon="8.846422">
        <ele>115.169862</ele>
        <time>2025-11-06T00:20:41.310Z</time>
      </trkpt>
      <trkpt lat="51.978906" lon="8.846309">
        <ele>115.663700</ele>
        <time>2025-11-06T00:20:45.309Z</time>
      </trkpt>
      <trkpt lat="51.978997" lon="8.846160">
        <ele>116.031427</ele>
        <time>2025-11-06T00:20:48.352Z</time>
      </trkpt>
      <trkpt lat="51.979248" lon="8.845606">
        <ele>117.236685</ele>
        <time>2025-11-06T00:20:58.390Z</time>
      </trkpt>
      <trkpt lat="51.979525" lon="8.845119">
        <ele>118.398388</ele>
        <time>2025-11-06T00:21:08.236Z</time>
      </trkpt>
      <trkpt lat="51.979598" lon="8.845008">
        <ele>118.682959</ele>
        <time>2025-11-06T00:21:10.698Z</time>
      </trkpt>
      <trkpt lat="51.979840" lon="8.844832">
        <ele>119.437432</ele>
        <time>2025-11-06T00:21:17.219Z</time>
      </trkpt>
      <trkpt lat="51.980019" lon="8.844825">
        <ele>119.946875</ele>
        <time>2025-11-06T00:21:21.697Z</time>
      </trkpt>
      <trkpt lat="51.980118" lon="8.844867">
        <ele>120.297400</ele>
        <time>2025-11-06T00:21:24.325Z</time>
      </trkpt>
      <trkpt lat="51.980524" lon="8.845317">
        <ele>122.376892</ele>
        <time>2025-11-06T00:21:37.414Z</time>
      </trkpt>
      <trkpt lat="51.980752" lon="8.845478">
        <ele>123.428640</ele>
        <time>2025-11-06T00:21:44.144Z</time>
      </trkpt>
      <trkpt lat="51.980804" lon="8.846100">
        <ele>125.064096</ele>
        <time>2025-11-06T00:21:54.194Z</time>
      </trkpt>
      <trkpt lat="51.980804" lon="8.846766">
        <ele>126.799330</ele>
        <time>2025-11-06T00:22:04.831Z</time>
      </trkpt>
      <trkpt lat="51.980766" lon="8.847591">
        <ele>128.473631</ele>
        <time>2025-11-06T00:22:17.657Z</time>
      </trkpt>
      <trkpt lat="51.980741" lon="8.848139">
        <ele>129.345358</ele>
        <time>2025-11-06T00:22:25.988Z</time>
      </trkpt>
      <trkpt lat="51.980758" lon="8.848288">
        <ele>129.585752</ele>
        <time>2025-11-06T00:22:28.263Z</time>
      </trkpt>
      <trkpt lat="51.980781" lon="8.848456">
        <ele>129.858771</ele>
        <time>2025-11-06T00:22:30.839Z</time>
      </trkpt>
      <trkpt lat="51.980911" lon="8.849097">
        <ele>130.929356</ele>
        <time>2025-11-06T00:22:40.727Z</time>
      </trkpt>
      <trkpt lat="51.981161" lon="8.849625">
        <ele>131.985865</ele>
        <time>2025-11-06T00:22:50.199Z</time>
      </trkpt>
      <trkpt lat="51.981397" lon="8.849986">
        <ele>132.496106</ele>
        <time>2025-11-06T00:22:57.508Z</time>
      </trkpt>
      <trkpt lat="51.981843" lon="8.850472">
        <ele>132.910522</ele>
        <time>2025-11-06T00:23:09.296Z</time>
      </trkpt>
      <trkpt lat="51.982329" lon="8.851007">
        <ele>133.363543</ele>
        <time>2025-11-06T00:23:22.085Z</time>
      </trkpt>
      <trkpt lat="51.982418" lon="8.851194">
        <ele>133.475842</ele>
        <time>2025-11-06T00:23:25.274Z</time>
      </trkpt>
      <trkpt lat="51.982469" lon="8.851371">
        <ele>133.568699</ele>
        <time>2025-11-06T00:23:27.942Z</time>
      </trkpt>
      <trkpt lat="51.982543" lon="8.851356">
        <ele>133.626235</ele>
        <time>2025-11-06T00:23:29.598Z</time>
      </trkpt>
      <trkpt lat="51.983136" lon="8.851738">
        <ele>133.920928</ele>
        <time>2025-11-06T00:23:44.048Z</time>
      </trkpt>
      <trkpt lat="51.983342" lon="8.851831">
        <ele>133.998672</ele>
        <time>2025-11-06T00:23:48.898Z</time>
      </trkpt>
      <trkpt lat="51.983849" lon="8.851944">
        <ele>134.184750</ele>
        <time>2025-11-06T00:24:00.135Z</time>
      </trkpt>
      <trkpt lat="51.983991" lon="8.851978">
        <ele>134.236940</ele>
        <time>2025-11-06T00:24:03.164Z</time>
      </trkpt>
      <trkpt lat="51.984288" lon="8.852058">
        <ele>134.346408</ele>
        <time>2025-11-06T00:24:09.348Z</time>
      </trkpt>
      <trkpt lat="51.984629" lon="8.852143">
        <ele>134.232478</ele>
        <time>2025-11-06T00:24:16.179Z</time>
      </trkpt>
      <trkpt lat="51.984951" lon="8.852220">
        <ele>133.962672</ele>
        <time>2025-11-06T00:24:22.464Z</time>
      </trkpt>
      <trkpt lat="51.985430" lon="8.852331">
        <ele>133.561575</ele>
        <time>2025-11-06T00:24:31.572Z</time>
      </trkpt>
      <trkpt lat="51.985534" lon="8.852364">
        <ele>133.473732</ele>
        <time>2025-11-06T00:24:33.581Z</time>
      </trkpt>
      <trkpt lat="51.986279" lon="8.852526">
        <ele>132.869918</ele>
        <time>2025-11-06T00:24:48.515Z</time>
      </trkpt>
      <trkpt lat="51.987082" lon="8.852712">
        <ele>132.424076</ele>
        <time>2025-11-06T00:25:05.045Z</time>
      </trkpt>
      <trkpt lat="51.987293" lon="8.852777">
        <ele>132.306030</ele>
        <time>2025-11-06T00:25:09.384Z</time>
      </trkpt>
      <trkpt lat="51.987497" lon="8.852887">
        <ele>132.187879</ele>
        <time>2025-11-06T00:25:13.735Z</time>
      </trkpt>
      <trkpt lat="51.987969" lon="8.853379">
        <ele>131.873041</ele>
        <time>2025-11-06T00:25:24.859Z</time>
      </trkpt>
      <trkpt lat="51.989007" lon="8.854412">
        <ele>131.093343</ele>
        <time>2025-11-06T00:25:48.867Z</time>
      </trkpt>
      <trkpt lat="51.990334" lon="8.855994">
        <ele>130.606393</ele>
        <time>2025-11-06T00:26:22.685Z</time>
      </trkpt>
      <trkpt lat="51.991097" lon="8.856745">
        <ele>130.576477</ele>
        <time>2025-11-06T00:26:41.549Z</time>
      </trkpt>
      <trkpt lat="51.991979" lon="8.857757">
        <ele>130.874661</ele>
        <time>2025-11-06T00:27:05.075Z</time>
      </trkpt>
      <trkpt lat="51.992920" lon="8.858986">
        <ele>130.397986</ele>
        <time>2025-11-06T00:27:31.115Z</time>
      </trkpt>
      <trkpt lat="51.993101" lon="8.859223">
        <ele>130.200406</ele>
        <time>2025-11-06T00:27:35.735Z</time>
      </trkpt>
      <trkpt lat="51.993682" lon="8.859964">
        <ele>129.572623</ele>
        <time>2025-11-06T00:27:49.104Z</time>
      </trkpt>
      <trkpt lat="51.993833" lon="8.860117">
        <ele>129.396071</ele>
        <time>2025-11-06T00:27:52.119Z</time>
      </trkpt>
      <trkpt lat="51.994004" lon="8.860236">
        <ele>129.170805</ele>
        <time>2025-11-06T00:27:55.202Z</time>
      </trkpt>
      <trkpt lat="51.995367" lon="8.860653">
        <ele>127.491372</ele>
        <time>2025-11-06T00:28:19.940Z</time>
      </trkpt>
      <trkpt lat="51.995513" lon="8.860796">
        <ele>127.344625</ele>
        <time>2025-11-06T00:28:23.725Z</time>
      </trkpt>
      <trkpt lat="51.995534" lon="8.860841">
        <ele>127.441343</ele>
        <time>2025-11-06T00:28:24.527Z</time>
      </trkpt>
      <trkpt lat="51.995977" lon="8.862673">
        <ele>130.812686</ele>
        <time>2025-11-06T00:28:54.025Z</time>
      </trkpt>
      <trkpt lat="51.996008" lon="8.863117">
        <ele>131.578080</ele>
        <time>2025-11-06T00:29:00.914Z</time>
      </trkpt>
      <trkpt lat="51.996013" lon="8.864577">
        <ele>135.178886</ele>
        <time>2025-11-06T00:29:23.490Z</time>
      </trkpt>
      <trkpt lat="51.996049" lon="8.864848">
        <ele>135.948500</ele>
        <time>2025-11-06T00:29:27.875Z</time>
      </trkpt>
      <trkpt lat="51.996137" lon="8.865221">
        <ele>137.057368</ele>
        <time>2025-11-06T00:29:34.219Z</time>
      </trkpt>
      <trkpt lat="51.996216" lon="8.865507">
        <ele>137.927545</ele>
        <time>2025-11-06T00:29:39.337Z</time>
      </trkpt>
      <trkpt lat="51.997029" lon="8.868287">
        <ele>146.572135</ele>
        <time>2025-11-06T00:30:31.221Z</time>
      </trkpt>
      <trkpt lat="51.997170" lon="8.868647">
        <ele>147.776312</ele>
        <time>2025-11-06T00:30:37.758Z</time>
      </trkpt>
      <trkpt lat="51.997558" lon="8.869423">
        <ele>148.677635</ele>
        <time>2025-11-06T00:30:52.378Z</time>
      </trkpt>
      <trkpt lat="51.998062" lon="8.870351">
        <ele>148.707867</ele>
        <time>2025-11-06T00:31:08.244Z</time>
      </trkpt>
      <trkpt lat="51.998275" lon="8.870693">
        <ele>148.719751</ele>
        <time>2025-11-06T00:31:13.864Z</time>
      </trkpt>
      <trkpt lat="51.998810" lon="8.871626">
        <ele>147.582794</ele>
        <time>2025-11-06T00:31:27.410Z</time>
      </trkpt>
      <trkpt lat="51.998953" lon="8.871861">
        <ele>147.085547</ele>
        <time>2025-11-06T00:31:30.742Z</time>
      </trkpt>
      <trkpt lat="52.000240" lon="8.874354">
        <ele>142.393984</ele>
        <time>2025-11-06T00:32:04.660Z</time>
      </trkpt>
      <trkpt lat="52.000478" lon="8.874987">
        <ele>141.384184</ele>
        <time>2025-11-06T00:32:12.629Z</time>
      </trkpt>
      <trkpt lat="52.000878" lon="8.876611">
        <ele>139.605868</ele>
        <time>2025-11-06T00:32:31.981Z</time>
      </trkpt>
      <trkpt lat="52.000988" lon="8.877167">
        <ele>139.164528</ele>
        <time>2025-11-06T00:32:38.790Z</time>
      </trkpt>
      <trkpt lat="52.001076" lon="8.877470">
        <ele>138.911347</ele>
        <time>2025-11-06T00:32:42.730Z</time>
      </trkpt>
      <trkpt lat="52.001366" lon="8.877996">
        <ele>138.377747</ele>
        <time>2025-11-06T00:32:51.202Z</time>
      </trkpt>
      <trkpt lat="52.001728" lon="8.878654">
        <ele>137.709885</ele>
        <time>2025-11-06T00:33:02.197Z</time>
      </trkpt>
      <trkpt lat="52.002081" lon="8.879296">
        <ele>137.057926</ele>
        <time>2025-11-06T00:33:12.693Z</time>
      </trkpt>
      <trkpt lat="52.002119" lon="8.879260">
        <ele>137.003805</ele>
        <time>2025-11-06T00:33:13.545Z</time>
      </trkpt>
      <trkpt lat="52.002314" lon="8.879618">
        <ele>136.641760</ele>
        <time>2025-11-06T00:33:19.052Z</time>
      </trkpt>
      <trkpt lat="52.002399" lon="8.879835">
        <ele>136.446957</ele>
        <time>2025-11-06T00:33:21.941Z</time>
      </trkpt>
      <trkpt lat="52.002496" lon="8.880044">
        <ele>136.248717</ele>
        <time>2025-11-06T00:33:24.821Z</time>
      </trkpt>
      <trkpt lat="52.002576" lon="8.880143">
        <ele>136.124986</ele>
        <time>2025-11-06T00:33:26.605Z</time>
      </trkpt>
      <trkpt lat="52.002616" lon="8.880256">
        <ele>136.026261</ele>
        <time>2025-11-06T00:33:28.030Z</time>
      </trkpt>
      <trkpt lat="52.002671" lon="8.880405">
        <ele>135.860371</ele>
        <time>2025-11-06T00:33:29.903Z</time>
      </trkpt>
      <trkpt lat="52.002851" lon="8.880812">
        <ele>135.177085</ele>
        <time>2025-11-06T00:33:35.219Z</time>
      </trkpt>
      <trkpt lat="52.003177" lon="8.881314">
        <ele>134.182203</ele>
        <time>2025-11-06T00:33:42.784Z</time>
      </trkpt>
      <trkpt lat="52.003678" lon="8.881815">
        <ele>132.879195</ele>
        <time>2025-11-06T00:33:52.733Z</time>
      </trkpt>
      <trkpt lat="52.004817" lon="8.882645">
        <ele>130.791146</ele>
        <time>2025-11-06T00:34:15.198Z</time>
      </trkpt>
      <trkpt lat="52.004997" lon="8.882718">
        <ele>130.531418</ele>
        <time>2025-11-06T00:34:18.755Z</time>
      </trkpt>
      <trkpt lat="52.005948" lon="8.883388">
        <ele>129.213178</ele>
        <time>2025-11-06T00:34:38.650Z</time>
      </trkpt>
      <trkpt lat="52.006531" lon="8.883775">
        <ele>128.661041</ele>
        <time>2025-11-06T00:34:50.977Z</time>
      </trkpt>
      <trkpt lat="52.007535" lon="8.884509">
        <ele>127.698897</ele>
        <time>2025-11-06T00:35:12.609Z</time>
      </trkpt>
      <trkpt lat="52.008486" lon="8.885194">
        <ele>126.804093</ele>
        <time>2025-11-06T00:35:33.256Z</time>
      </trkpt>
      <trkpt lat="52.009597" lon="8.885983">
        <ele>125.350531</ele>
        <time>2025-11-06T00:35:56.640Z</time>
      </trkpt>
      <trkpt lat="52.009617" lon="8.886102">
        <ele>125.236531</ele>
        <time>2025-11-06T00:35:58.045Z</time>
      </trkpt>
      <trkpt lat="52.009647" lon="8.886205">
        <ele>125.131225</ele>
        <time>2025-11-06T00:35:59.294Z</time>
      </trkpt>
      <trkpt lat="52.009721" lon="8.886206">
        <ele>125.020119</ele>
        <time>2025-11-06T00:36:00.635Z</time>
      </trkpt>
      <trkpt lat="52.009774" lon="8.886245">
        <ele>124.932763</ele>
        <time>2025-11-06T00:36:01.681Z</time>
      </trkpt>
      <trkpt lat="52.010010" lon="8.886411">
        <ele>124.546652</ele>
        <time>2025-11-06T00:36:06.294Z</time>
      </trkpt>
      <trkpt lat="52.010312" lon="8.886635">
        <ele>124.048214</ele>
        <time>2025-11-06T00:36:12.190Z</time>
      </trkpt>
      <trkpt lat="52.010708" lon="8.886917">
        <ele>123.420646</ele>
        <time>2025-11-06T00:36:19.810Z</time>
      </trkpt>
      <trkpt lat="52.011435" lon="8.887446">
        <ele>122.346204</ele>
        <time>2025-11-06T00:36:34.352Z</time>
      </trkpt>
      <trkpt lat="52.011734" lon="8.887663">
        <ele>121.904501</ele>
        <time>2025-11-06T00:36:40.663Z</time>
      </trkpt>
      <trkpt lat="52.012279" lon="8.888038">
        <ele>121.111269</ele>
        <time>2025-11-06T00:36:52.271Z</time>
      </trkpt>
      <trkpt lat="52.013664" lon="8.889043">
        <ele>119.196341</ele>
        <time>2025-11-06T00:37:21.172Z</time>
      </trkpt>
      <trkpt lat="52.013952" lon="8.889250">
        <ele>118.765138</ele>
        <time>2025-11-06T00:37:26.714Z</time>
      </trkpt>
      <trkpt lat="52.014368" lon="8.889550">
        <ele>118.023976</ele>
        <time>2025-11-06T00:37:34.919Z</time>
      </trkpt>
      <trkpt lat="52.014929" lon="8.889950">
        <ele>117.026328</ele>
        <time>2025-11-06T00:37:46.007Z</time>
      </trkpt>
      <trkpt lat="52.014882" lon="8.890169">
        <ele>116.793877</ele>
        <time>2025-11-06T00:37:48.545Z</time>
      </trkpt>
      <trkpt lat="52.014898" lon="8.890313">
        <ele>116.647222</ele>
        <time>2025-11-06T00:37:50.168Z</time>
      </trkpt>
      <trkpt lat="52.015220" lon="8.891113">
        <ele>115.806653</ele>
        <time>2025-11-06T00:38:00.749Z</time>
      </trkpt>
      <trkpt lat="52.015762" lon="8.892411">
        <ele>114.857147</ele>
        <time>2025-11-06T00:38:19.310Z</time>
      </trkpt>
      <trkpt lat="52.016199" lon="8.893466">
        <ele>114.173598</ele>
        <time>2025-11-06T00:38:34.971Z</time>
      </trkpt>
      <trkpt lat="52.016404" lon="8.894007">
        <ele>114.045439</ele>
        <time>2025-11-06T00:38:43.079Z</time>
      </trkpt>
      <trkpt lat="52.016678" lon="8.894870">
        <ele>113.849551</ele>
        <time>2025-11-06T00:38:55.300Z</time>
      </trkpt>
      <trkpt lat="52.016712" lon="8.894966">
        <ele>113.827208</ele>
        <time>2025-11-06T00:38:56.673Z</time>
      </trkpt>
      <trkpt lat="52.016800" lon="8.895210">
        <ele>113.770159</ele>
        <time>2025-11-06T00:39:00.190Z</time>
      </trkpt>
      <trkpt lat="52.016916" lon="8.895413">
        <ele>113.714280</ele>
        <time>2025-11-06T00:39:03.664Z</time>
      </trkpt>
      <trkpt lat="52.017073" lon="8.895568">
        <ele>113.654065</ele>
        <time>2025-11-06T00:39:07.479Z</time>
      </trkpt>
      <trkpt lat="52.017411" lon="8.895903">
        <ele>113.778700</ele>
        <time>2025-11-06T00:39:15.787Z</time>
      </trkpt>
      <trkpt lat="52.017625" lon="8.896164">
        <ele>113.907907</ele>
        <time>2025-11-06T00:39:21.430Z</time>
      </trkpt>
      <trkpt lat="52.017698" lon="8.896259">
        <ele>113.953069</ele>
        <time>2025-11-06T00:39:23.434Z</time>
      </trkpt>
      <trkpt lat="52.018011" lon="8.896748">
        <ele>114.162738</ele>
        <time>2025-11-06T00:39:32.943Z</time>
      </trkpt>
      <trkpt lat="52.018370" lon="8.897258">
        <ele>114.393001</ele>
        <time>2025-11-06T00:39:43.674Z</time>
      </trkpt>
      <trkpt lat="52.018432" lon="8.897310">
        <ele>114.426693</ele>
        <time>2025-11-06T00:39:45.247Z</time>
      </trkpt>
      <trkpt lat="52.018499" lon="8.897354">
        <ele>114.461588</ele>
        <time>2025-11-06T00:39:46.894Z</time>
      </trkpt>
      <trkpt lat="52.019129" lon="8.897880">
        <ele>114.803622</ele>
        <time>2025-11-06T00:40:02.870Z</time>
      </trkpt>
      <trkpt lat="52.019296" lon="8.897967">
        <ele>114.888309</ele>
        <time>2025-11-06T00:40:06.804Z</time>
      </trkpt>
      <trkpt lat="52.019676" lon="8.898034">
        <ele>115.072888</ele>
        <time>2025-11-06T00:40:15.310Z</time>
      </trkpt>
      <trkpt lat="52.019783" lon="8.898084">
        <ele>115.126652</ele>
        <time>2025-11-06T00:40:17.766Z</time>
      </trkpt>
      <trkpt lat="52.020279" lon="8.898426">
        <ele>115.223883</ele>
        <time>2025-11-06T00:40:29.203Z</time>
      </trkpt>
      <trkpt lat="52.020901" lon="8.898928">
        <ele>113.139685</ele>
        <time>2025-11-06T00:40:42.143Z</time>
      </trkpt>
      <trkpt lat="52.020953" lon="8.898970">
        <ele>112.965417</ele>
        <time>2025-11-06T00:40:43.138Z</time>
      </trkpt>
      <trkpt lat="52.021224" lon="8.899213">
        <ele>112.036536</ele>
        <time>2025-11-06T00:40:48.140Z</time>
      </trkpt>
      <trkpt lat="52.021367" lon="8.899321">
        <ele>111.563302</ele>
        <time>2025-11-06T00:40:50.592Z</time>
      </trkpt>
      <trkpt lat="52.021981" lon="8.899493">
        <ele>109.525104</ele>
        <time>2025-11-06T00:40:59.928Z</time>
      </trkpt>
      <trkpt lat="52.022332" lon="8.899593">
        <ele>107.795969</ele>
        <time>2025-11-06T00:41:05.233Z</time>
      </trkpt>
      <trkpt lat="52.022670" lon="8.899678">
        <ele>106.136369</ele>
        <time>2025-11-06T00:41:10.199Z</time>
      </trkpt>
      <trkpt lat="52.022683" lon="8.899617">
        <ele>105.943618</ele>
        <time>2025-11-06T00:41:10.777Z</time>
      </trkpt>
      <trkpt lat="52.022705" lon="8.899513">
        <ele>105.615251</ele>
        <time>2025-11-06T00:41:11.783Z</time>
      </trkpt>
      <trkpt lat="52.022801" lon="8.899414">
        <ele>105.063555</ele>
        <time>2025-11-06T00:41:13.446Z</time>
      </trkpt>
      <trkpt lat="52.022794" lon="8.899612">
        <ele>104.471381</ele>
        <time>2025-11-06T00:41:15.262Z</time>
      </trkpt>
      <trkpt lat="52.022794" lon="8.899637">
        <ele>104.396735</ele>
        <time>2025-11-06T00:41:15.496Z</time>
      </trkpt>
      <trkpt lat="52.022793" lon="8.899667">
        <ele>104.307028</ele>
        <time>2025-11-06T00:41:15.777Z</time>
      </trkpt>
      <trkpt lat="52.022792" lon="8.899707">
        <ele>104.187495</ele>
        <time>2025-11-06T00:41:16.150Z</time>
      </trkpt>
      <trkpt lat="52.022797" lon="8.899796">
        <ele>103.920648</ele>
        <time>2025-11-06T00:41:16.984Z</time>
      </trkpt>
      <trkpt lat="52.022828" lon="8.899981">
        <ele>103.348151</ele>
        <time>2025-11-06T00:41:18.784Z</time>
      </trkpt>
      <trkpt lat="52.022901" lon="8.899961">
        <ele>102.988934</ele>
        <time>2025-11-06T00:41:20.336Z</time>
      </trkpt>
      <trkpt lat="52.023110" lon="8.899839">
        <ele>101.911364</ele>
        <time>2025-11-06T00:41:25.139Z</time>
      </trkpt>
      <trkpt lat="52.023131" lon="8.899826">
        <ele>101.802323</ele>
        <time>2025-11-06T00:41:25.634Z</time>
      </trkpt>
      <trkpt lat="52.023550" lon="8.899572">
        <ele>100.848220</ele>
        <time>2025-11-06T00:41:36.069Z</time>
      </trkpt>
      <trkpt lat="52.023567" lon="8.899562">
        <ele>100.826888</ele>
        <time>2025-11-06T00:41:36.506Z</time>
      </trkpt>
      <trkpt lat="52.023683" lon="8.899522">
        <ele>100.686970</ele>
        <time>2025-11-06T00:41:39.491Z</time>
      </trkpt>
      <trkpt lat="52.023849" lon="8.899407">
        <ele>100.474050</ele>
        <time>2025-11-06T00:41:42.954Z</time>
      </trkpt>
      <trkpt lat="52.024068" lon="8.899374">
        <ele>100.214539</ele>
        <time>2025-11-06T00:41:47.099Z</time>
      </trkpt>
      <trkpt lat="52.024100" lon="8.899368">
        <ele>100.176531</ele>
        <time>2025-11-06T00:41:47.758Z</time>
      </trkpt>
      <trkpt lat="52.024077" lon="8.899614">
        <ele>99.995876</ele>
        <time>2025-11-06T00:41:50.908Z</time>
      </trkpt>
      <trkpt lat="52.023986" lon="8.901106">
        <ele>99.062087</ele>
        <time>2025-11-06T00:42:10.371Z</time>
      </trkpt>
      <trkpt lat="52.023918" lon="8.901989">
        <ele>98.893760</ele>
        <time>2025-11-06T00:42:21.669Z</time>
      </trkpt>
      <trkpt lat="52.023946" lon="8.903493">
        <ele>98.609141</ele>
        <time>2025-11-06T00:42:40.337Z</time>
      </trkpt>
      <trkpt lat="52.023892" lon="8.904000">
        <ele>98.503849</ele>
        <time>2025-11-06T00:42:46.801Z</time>
      </trkpt>
      <trkpt lat="52.023872" lon="8.904100">
        <ele>98.480907</ele>
        <time>2025-11-06T00:42:48.125Z</time>
      </trkpt>
      <trkpt lat="52.023851" lon="8.904259">
        <ele>98.445425</ele>
        <time>2025-11-06T00:42:50.208Z</time>
      </trkpt>
      <trkpt lat="52.023846" lon="8.904631">
        <ele>98.364240</ele>
        <time>2025-11-06T00:42:54.966Z</time>
      </trkpt>
      <trkpt lat="52.023984" lon="8.905573">
        <ele>98.152965</ele>
        <time>2025-11-06T00:43:07.312Z</time>
      </trkpt>
      <trkpt lat="52.024136" lon="8.906030">
        <ele>98.039621</ele>
        <time>2025-11-06T00:43:13.783Z</time>
      </trkpt>
      <trkpt lat="52.024340" lon="8.906308">
        <ele>97.945221</ele>
        <time>2025-11-06T00:43:19.085Z</time>
      </trkpt>
      <trkpt lat="52.024396" lon="8.906385">
        <ele>97.918767</ele>
        <time>2025-11-06T00:43:20.587Z</time>
      </trkpt>
      <trkpt lat="52.025135" lon="8.907017">
        <ele>97.603154</ele>
        <time>2025-11-06T00:43:37.446Z</time>
      </trkpt>
      <trkpt lat="52.025201" lon="8.907042">
        <ele>97.577541</ele>
        <time>2025-11-06T00:43:39.280Z</time>
      </trkpt>
      <trkpt lat="52.025203" lon="8.907453">
        <ele>97.481958</ele>
        <time>2025-11-06T00:43:44.623Z</time>
      </trkpt>
      <trkpt lat="52.025148" lon="8.907466">
        <ele>97.460952</ele>
        <time>2025-11-06T00:43:46.135Z</time>
      </trkpt>
      <trkpt lat="52.025134" lon="8.907465">
        <ele>97.455656</ele>
        <time>2025-11-06T00:43:46.516Z</time>
      </trkpt>
      <trkpt lat="52.025044" lon="8.907447">
        <ele>97.421384</ele>
        <time>2025-11-06T00:43:48.354Z</time>
      </trkpt>
      <trkpt lat="52.024891" lon="8.907415">
        <ele>97.363081</ele>
        <time>2025-11-06T00:43:51.541Z</time>
      </trkpt>
      <trkpt lat="52.024761" lon="8.907326">
        <ele>97.309767</ele>
        <time>2025-11-06T00:43:54.467Z</time>
      </trkpt>
      <trkpt lat="52.024630" lon="8.907230">
        <ele>97.255455</ele>
        <time>2025-11-06T00:43:57.464Z</time>
      </trkpt>
      <trkpt lat="52.024501" lon="8.907135">
        <ele>97.273368</ele>
        <time>2025-11-06T00:44:00.440Z</time>
      </trkpt>
      <trkpt lat="52.024446" lon="8.907343">
        <ele>97.305767</ele>
        <time>2025-11-06T00:44:03.391Z</time>
      </trkpt>
      <trkpt lat="52.024501" lon="8.907135">
        <ele>97.338166</ele>
        <time>2025-11-06T00:44:06.318Z</time>
      </trkpt>
      <trkpt lat="52.024630" lon="8.907230">
        <ele>97.371105</ele>
        <time>2025-11-06T00:44:09.306Z</time>
      </trkpt>
      <trkpt lat="52.024761" lon="8.907326">
        <ele>97.404527</ele>
        <time>2025-11-06T00:44:12.353Z</time>
      </trkpt>
      <trkpt lat="52.024891" lon="8.907415">
        <ele>97.437336</ele>
        <time>2025-11-06T00:44:15.370Z</time>
      </trkpt>
      <trkpt lat="52.025044" lon="8.907447">
        <ele>97.473214</ele>
        <time>2025-11-06T00:44:18.705Z</time>
      </trkpt>
      <trkpt lat="52.025134" lon="8.907465">
        <ele>97.494304</ele>
        <time>2025-11-06T00:44:20.668Z</time>
      </trkpt>
      <trkpt lat="52.025148" lon="8.907466">
        <ele>97.497563</ele>
        <time>2025-11-06T00:44:21.061Z</time>
      </trkpt>
      <trkpt lat="52.025203" lon="8.907453">
        <ele>97.510489</ele>
        <time>2025-11-06T00:44:22.621Z</time>
      </trkpt>
      <trkpt lat="52.025201" lon="8.907042">
        <ele>97.569309</ele>
        <time>2025-11-06T00:44:28.363Z</time>
      </trkpt>
      <trkpt lat="52.025135" lon="8.907017">
        <ele>97.585070</ele>
        <time>2025-11-06T00:44:30.226Z</time>
      </trkpt>
      <trkpt lat="52.024396" lon="8.906385">
        <ele>97.868866</ele>
        <time>2025-11-06T00:44:48.540Z</time>
      </trkpt>
      <trkpt lat="52.024340" lon="8.906308">
        <ele>97.899237</ele>
        <time>2025-11-06T00:44:50.144Z</time>
      </trkpt>
      <trkpt lat="52.024136" lon="8.906030">
        <ele>98.009465</ele>
        <time>2025-11-06T00:44:56.006Z</time>
      </trkpt>
      <trkpt lat="52.023984" lon="8.905573">
        <ele>98.141814</ele>
        <time>2025-11-06T00:45:03.009Z</time>
      </trkpt>
      <trkpt lat="52.023846" lon="8.904631">
        <ele>98.388513</ele>
        <time>2025-11-06T00:45:15.782Z</time>
      </trkpt>
      <trkpt lat="52.023851" lon="8.904259">
        <ele>98.471624</ele>
        <time>2025-11-06T00:45:20.676Z</time>
      </trkpt>
      <trkpt lat="52.023872" lon="8.904100">
        <ele>98.506524</ele>
        <time>2025-11-06T00:45:22.825Z</time>
      </trkpt>
      <trkpt lat="52.023892" lon="8.904000">
        <ele>98.529090</ele>
        <time>2025-11-06T00:45:24.210Z</time>
      </trkpt>
      <trkpt lat="52.023946" lon="8.903493">
        <ele>98.639515</ele>
        <time>2025-11-06T00:45:31.106Z</time>
      </trkpt>
      <trkpt lat="52.023918" lon="8.901989">
        <ele>98.962434</ele>
        <time>2025-11-06T00:45:51.402Z</time>
      </trkpt>
      <trkpt lat="52.023986" lon="8.901106">
        <ele>99.210137</ele>
        <time>2025-11-06T00:46:03.187Z</time>
      </trkpt>
      <trkpt lat="52.024077" lon="8.899614">
        <ele>99.688006</ele>
        <time>2025-11-06T00:46:22.647Z</time>
      </trkpt>
      <trkpt lat="52.024100" lon="8.899368">
        <ele>99.767312</ele>
        <time>2025-11-06T00:46:25.906Z</time>
      </trkpt>
      <trkpt lat="52.024068" lon="8.899374">
        <ele>99.783997</ele>
        <time>2025-11-06T00:46:26.634Z</time>
      </trkpt>
      <trkpt lat="52.023849" lon="8.899407">
        <ele>99.897920</ele>
        <time>2025-11-06T00:46:31.519Z</time>
      </trkpt>
      <trkpt lat="52.023674" lon="8.899411">
        <ele>100.135225</ele>
        <time>2025-11-06T00:46:35.650Z</time>
      </trkpt>
      <trkpt lat="52.023588" lon="8.899390">
        <ele>100.503495</ele>
        <time>2025-11-06T00:46:37.710Z</time>
      </trkpt>
      <trkpt lat="52.023537" lon="8.899502">
        <ele>100.866559</ele>
        <time>2025-11-06T00:46:39.719Z</time>
      </trkpt>
      <trkpt lat="52.023348" lon="8.899599">
        <ele>101.705876</ele>
        <time>2025-11-06T00:46:44.441Z</time>
      </trkpt>
      <trkpt lat="52.023324" lon="8.899495">
        <ele>101.995306</ele>
        <time>2025-11-06T00:46:46.397Z</time>
      </trkpt>
      <trkpt lat="52.023089" lon="8.899622">
        <ele>103.044038</ele>
        <time>2025-11-06T00:46:53.639Z</time>
      </trkpt>
      <trkpt lat="52.023075" lon="8.899646">
        <ele>103.130211</ele>
        <time>2025-11-06T00:46:54.251Z</time>
      </trkpt>
      <trkpt lat="52.022876" lon="8.899654">
        <ele>103.973169</ele>
        <time>2025-11-06T00:47:00.339Z</time>
      </trkpt>
      <trkpt lat="52.022793" lon="8.899667">
        <ele>104.326275</ele>
        <time>2025-11-06T00:47:02.934Z</time>
      </trkpt>
      <trkpt lat="52.022794" lon="8.899637">
        <ele>104.404564</ele>
        <time>2025-11-06T00:47:03.428Z</time>
      </trkpt>
      <trkpt lat="52.022794" lon="8.899612">
        <ele>104.469709</ele>
        <time>2025-11-06T00:47:03.847Z</time>
      </trkpt>
      <trkpt lat="52.022801" lon="8.899414">
        <ele>104.986508</ele>
        <time>2025-11-06T00:47:07.181Z</time>
      </trkpt>
      <trkpt lat="52.022705" lon="8.899513">
        <ele>105.467981</ele>
        <time>2025-11-06T00:47:10.322Z</time>
      </trkpt>
      <trkpt lat="52.022683" lon="8.899617">
        <ele>105.754551</ele>
        <time>2025-11-06T00:47:12.205Z</time>
      </trkpt>
      <trkpt lat="52.022670" lon="8.899678">
        <ele>105.922768</ele>
        <time>2025-11-06T00:47:13.334Z</time>
      </trkpt>
      <trkpt lat="52.022332" lon="8.899593">
        <ele>107.371124</ele>
        <time>2025-11-06T00:47:23.314Z</time>
      </trkpt>
      <trkpt lat="52.021981" lon="8.899493">
        <ele>108.834925</ele>
        <time>2025-11-06T00:47:33.669Z</time>
      </trkpt>
      <trkpt lat="52.021367" lon="8.899321">
        <ele>111.381220</ele>
        <time>2025-11-06T00:47:50.566Z</time>
      </trkpt>
      <trkpt lat="52.021224" lon="8.899213">
        <ele>112.025663</ele>
        <time>2025-11-06T00:47:54.617Z</time>
      </trkpt>
      <trkpt lat="52.020953" lon="8.898970">
        <ele>113.290599</ele>
        <time>2025-11-06T00:48:02.230Z</time>
      </trkpt>
      <trkpt lat="52.020901" lon="8.898928">
        <ele>113.527914</ele>
        <time>2025-11-06T00:48:03.619Z</time>
      </trkpt>
      <trkpt lat="52.020279" lon="8.898426">
        <ele>114.923457</ele>
        <time>2025-11-06T00:48:19.495Z</time>
      </trkpt>
      <trkpt lat="52.019783" lon="8.898084">
        <ele>114.904967</ele>
        <time>2025-11-06T00:48:30.777Z</time>
      </trkpt>
      <trkpt lat="52.019676" lon="8.898034">
        <ele>114.901146</ele>
        <time>2025-11-06T00:48:33.019Z</time>
      </trkpt>
      <trkpt lat="52.019296" lon="8.897967">
        <ele>114.888029</ele>
        <time>2025-11-06T00:48:40.560Z</time>
      </trkpt>
      <trkpt lat="52.019129" lon="8.897880">
        <ele>114.882011</ele>
        <time>2025-11-06T00:48:43.975Z</time>
      </trkpt>
      <trkpt lat="52.018499" lon="8.897354">
        <ele>114.551284</ele>
        <time>2025-11-06T00:48:57.611Z</time>
      </trkpt>
      <trkpt lat="52.018432" lon="8.897310">
        <ele>114.501436</ele>
        <time>2025-11-06T00:48:58.977Z</time>
      </trkpt>
      <trkpt lat="52.018370" lon="8.897258">
        <ele>114.453307</ele>
        <time>2025-11-06T00:49:00.318Z</time>
      </trkpt>
      <trkpt lat="52.018011" lon="8.896748">
        <ele>114.124372</ele>
        <time>2025-11-06T00:49:09.588Z</time>
      </trkpt>
      <trkpt lat="52.017698" lon="8.896259">
        <ele>113.824856</ele>
        <time>2025-11-06T00:49:18.345Z</time>
      </trkpt>
      <trkpt lat="52.017625" lon="8.896164">
        <ele>113.760341</ele>
        <time>2025-11-06T00:49:20.292Z</time>
      </trkpt>
      <trkpt lat="52.017411" lon="8.895903">
        <ele>113.651936</ele>
        <time>2025-11-06T00:49:25.924Z</time>
      </trkpt>
      <trkpt lat="52.017073" lon="8.895568">
        <ele>113.742074</ele>
        <time>2025-11-06T00:49:34.295Z</time>
      </trkpt>
      <trkpt lat="52.016916" lon="8.895413">
        <ele>113.783899</ele>
        <time>2025-11-06T00:49:38.255Z</time>
      </trkpt>
      <trkpt lat="52.016800" lon="8.895210">
        <ele>113.822713</ele>
        <time>2025-11-06T00:49:41.944Z</time>
      </trkpt>
      <trkpt lat="52.016712" lon="8.894966">
        <ele>113.862340</ele>
        <time>2025-11-06T00:49:45.764Z</time>
      </trkpt>
      <trkpt lat="52.016678" lon="8.894870">
        <ele>113.877859</ele>
        <time>2025-11-06T00:49:47.248Z</time>
      </trkpt>
      <trkpt lat="52.016404" lon="8.894007">
        <ele>114.013923</ele>
        <time>2025-11-06T00:50:00.228Z</time>
      </trkpt>
      <trkpt lat="52.016199" lon="8.893466">
        <ele>114.247314</ele>
        <time>2025-11-06T00:50:08.598Z</time>
      </trkpt>
      <trkpt lat="52.015762" lon="8.892411">
        <ele>114.851358</ele>
        <time>2025-11-06T00:50:25.842Z</time>
      </trkpt>
      <trkpt lat="52.015220" lon="8.891113">
        <ele>115.770834</ele>
        <time>2025-11-06T00:50:47.656Z</time>
      </trkpt>
      <trkpt lat="52.014898" lon="8.890313">
        <ele>116.702796</ele>
        <time>2025-11-06T00:51:01.261Z</time>
      </trkpt>
      <trkpt lat="52.014882" lon="8.890169">
        <ele>116.845462</ele>
        <time>2025-11-06T00:51:03.365Z</time>
      </trkpt>
      <trkpt lat="52.014929" lon="8.889950">
        <ele>117.071589</ele>
        <time>2025-11-06T00:51:06.683Z</time>
      </trkpt>
      <trkpt lat="52.014368" lon="8.889550">
        <ele>118.042097</ele>
        <time>2025-11-06T00:51:20.817Z</time>
      </trkpt>
      <trkpt lat="52.013952" lon="8.889250">
        <ele>118.701985</ele>
        <time>2025-11-06T00:51:31.350Z</time>
      </trkpt>
      <trkpt lat="52.013664" lon="8.889043">
        <ele>119.137756</ele>
        <time>2025-11-06T00:51:38.714Z</time>
      </trkpt>
      <trkpt lat="52.012279" lon="8.888038">
        <ele>121.175736</ele>
        <time>2025-11-06T00:52:13.115Z</time>
      </trkpt>
      <trkpt lat="52.011734" lon="8.887663">
        <ele>121.888003</ele>
        <time>2025-11-06T00:52:26.340Z</time>
      </trkpt>
      <trkpt lat="52.011435" lon="8.887446">
        <ele>122.282100</ele>
        <time>2025-11-06T00:52:33.713Z</time>
      </trkpt>
      <trkpt lat="52.010708" lon="8.886917">
        <ele>123.343234</ele>
        <time>2025-11-06T00:52:52.056Z</time>
      </trkpt>
      <trkpt lat="52.010312" lon="8.886635">
        <ele>124.037108</ele>
        <time>2025-11-06T00:53:02.125Z</time>
      </trkpt>
      <trkpt lat="52.010010" lon="8.886411">
        <ele>124.569881</ele>
        <time>2025-11-06T00:53:09.848Z</time>
      </trkpt>
      <trkpt lat="52.009774" lon="8.886245">
        <ele>124.982590</ele>
        <time>2025-11-06T00:53:15.820Z</time>
      </trkpt>
      <trkpt lat="52.009763" lon="8.886160">
        <ele>125.068389</ele>
        <time>2025-11-06T00:53:17.056Z</time>
      </trkpt>
      <trkpt lat="52.009597" lon="8.885983">
        <ele>125.387039</ele>
        <time>2025-11-06T00:53:21.642Z</time>
      </trkpt>
      <trkpt lat="52.008486" lon="8.885194">
        <ele>126.734567</ele>
        <time>2025-11-06T00:53:49.021Z</time>
      </trkpt>
      <trkpt lat="52.007535" lon="8.884509">
        <ele>127.719063</ele>
        <time>2025-11-06T00:54:12.109Z</time>
      </trkpt>
      <trkpt lat="52.006531" lon="8.883775">
        <ele>128.639413</ele>
        <time>2025-11-06T00:54:36.681Z</time>
      </trkpt>
      <trkpt lat="52.005948" lon="8.883388">
        <ele>129.213556</ele>
        <time>2025-11-06T00:54:50.785Z</time>
      </trkpt>
      <trkpt lat="52.004997" lon="8.882718">
        <ele>130.504099</ele>
        <time>2025-11-06T00:55:14.192Z</time>
      </trkpt>
      <trkpt lat="52.004817" lon="8.882645">
        <ele>130.735076</ele>
        <time>2025-11-06T00:55:18.388Z</time>
      </trkpt>
      <trkpt lat="52.003678" lon="8.881815">
        <ele>132.981333</ele>
        <time>2025-11-06T00:55:47.298Z</time>
      </trkpt>
      <trkpt lat="52.003177" lon="8.881314">
        <ele>134.230247</ele>
        <time>2025-11-06T00:56:01.335Z</time>
      </trkpt>
      <trkpt lat="52.002851" lon="8.880812">
        <ele>135.167424</ele>
        <time>2025-11-06T00:56:12.080Z</time>
      </trkpt>
      <trkpt lat="52.002671" lon="8.880405">
        <ele>135.636680</ele>
        <time>2025-11-06T00:56:19.339Z</time>
      </trkpt>
      <trkpt lat="52.002616" lon="8.880256">
        <ele>135.799359</ele>
        <time>2025-11-06T00:56:21.839Z</time>
      </trkpt>
      <trkpt lat="52.002576" lon="8.880143">
        <ele>135.921416</ele>
        <time>2025-11-06T00:56:23.713Z</time>
      </trkpt>
      <trkpt lat="52.002496" lon="8.880044">
        <ele>136.074387</ele>
        <time>2025-11-06T00:56:26.065Z</time>
      </trkpt>
      <trkpt lat="52.002399" lon="8.879835">
        <ele>136.319476</ele>
        <time>2025-11-06T00:56:29.788Z</time>
      </trkpt>
      <trkpt lat="52.002314" lon="8.879618">
        <ele>136.560316</ele>
        <time>2025-11-06T00:56:33.448Z</time>
      </trkpt>
      <trkpt lat="52.002119" lon="8.879260">
        <ele>137.007921</ele>
        <time>2025-11-06T00:56:40.159Z</time>
      </trkpt>
      <trkpt lat="52.002081" lon="8.879296">
        <ele>137.074832</ele>
        <time>2025-11-06T00:56:41.158Z</time>
      </trkpt>
      <trkpt lat="52.001728" lon="8.878654">
        <ele>137.874944</ele>
        <time>2025-11-06T00:56:52.916Z</time>
      </trkpt>
      <trkpt lat="52.001366" lon="8.877996">
        <ele>138.445219</ele>
        <time>2025-11-06T00:57:04.821Z</time>
      </trkpt>
      <trkpt lat="52.001076" lon="8.877470">
        <ele>138.901528</ele>
        <time>2025-11-06T00:57:14.560Z</time>
      </trkpt>
      <trkpt lat="52.000988" lon="8.877167">
        <ele>139.118037</ele>
        <time>2025-11-06T00:57:19.228Z</time>
      </trkpt>
      <trkpt lat="52.000878" lon="8.876611">
        <ele>139.495450</ele>
        <time>2025-11-06T00:57:27.419Z</time>
      </trkpt>
      <trkpt lat="52.000478" lon="8.874987">
        <ele>141.446825</ele>
        <time>2025-11-06T00:57:52.343Z</time>
      </trkpt>
      <trkpt lat="52.000240" lon="8.874354">
        <ele>142.375373</ele>
        <time>2025-11-06T00:58:03.055Z</time>
      </trkpt>
      <trkpt lat="51.998953" lon="8.871861">
        <ele>147.175801</ele>
        <time>2025-11-06T00:58:50.788Z</time>
      </trkpt>
      <trkpt lat="51.998810" lon="8.871626">
        <ele>147.688393</ele>
        <time>2025-11-06T00:58:55.737Z</time>
      </trkpt>
      <trkpt lat="51.998275" lon="8.870693">
        <ele>148.505261</ele>
        <time>2025-11-06T00:59:14.259Z</time>
      </trkpt>
      <trkpt lat="51.998062" lon="8.870351">
        <ele>148.752534</ele>
        <time>2025-11-06T00:59:21.097Z</time>
      </trkpt>
      <trkpt lat="51.997558" lon="8.869423">
        <ele>149.381541</ele>
        <time>2025-11-06T00:59:37.344Z</time>
      </trkpt>
      <trkpt lat="51.997170" lon="8.868647">
        <ele>147.227974</ele>
        <time>2025-11-06T00:59:47.828Z</time>
      </trkpt>
      <trkpt lat="51.997029" lon="8.868287">
        <ele>146.204182</ele>
        <time>2025-11-06T00:59:52.031Z</time>
      </trkpt>
      <trkpt lat="51.996216" lon="8.865507">
        <ele>137.963164</ele>
        <time>2025-11-06T01:00:20.277Z</time>
      </trkpt>
      <trkpt lat="51.996137" lon="8.865221">
        <ele>137.031900</ele>
        <time>2025-11-06T01:00:23.209Z</time>
      </trkpt>
      <trkpt lat="51.996049" lon="8.864848">
        <ele>135.845190</ele>
        <time>2025-11-06T01:00:27.016Z</time>
      </trkpt>
      <trkpt lat="51.996013" lon="8.864577">
        <ele>135.021549</ele>
        <time>2025-11-06T01:00:29.661Z</time>
      </trkpt>
      <trkpt lat="51.996008" lon="8.863117">
        <ele>131.641307</ele>
        <time>2025-11-06T01:00:43.907Z</time>
      </trkpt>
      <trkpt lat="51.995977" lon="8.862673">
        <ele>130.730179</ele>
        <time>2025-11-06T01:00:48.267Z</time>
      </trkpt>
      <trkpt lat="51.995534" lon="8.860841">
        <ele>127.953937</ele>
        <time>2025-11-06T01:01:08.136Z</time>
      </trkpt>
      <trkpt lat="51.995513" lon="8.860796">
        <ele>127.972824</ele>
        <time>2025-11-06T01:01:08.804Z</time>
      </trkpt>
      <trkpt lat="51.995367" lon="8.860653">
        <ele>128.065445</ele>
        <time>2025-11-06T01:01:12.174Z</time>
      </trkpt>
      <trkpt lat="51.994004" lon="8.860236">
        <ele>128.900702</ele>
        <time>2025-11-06T01:01:44.396Z</time>
      </trkpt>
      <trkpt lat="51.993833" lon="8.860117">
        <ele>129.134670</ele>
        <time>2025-11-06T01:01:48.894Z</time>
      </trkpt>
      <trkpt lat="51.993682" lon="8.859964">
        <ele>129.358503</ele>
        <time>2025-11-06T01:01:53.150Z</time>
      </trkpt>
      <trkpt lat="51.993101" lon="8.859223">
        <ele>130.287578</ele>
        <time>2025-11-06T01:02:10.210Z</time>
      </trkpt>
      <trkpt lat="51.992920" lon="8.858986">
        <ele>130.579984</ele>
        <time>2025-11-06T01:02:15.341Z</time>
      </trkpt>
      <trkpt lat="51.991979" lon="8.857757">
        <ele>130.815621</ele>
        <time>2025-11-06T01:02:40.220Z</time>
      </trkpt>
      <trkpt lat="51.991097" lon="8.856745">
        <ele>130.596489</ele>
        <time>2025-11-06T01:03:02.182Z</time>
      </trkpt>
      <trkpt lat="51.990334" lon="8.855994">
        <ele>130.617149</ele>
        <time>2025-11-06T01:03:20.929Z</time>
      </trkpt>
      <trkpt lat="51.989007" lon="8.854412">
        <ele>131.128375</ele>
        <time>2025-11-06T01:03:56.508Z</time>
      </trkpt>
      <trkpt lat="51.987969" lon="8.853379">
        <ele>131.821399</ele>
        <time>2025-11-06T01:04:23.603Z</time>
      </trkpt>
      <trkpt lat="51.987497" lon="8.852887">
        <ele>132.155037</ele>
        <time>2025-11-06T01:04:36.060Z</time>
      </trkpt>
      <trkpt lat="51.987293" lon="8.852777">
        <ele>132.282901</ele>
        <time>2025-11-06T01:04:40.773Z</time>
      </trkpt>
      <trkpt lat="51.987082" lon="8.852712">
        <ele>132.410652</ele>
        <time>2025-11-06T01:04:45.447Z</time>
      </trkpt>
      <trkpt lat="51.986279" lon="8.852526">
        <ele>132.955896</ele>
        <time>2025-11-06T01:05:03.109Z</time>
      </trkpt>
      <trkpt lat="51.985534" lon="8.852364">
        <ele>133.559393</ele>
        <time>2025-11-06T01:05:19.764Z</time>
      </trkpt>
      <trkpt lat="51.985430" lon="8.852331">
        <ele>133.644474</ele>
        <time>2025-11-06T01:05:22.170Z</time>
      </trkpt>
      <trkpt lat="51.984951" lon="8.852220">
        <ele>134.032958</ele>
        <time>2025-11-06T01:05:33.195Z</time>
      </trkpt>
      <trkpt lat="51.984629" lon="8.852143">
        <ele>134.157871</ele>
        <time>2025-11-06T01:05:40.532Z</time>
      </trkpt>
      <trkpt lat="51.984288" lon="8.852058">
        <ele>134.157871</ele>
        <time>2025-11-06T01:05:48.264Z</time>
      </trkpt>
      <trkpt lat="51.983991" lon="8.851978">
        <ele>134.157871</ele>
        <time>2025-11-06T01:05:54.929Z</time>
      </trkpt>
      <trkpt lat="51.983849" lon="8.851944">
        <ele>134.157871</ele>
        <time>2025-11-06T01:05:58.076Z</time>
      </trkpt>
      <trkpt lat="51.983601" lon="8.851889">
        <ele>134.157871</ele>
        <time>2025-11-06T01:06:03.491Z</time>
      </trkpt>
    </trkseg>
  </trk>
</gpx>